<?xml version='1.0' encoding='UTF-8'?>
<gpx version="1.1" creator="https://www.komoot.de" xmlns="http://www.topografix.com/GPX/1/1" xmlns:xsi="http://www.w3.org/2001/XMLSchema-instance" xsi:schemaLocation="http://www.topografix.com/GPX/1/1 http://www.topografix.com/GPX/1/1/gpx.xsd">
  <metadata>
    <name>Ronde van Voorst 2026 (Lions) 120 km_definitief</name>
    <author>
      <link href="https://www.komoot.de">
        <text>komoot</text>
        <type>text/html</type>
      </link>
    </author>
  </metadata>
  <wpt lat="52.373037" lon="5.903446">
    <name>Tussendoorweg Nunspeet naar Woldberg (Veluwe)</name>
    <sym>Flag, Blue</sym>
  </wpt>
  <wpt lat="52.367761" lon="6.073501">
    <name>Pauzeplek, catering</name>
    <sym>Restaurant</sym>
  </wpt>
  <wpt lat="52.171745" lon="6.149824">
    <name>Dorpskerk Voorst</name>
    <sym>Flag, Blue</sym>
  </wpt>
  <trk>
    <name>Ronde van Voorst 2026 (Lions) 120 km_definitief</name>
    <type>racebike</type>
    <trkseg>
      <trkpt lat="52.225061" lon="6.102198">
        <ele>4.754233</ele>
        <time>2026-08-02T20:11:40.931Z</time>
      </trkpt>
      <trkpt lat="52.225018" lon="6.102416">
        <ele>4.754233</ele>
        <time>2026-08-02T20:11:43.808Z</time>
      </trkpt>
      <trkpt lat="52.224918" lon="6.102930">
        <ele>4.754233</ele>
        <time>2026-08-02T20:11:50.582Z</time>
      </trkpt>
      <trkpt lat="52.225047" lon="6.102979">
        <ele>4.754233</ele>
        <time>2026-08-02T20:11:53.323Z</time>
      </trkpt>
      <trkpt lat="52.225671" lon="6.103301">
        <ele>4.798349</ele>
        <time>2026-08-02T20:12:07.039Z</time>
      </trkpt>
      <trkpt lat="52.225916" lon="6.103428">
        <ele>4.830008</ele>
        <time>2026-08-02T20:12:12.511Z</time>
      </trkpt>
      <trkpt lat="52.225951" lon="6.103446">
        <ele>4.834527</ele>
        <time>2026-08-02T20:12:13.269Z</time>
      </trkpt>
      <trkpt lat="52.225954" lon="6.103509">
        <ele>4.839295</ele>
        <time>2026-08-02T20:12:13.891Z</time>
      </trkpt>
      <trkpt lat="52.226140" lon="6.103980">
        <ele>4.881572</ele>
        <time>2026-08-02T20:12:19.187Z</time>
      </trkpt>
      <trkpt lat="52.226169" lon="6.104002">
        <ele>4.885510</ele>
        <time>2026-08-02T20:12:19.684Z</time>
      </trkpt>
      <trkpt lat="52.226191" lon="6.103999">
        <ele>4.888229</ele>
        <time>2026-08-02T20:12:20.127Z</time>
      </trkpt>
      <trkpt lat="52.226258" lon="6.103990">
        <ele>4.896509</ele>
        <time>2026-08-02T20:12:21.530Z</time>
      </trkpt>
      <trkpt lat="52.226276" lon="6.103986">
        <ele>4.898746</ele>
        <time>2026-08-02T20:12:21.916Z</time>
      </trkpt>
      <trkpt lat="52.226337" lon="6.103849">
        <ele>4.911524</ele>
        <time>2026-08-02T20:12:23.491Z</time>
      </trkpt>
      <trkpt lat="52.226408" lon="6.103690">
        <ele>4.926368</ele>
        <time>2026-08-02T20:12:25.330Z</time>
      </trkpt>
      <trkpt lat="52.226714" lon="6.103650">
        <ele>4.964175</ele>
        <time>2026-08-02T20:12:29.971Z</time>
      </trkpt>
      <trkpt lat="52.226800" lon="6.103631">
        <ele>4.974864</ele>
        <time>2026-08-02T20:12:31.261Z</time>
      </trkpt>
      <trkpt lat="52.226879" lon="6.103500">
        <ele>4.974953</ele>
        <time>2026-08-02T20:12:32.924Z</time>
      </trkpt>
      <trkpt lat="52.226928" lon="6.103494">
        <ele>4.974580</ele>
        <time>2026-08-02T20:12:33.647Z</time>
      </trkpt>
      <trkpt lat="52.226925" lon="6.103405">
        <ele>4.974165</ele>
        <time>2026-08-02T20:12:34.447Z</time>
      </trkpt>
      <trkpt lat="52.226836" lon="6.103009">
        <ele>4.972202</ele>
        <time>2026-08-02T20:12:38.211Z</time>
      </trkpt>
      <trkpt lat="52.226783" lon="6.101630">
        <ele>4.965772</ele>
        <time>2026-08-02T20:12:50.446Z</time>
      </trkpt>
      <trkpt lat="52.226650" lon="6.098557">
        <ele>5.134085</ele>
        <time>2026-08-02T20:13:19.392Z</time>
      </trkpt>
      <trkpt lat="52.226641" lon="6.098340">
        <ele>5.150426</ele>
        <time>2026-08-02T20:13:21.440Z</time>
      </trkpt>
      <trkpt lat="52.226650" lon="6.098188">
        <ele>5.161899</ele>
        <time>2026-08-02T20:13:22.877Z</time>
      </trkpt>
      <trkpt lat="52.226692" lon="6.098009">
        <ele>5.176301</ele>
        <time>2026-08-02T20:13:24.673Z</time>
      </trkpt>
      <trkpt lat="52.226815" lon="6.098050">
        <ele>5.197742</ele>
        <time>2026-08-02T20:13:26.581Z</time>
      </trkpt>
      <trkpt lat="52.226952" lon="6.098126">
        <ele>5.227420</ele>
        <time>2026-08-02T20:13:28.830Z</time>
      </trkpt>
      <trkpt lat="52.227124" lon="6.098118">
        <ele>5.262713</ele>
        <time>2026-08-02T20:13:31.513Z</time>
      </trkpt>
      <trkpt lat="52.227172" lon="6.098111">
        <ele>5.272597</ele>
        <time>2026-08-02T20:13:32.273Z</time>
      </trkpt>
      <trkpt lat="52.227340" lon="6.098087">
        <ele>5.307187</ele>
        <time>2026-08-02T20:13:34.902Z</time>
      </trkpt>
      <trkpt lat="52.227545" lon="6.098057">
        <ele>5.349402</ele>
        <time>2026-08-02T20:13:38.107Z</time>
      </trkpt>
      <trkpt lat="52.227725" lon="6.098031">
        <ele>5.386466</ele>
        <time>2026-08-02T20:13:40.910Z</time>
      </trkpt>
      <trkpt lat="52.227849" lon="6.098013">
        <ele>5.411999</ele>
        <time>2026-08-02T20:13:42.902Z</time>
      </trkpt>
      <trkpt lat="52.227882" lon="6.098008">
        <ele>5.418797</ele>
        <time>2026-08-02T20:13:43.435Z</time>
      </trkpt>
      <trkpt lat="52.227900" lon="6.098006">
        <ele>5.422498</ele>
        <time>2026-08-02T20:13:43.744Z</time>
      </trkpt>
      <trkpt lat="52.228189" lon="6.097965">
        <ele>5.481997</ele>
        <time>2026-08-02T20:13:48.378Z</time>
      </trkpt>
      <trkpt lat="52.228237" lon="6.097959">
        <ele>5.491871</ele>
        <time>2026-08-02T20:13:49.122Z</time>
      </trkpt>
      <trkpt lat="52.228280" lon="6.097952">
        <ele>5.500734</ele>
        <time>2026-08-02T20:13:49.772Z</time>
      </trkpt>
      <trkpt lat="52.228381" lon="6.097936">
        <ele>5.521547</ele>
        <time>2026-08-02T20:13:51.335Z</time>
      </trkpt>
      <trkpt lat="52.228484" lon="6.097920">
        <ele>5.542769</ele>
        <time>2026-08-02T20:13:52.930Z</time>
      </trkpt>
      <trkpt lat="52.228584" lon="6.097904">
        <ele>5.567998</ele>
        <time>2026-08-02T20:13:54.478Z</time>
      </trkpt>
      <trkpt lat="52.228676" lon="6.097890">
        <ele>5.594399</ele>
        <time>2026-08-02T20:13:55.905Z</time>
      </trkpt>
      <trkpt lat="52.228749" lon="6.097879">
        <ele>5.615346</ele>
        <time>2026-08-02T20:13:57.050Z</time>
      </trkpt>
      <trkpt lat="52.228837" lon="6.097865">
        <ele>5.640610</ele>
        <time>2026-08-02T20:13:58.452Z</time>
      </trkpt>
      <trkpt lat="52.228856" lon="6.097861">
        <ele>5.646084</ele>
        <time>2026-08-02T20:13:58.769Z</time>
      </trkpt>
      <trkpt lat="52.228890" lon="6.097850">
        <ele>5.655988</ele>
        <time>2026-08-02T20:13:59.309Z</time>
      </trkpt>
      <trkpt lat="52.229009" lon="6.097793">
        <ele>5.691423</ele>
        <time>2026-08-02T20:14:01.288Z</time>
      </trkpt>
      <trkpt lat="52.229194" lon="6.097627">
        <ele>5.751741</ele>
        <time>2026-08-02T20:14:04.626Z</time>
      </trkpt>
      <trkpt lat="52.229212" lon="6.097608">
        <ele>5.757866</ele>
        <time>2026-08-02T20:14:04.970Z</time>
      </trkpt>
      <trkpt lat="52.229331" lon="6.097479">
        <ele>5.798681</ele>
        <time>2026-08-02T20:14:07.230Z</time>
      </trkpt>
      <trkpt lat="52.229473" lon="6.097324">
        <ele>5.847488</ele>
        <time>2026-08-02T20:14:09.961Z</time>
      </trkpt>
      <trkpt lat="52.229604" lon="6.097182">
        <ele>5.892417</ele>
        <time>2026-08-02T20:14:12.538Z</time>
      </trkpt>
      <trkpt lat="52.229667" lon="6.097115">
        <ele>5.913901</ele>
        <time>2026-08-02T20:14:13.794Z</time>
      </trkpt>
      <trkpt lat="52.229796" lon="6.096953">
        <ele>5.960403</ele>
        <time>2026-08-02T20:14:16.440Z</time>
      </trkpt>
      <trkpt lat="52.229810" lon="6.096931">
        <ele>5.965955</ele>
        <time>2026-08-02T20:14:16.742Z</time>
      </trkpt>
      <trkpt lat="52.229939" lon="6.096736">
        <ele>6.016187</ele>
        <time>2026-08-02T20:14:19.531Z</time>
      </trkpt>
      <trkpt lat="52.229985" lon="6.096671">
        <ele>6.033570</ele>
        <time>2026-08-02T20:14:20.483Z</time>
      </trkpt>
      <trkpt lat="52.230067" lon="6.096727">
        <ele>6.058967</ele>
        <time>2026-08-02T20:14:21.872Z</time>
      </trkpt>
      <trkpt lat="52.230123" lon="6.096695">
        <ele>6.077765</ele>
        <time>2026-08-02T20:14:22.833Z</time>
      </trkpt>
      <trkpt lat="52.230159" lon="6.096622">
        <ele>6.097087</ele>
        <time>2026-08-02T20:14:23.759Z</time>
      </trkpt>
      <trkpt lat="52.230159" lon="6.096489">
        <ele>6.124507</ele>
        <time>2026-08-02T20:14:25.071Z</time>
      </trkpt>
      <trkpt lat="52.230215" lon="6.096444">
        <ele>6.145516</ele>
        <time>2026-08-02T20:14:26.105Z</time>
      </trkpt>
      <trkpt lat="52.230448" lon="6.096264">
        <ele>6.232280</ele>
        <time>2026-08-02T20:14:30.408Z</time>
      </trkpt>
      <trkpt lat="52.230876" lon="6.095787">
        <ele>6.406709</ele>
        <time>2026-08-02T20:14:38.958Z</time>
      </trkpt>
      <trkpt lat="52.230991" lon="6.095655">
        <ele>6.454026</ele>
        <time>2026-08-02T20:14:41.226Z</time>
      </trkpt>
      <trkpt lat="52.231277" lon="6.095329">
        <ele>6.571433</ele>
        <time>2026-08-02T20:14:46.760Z</time>
      </trkpt>
      <trkpt lat="52.231376" lon="6.095216">
        <ele>6.612092</ele>
        <time>2026-08-02T20:14:48.700Z</time>
      </trkpt>
      <trkpt lat="52.231444" lon="6.095140">
        <ele>6.639830</ele>
        <time>2026-08-02T20:14:49.987Z</time>
      </trkpt>
      <trkpt lat="52.231904" lon="6.094611">
        <ele>6.659094</ele>
        <time>2026-08-02T20:14:59.038Z</time>
      </trkpt>
      <trkpt lat="52.232150" lon="6.094287">
        <ele>6.651104</ele>
        <time>2026-08-02T20:15:03.783Z</time>
      </trkpt>
      <trkpt lat="52.232251" lon="6.094160">
        <ele>6.647881</ele>
        <time>2026-08-02T20:15:05.646Z</time>
      </trkpt>
      <trkpt lat="52.232322" lon="6.094224">
        <ele>6.645830</ele>
        <time>2026-08-02T20:15:06.770Z</time>
      </trkpt>
      <trkpt lat="52.232392" lon="6.094158">
        <ele>6.643786</ele>
        <time>2026-08-02T20:15:07.934Z</time>
      </trkpt>
      <trkpt lat="52.232402" lon="6.094070">
        <ele>6.642401</ele>
        <time>2026-08-02T20:15:08.694Z</time>
      </trkpt>
      <trkpt lat="52.232376" lon="6.093991">
        <ele>6.641012</ele>
        <time>2026-08-02T20:15:09.476Z</time>
      </trkpt>
      <trkpt lat="52.232461" lon="6.093823">
        <ele>6.637638</ele>
        <time>2026-08-02T20:15:11.346Z</time>
      </trkpt>
      <trkpt lat="52.232758" lon="6.093354">
        <ele>6.627191</ele>
        <time>2026-08-02T20:15:17.189Z</time>
      </trkpt>
      <trkpt lat="52.232776" lon="6.093326">
        <ele>6.626563</ele>
        <time>2026-08-02T20:15:17.528Z</time>
      </trkpt>
      <trkpt lat="52.233144" lon="6.092749">
        <ele>6.523720</ele>
        <time>2026-08-02T20:15:24.625Z</time>
      </trkpt>
      <trkpt lat="52.233314" lon="6.092519">
        <ele>6.475743</ele>
        <time>2026-08-02T20:15:27.616Z</time>
      </trkpt>
      <trkpt lat="52.233516" lon="6.092401">
        <ele>6.429121</ele>
        <time>2026-08-02T20:15:30.550Z</time>
      </trkpt>
      <trkpt lat="52.233737" lon="6.092391">
        <ele>6.381077</ele>
        <time>2026-08-02T20:15:33.626Z</time>
      </trkpt>
      <trkpt lat="52.234060" lon="6.092411">
        <ele>6.310835</ele>
        <time>2026-08-02T20:15:38.244Z</time>
      </trkpt>
      <trkpt lat="52.234168" lon="6.092364">
        <ele>6.286546</ele>
        <time>2026-08-02T20:15:39.855Z</time>
      </trkpt>
      <trkpt lat="52.235021" lon="6.091557">
        <ele>6.224210</ele>
        <time>2026-08-02T20:15:54.068Z</time>
      </trkpt>
      <trkpt lat="52.235351" lon="6.091238">
        <ele>6.218856</ele>
        <time>2026-08-02T20:15:59.755Z</time>
      </trkpt>
      <trkpt lat="52.235461" lon="6.091140">
        <ele>6.217106</ele>
        <time>2026-08-02T20:16:01.630Z</time>
      </trkpt>
      <trkpt lat="52.235871" lon="6.090773">
        <ele>6.210578</ele>
        <time>2026-08-02T20:16:08.554Z</time>
      </trkpt>
      <trkpt lat="52.235962" lon="6.090730">
        <ele>6.212827</ele>
        <time>2026-08-02T20:16:10.004Z</time>
      </trkpt>
      <trkpt lat="52.236028" lon="6.090748">
        <ele>6.224190</ele>
        <time>2026-08-02T20:16:11.004Z</time>
      </trkpt>
      <trkpt lat="52.236082" lon="6.090774">
        <ele>6.233751</ele>
        <time>2026-08-02T20:16:11.890Z</time>
      </trkpt>
      <trkpt lat="52.236116" lon="6.090663">
        <ele>6.246658</ele>
        <time>2026-08-02T20:16:13.068Z</time>
      </trkpt>
      <trkpt lat="52.236193" lon="6.090549">
        <ele>6.264309</ele>
        <time>2026-08-02T20:16:14.706Z</time>
      </trkpt>
      <trkpt lat="52.236263" lon="6.090499">
        <ele>6.277283</ele>
        <time>2026-08-02T20:16:15.897Z</time>
      </trkpt>
      <trkpt lat="52.236524" lon="6.090324">
        <ele>6.325197</ele>
        <time>2026-08-02T20:16:20.356Z</time>
      </trkpt>
      <trkpt lat="52.236728" lon="6.090170">
        <ele>6.363363</ele>
        <time>2026-08-02T20:16:23.964Z</time>
      </trkpt>
      <trkpt lat="52.236781" lon="6.090054">
        <ele>6.378414</ele>
        <time>2026-08-02T20:16:25.371Z</time>
      </trkpt>
      <trkpt lat="52.236773" lon="6.089658">
        <ele>6.419619</ele>
        <time>2026-08-02T20:16:29.325Z</time>
      </trkpt>
      <trkpt lat="52.236795" lon="6.089471">
        <ele>6.439422</ele>
        <time>2026-08-02T20:16:31.185Z</time>
      </trkpt>
      <trkpt lat="52.237574" lon="6.086714">
        <ele>6.644538</ele>
        <time>2026-08-02T20:16:59.090Z</time>
      </trkpt>
      <trkpt lat="52.237629" lon="6.086528">
        <ele>6.656124</ele>
        <time>2026-08-02T20:17:01.071Z</time>
      </trkpt>
      <trkpt lat="52.237896" lon="6.086347">
        <ele>6.682441</ele>
        <time>2026-08-02T20:17:05.640Z</time>
      </trkpt>
      <trkpt lat="52.238008" lon="6.086346">
        <ele>6.692117</ele>
        <time>2026-08-02T20:17:07.383Z</time>
      </trkpt>
      <trkpt lat="52.238109" lon="6.086460">
        <ele>6.702725</ele>
        <time>2026-08-02T20:17:09.293Z</time>
      </trkpt>
      <trkpt lat="52.238161" lon="6.086435">
        <ele>6.707409</ele>
        <time>2026-08-02T20:17:10.113Z</time>
      </trkpt>
      <trkpt lat="52.238216" lon="6.086391">
        <ele>6.712700</ele>
        <time>2026-08-02T20:17:11.063Z</time>
      </trkpt>
      <trkpt lat="52.238251" lon="6.086334">
        <ele>6.716971</ele>
        <time>2026-08-02T20:17:11.813Z</time>
      </trkpt>
      <trkpt lat="52.238254" lon="6.086195">
        <ele>6.724330</ele>
        <time>2026-08-02T20:17:13.109Z</time>
      </trkpt>
      <trkpt lat="52.238332" lon="6.086013">
        <ele>6.736083</ele>
        <time>2026-08-02T20:17:15.143Z</time>
      </trkpt>
      <trkpt lat="52.238473" lon="6.085813">
        <ele>6.752219</ele>
        <time>2026-08-02T20:17:17.918Z</time>
      </trkpt>
      <trkpt lat="52.238510" lon="6.085618">
        <ele>6.763020</ele>
        <time>2026-08-02T20:17:19.853Z</time>
      </trkpt>
      <trkpt lat="52.238546" lon="6.085527">
        <ele>6.768752</ele>
        <time>2026-08-02T20:17:20.905Z</time>
      </trkpt>
      <trkpt lat="52.238586" lon="6.085370">
        <ele>6.777749</ele>
        <time>2026-08-02T20:17:22.550Z</time>
      </trkpt>
      <trkpt lat="52.238750" lon="6.084252">
        <ele>6.819770</ele>
        <time>2026-08-02T20:17:33.511Z</time>
      </trkpt>
      <trkpt lat="52.238940" lon="6.083290">
        <ele>6.582071</ele>
        <time>2026-08-02T20:17:41.816Z</time>
      </trkpt>
      <trkpt lat="52.239178" lon="6.082368">
        <ele>6.346779</ele>
        <time>2026-08-02T20:17:49.909Z</time>
      </trkpt>
      <trkpt lat="52.239627" lon="6.080925">
        <ele>5.957681</ele>
        <time>2026-08-02T20:18:03.083Z</time>
      </trkpt>
      <trkpt lat="52.239847" lon="6.080487">
        <ele>5.818134</ele>
        <time>2026-08-02T20:18:07.744Z</time>
      </trkpt>
      <trkpt lat="52.240001" lon="6.080326">
        <ele>5.744577</ele>
        <time>2026-08-02T20:18:10.205Z</time>
      </trkpt>
      <trkpt lat="52.240230" lon="6.080300">
        <ele>5.652235</ele>
        <time>2026-08-02T20:18:13.313Z</time>
      </trkpt>
      <trkpt lat="52.240340" lon="6.080330">
        <ele>5.607372</ele>
        <time>2026-08-02T20:18:14.842Z</time>
      </trkpt>
      <trkpt lat="52.241190" lon="6.080720">
        <ele>5.339260</ele>
        <time>2026-08-02T20:18:27.079Z</time>
      </trkpt>
      <trkpt lat="52.241777" lon="6.080865">
        <ele>5.223703</ele>
        <time>2026-08-02T20:18:35.354Z</time>
      </trkpt>
      <trkpt lat="52.243630" lon="6.076930">
        <ele>4.803796</ele>
        <time>2026-08-02T20:19:18.646Z</time>
      </trkpt>
      <trkpt lat="52.243680" lon="6.076710">
        <ele>4.808411</ele>
        <time>2026-08-02T20:19:20.888Z</time>
      </trkpt>
      <trkpt lat="52.243768" lon="6.075945">
        <ele>4.823722</ele>
        <time>2026-08-02T20:19:28.474Z</time>
      </trkpt>
      <trkpt lat="52.243936" lon="6.074471">
        <ele>4.803761</ele>
        <time>2026-08-02T20:19:42.390Z</time>
      </trkpt>
      <trkpt lat="52.243991" lon="6.074060">
        <ele>4.746702</ele>
        <time>2026-08-02T20:19:46.038Z</time>
      </trkpt>
      <trkpt lat="52.244158" lon="6.073538">
        <ele>4.666823</ele>
        <time>2026-08-02T20:19:51.020Z</time>
      </trkpt>
      <trkpt lat="52.244209" lon="6.073245">
        <ele>4.625509</ele>
        <time>2026-08-02T20:19:53.564Z</time>
      </trkpt>
      <trkpt lat="52.244200" lon="6.073079">
        <ele>4.602907</ele>
        <time>2026-08-02T20:19:54.956Z</time>
      </trkpt>
      <trkpt lat="52.243963" lon="6.071570">
        <ele>4.371539</ele>
        <time>2026-08-02T20:20:08.081Z</time>
      </trkpt>
      <trkpt lat="52.243970" lon="6.071332">
        <ele>4.327821</ele>
        <time>2026-08-02T20:20:10.155Z</time>
      </trkpt>
      <trkpt lat="52.244075" lon="6.070940">
        <ele>4.249317</ele>
        <time>2026-08-02T20:20:13.906Z</time>
      </trkpt>
      <trkpt lat="52.245878" lon="6.067222">
        <ele>3.303820</ele>
        <time>2026-08-02T20:20:53.674Z</time>
      </trkpt>
      <trkpt lat="52.246276" lon="6.066398">
        <ele>3.250003</ele>
        <time>2026-08-02T20:21:02.332Z</time>
      </trkpt>
      <trkpt lat="52.246367" lon="6.066160">
        <ele>3.237671</ele>
        <time>2026-08-02T20:21:04.702Z</time>
      </trkpt>
      <trkpt lat="52.246484" lon="6.065716">
        <ele>3.216428</ele>
        <time>2026-08-02T20:21:08.890Z</time>
      </trkpt>
      <trkpt lat="52.246509" lon="6.065588">
        <ele>3.210524</ele>
        <time>2026-08-02T20:21:10.111Z</time>
      </trkpt>
      <trkpt lat="52.246586" lon="6.065304">
        <ele>3.196874</ele>
        <time>2026-08-02T20:21:12.908Z</time>
      </trkpt>
      <trkpt lat="52.247196" lon="6.062215">
        <ele>3.787751</ele>
        <time>2026-08-02T20:21:46.038Z</time>
      </trkpt>
      <trkpt lat="52.247247" lon="6.062059">
        <ele>3.831454</ele>
        <time>2026-08-02T20:21:47.791Z</time>
      </trkpt>
      <trkpt lat="52.247334" lon="6.061928">
        <ele>3.879216</ele>
        <time>2026-08-02T20:21:49.697Z</time>
      </trkpt>
      <trkpt lat="52.247423" lon="6.061864">
        <ele>3.894975</ele>
        <time>2026-08-02T20:21:51.237Z</time>
      </trkpt>
      <trkpt lat="52.249486" lon="6.060857">
        <ele>3.975224</ele>
        <time>2026-08-02T20:22:23.448Z</time>
      </trkpt>
      <trkpt lat="52.248791" lon="6.058022">
        <ele>3.861802</ele>
        <time>2026-08-02T20:22:50.555Z</time>
      </trkpt>
      <trkpt lat="52.248644" lon="6.057427">
        <ele>3.826982</ele>
        <time>2026-08-02T20:22:55.761Z</time>
      </trkpt>
      <trkpt lat="52.248476" lon="6.056741">
        <ele>3.786886</ele>
        <time>2026-08-02T20:23:01.936Z</time>
      </trkpt>
      <trkpt lat="52.247786" lon="6.053942">
        <ele>4.274643</ele>
        <time>2026-08-02T20:23:32.460Z</time>
      </trkpt>
      <trkpt lat="52.248072" lon="6.053230">
        <ele>4.414847</ele>
        <time>2026-08-02T20:23:41.206Z</time>
      </trkpt>
      <trkpt lat="52.248243" lon="6.052664">
        <ele>4.357374</ele>
        <time>2026-08-02T20:23:47.190Z</time>
      </trkpt>
      <trkpt lat="52.248844" lon="6.049409">
        <ele>4.073088</ele>
        <time>2026-08-02T20:24:15.763Z</time>
      </trkpt>
      <trkpt lat="52.249320" lon="6.046784">
        <ele>3.881690</ele>
        <time>2026-08-02T20:24:40.791Z</time>
      </trkpt>
      <trkpt lat="52.249455" lon="6.045791">
        <ele>3.812592</ele>
        <time>2026-08-02T20:24:49.438Z</time>
      </trkpt>
      <trkpt lat="52.249510" lon="6.045092">
        <ele>3.764719</ele>
        <time>2026-08-02T20:24:55.510Z</time>
      </trkpt>
      <trkpt lat="52.249554" lon="6.043984">
        <ele>3.880846</ele>
        <time>2026-08-02T20:25:05.549Z</time>
      </trkpt>
      <trkpt lat="52.249608" lon="6.043514">
        <ele>3.943041</ele>
        <time>2026-08-02T20:25:10.137Z</time>
      </trkpt>
      <trkpt lat="52.249795" lon="6.042753">
        <ele>4.049691</ele>
        <time>2026-08-02T20:25:18.544Z</time>
      </trkpt>
      <trkpt lat="52.250079" lon="6.041777">
        <ele>4.159760</ele>
        <time>2026-08-02T20:25:29.463Z</time>
      </trkpt>
      <trkpt lat="52.251491" lon="6.036734">
        <ele>4.216619</ele>
        <time>2026-08-02T20:26:19.620Z</time>
      </trkpt>
      <trkpt lat="52.252240" lon="6.037328">
        <ele>4.029049</ele>
        <time>2026-08-02T20:26:31.010Z</time>
      </trkpt>
      <trkpt lat="52.252900" lon="6.037851">
        <ele>3.863793</ele>
        <time>2026-08-02T20:26:41.186Z</time>
      </trkpt>
      <trkpt lat="52.253091" lon="6.037993">
        <ele>3.819203</ele>
        <time>2026-08-02T20:26:44.218Z</time>
      </trkpt>
      <trkpt lat="52.254251" lon="6.038897">
        <ele>3.667337</ele>
        <time>2026-08-02T20:27:02.927Z</time>
      </trkpt>
      <trkpt lat="52.255234" lon="6.039644">
        <ele>3.649831</ele>
        <time>2026-08-02T20:27:18.323Z</time>
      </trkpt>
      <trkpt lat="52.255511" lon="6.039799">
        <ele>3.669585</ele>
        <time>2026-08-02T20:27:22.627Z</time>
      </trkpt>
      <trkpt lat="52.256145" lon="6.039873">
        <ele>3.712466</ele>
        <time>2026-08-02T20:27:32.423Z</time>
      </trkpt>
      <trkpt lat="52.257431" lon="6.040097">
        <ele>4.022594</ele>
        <time>2026-08-02T20:27:53.640Z</time>
      </trkpt>
      <trkpt lat="52.258126" lon="6.040271">
        <ele>4.223833</ele>
        <time>2026-08-02T20:28:04.777Z</time>
      </trkpt>
      <trkpt lat="52.258117" lon="6.040220">
        <ele>4.233132</ele>
        <time>2026-08-02T20:28:05.451Z</time>
      </trkpt>
      <trkpt lat="52.258090" lon="6.040065">
        <ele>4.243717</ele>
        <time>2026-08-02T20:28:07.506Z</time>
      </trkpt>
      <trkpt lat="52.257909" lon="6.038874">
        <ele>4.215420</ele>
        <time>2026-08-02T20:28:22.909Z</time>
      </trkpt>
      <trkpt lat="52.257637" lon="6.036323">
        <ele>4.145397</ele>
        <time>2026-08-02T20:28:54.145Z</time>
      </trkpt>
      <trkpt lat="52.257661" lon="6.035880">
        <ele>4.130399</ele>
        <time>2026-08-02T20:28:59.542Z</time>
      </trkpt>
      <trkpt lat="52.257795" lon="6.035305">
        <ele>4.109650</ele>
        <time>2026-08-02T20:29:07.019Z</time>
      </trkpt>
      <trkpt lat="52.258073" lon="6.034443">
        <ele>4.080602</ele>
        <time>2026-08-02T20:29:19.045Z</time>
      </trkpt>
      <trkpt lat="52.258152" lon="6.034212">
        <ele>4.087669</ele>
        <time>2026-08-02T20:29:21.471Z</time>
      </trkpt>
      <trkpt lat="52.258626" lon="6.031875">
        <ele>4.153424</ele>
        <time>2026-08-02T20:29:44.113Z</time>
      </trkpt>
      <trkpt lat="52.258682" lon="6.031331">
        <ele>4.200521</ele>
        <time>2026-08-02T20:29:49.293Z</time>
      </trkpt>
      <trkpt lat="52.258834" lon="6.031096">
        <ele>4.237124</ele>
        <time>2026-08-02T20:29:52.524Z</time>
      </trkpt>
      <trkpt lat="52.259756" lon="6.031330">
        <ele>4.400322</ele>
        <time>2026-08-02T20:30:07.088Z</time>
      </trkpt>
      <trkpt lat="52.260021" lon="6.031319">
        <ele>4.446687</ele>
        <time>2026-08-02T20:30:11.266Z</time>
      </trkpt>
      <trkpt lat="52.260161" lon="6.031212">
        <ele>4.472324</ele>
        <time>2026-08-02T20:30:13.712Z</time>
      </trkpt>
      <trkpt lat="52.260274" lon="6.031049">
        <ele>4.477348</ele>
        <time>2026-08-02T20:30:16.055Z</time>
      </trkpt>
      <trkpt lat="52.260768" lon="6.030178">
        <ele>4.501576</ele>
        <time>2026-08-02T20:30:27.062Z</time>
      </trkpt>
      <trkpt lat="52.261313" lon="6.029109">
        <ele>4.529962</ele>
        <time>2026-08-02T20:30:39.580Z</time>
      </trkpt>
      <trkpt lat="52.261562" lon="6.028766">
        <ele>4.538651</ele>
        <time>2026-08-02T20:30:44.375Z</time>
      </trkpt>
      <trkpt lat="52.262593" lon="6.027618">
        <ele>4.570076</ele>
        <time>2026-08-02T20:31:03.067Z</time>
      </trkpt>
      <trkpt lat="52.262680" lon="6.027590">
        <ele>4.572310</ele>
        <time>2026-08-02T20:31:04.409Z</time>
      </trkpt>
      <trkpt lat="52.262790" lon="6.027610">
        <ele>4.575098</ele>
        <time>2026-08-02T20:31:06.054Z</time>
      </trkpt>
      <trkpt lat="52.263350" lon="6.027830">
        <ele>4.513597</ele>
        <time>2026-08-02T20:31:14.451Z</time>
      </trkpt>
      <trkpt lat="52.263650" lon="6.027890">
        <ele>4.474360</ele>
        <time>2026-08-02T20:31:18.712Z</time>
      </trkpt>
      <trkpt lat="52.263841" lon="6.027882">
        <ele>4.449556</ele>
        <time>2026-08-02T20:31:21.439Z</time>
      </trkpt>
      <trkpt lat="52.264030" lon="6.027850">
        <ele>4.424888</ele>
        <time>2026-08-02T20:31:24.182Z</time>
      </trkpt>
      <trkpt lat="52.264669" lon="6.027493">
        <ele>4.328563</ele>
        <time>2026-08-02T20:31:33.840Z</time>
      </trkpt>
      <trkpt lat="52.264960" lon="6.027330">
        <ele>4.235735</ele>
        <time>2026-08-02T20:31:38.161Z</time>
      </trkpt>
      <trkpt lat="52.265170" lon="6.027140">
        <ele>4.163300</ele>
        <time>2026-08-02T20:31:41.524Z</time>
      </trkpt>
      <trkpt lat="52.265230" lon="6.027010">
        <ele>4.133230</ele>
        <time>2026-08-02T20:31:42.920Z</time>
      </trkpt>
      <trkpt lat="52.265838" lon="6.025014">
        <ele>3.733569</ele>
        <time>2026-08-02T20:32:01.511Z</time>
      </trkpt>
      <trkpt lat="52.266072" lon="6.024091">
        <ele>3.577115</ele>
        <time>2026-08-02T20:32:09.799Z</time>
      </trkpt>
      <trkpt lat="52.266224" lon="6.023378">
        <ele>3.458879</ele>
        <time>2026-08-02T20:32:16.210Z</time>
      </trkpt>
      <trkpt lat="52.266236" lon="6.023091">
        <ele>3.413831</ele>
        <time>2026-08-02T20:32:18.686Z</time>
      </trkpt>
      <trkpt lat="52.266229" lon="6.019400">
        <ele>3.342015</ele>
        <time>2026-08-02T20:32:52.229Z</time>
      </trkpt>
      <trkpt lat="52.266177" lon="6.017559">
        <ele>3.446171</ele>
        <time>2026-08-02T20:33:09.493Z</time>
      </trkpt>
      <trkpt lat="52.266206" lon="6.017395">
        <ele>3.455819</ele>
        <time>2026-08-02T20:33:11.093Z</time>
      </trkpt>
      <trkpt lat="52.266514" lon="6.016551">
        <ele>3.501300</ele>
        <time>2026-08-02T20:33:20.154Z</time>
      </trkpt>
      <trkpt lat="52.266586" lon="6.016271">
        <ele>3.509555</ele>
        <time>2026-08-02T20:33:22.900Z</time>
      </trkpt>
      <trkpt lat="52.266705" lon="6.015271">
        <ele>3.537242</ele>
        <time>2026-08-02T20:33:32.189Z</time>
      </trkpt>
      <trkpt lat="52.266760" lon="6.014542">
        <ele>3.557205</ele>
        <time>2026-08-02T20:33:38.853Z</time>
      </trkpt>
      <trkpt lat="52.266800" lon="6.013559">
        <ele>3.613377</ele>
        <time>2026-08-02T20:33:48.037Z</time>
      </trkpt>
      <trkpt lat="52.266864" lon="6.012687">
        <ele>3.695158</ele>
        <time>2026-08-02T20:33:56.494Z</time>
      </trkpt>
      <trkpt lat="52.267153" lon="6.010867">
        <ele>3.863513</ele>
        <time>2026-08-02T20:34:14.160Z</time>
      </trkpt>
      <trkpt lat="52.267210" lon="6.010260">
        <ele>3.905117</ele>
        <time>2026-08-02T20:34:19.778Z</time>
      </trkpt>
      <trkpt lat="52.267240" lon="6.009620">
        <ele>3.948602</ele>
        <time>2026-08-02T20:34:25.722Z</time>
      </trkpt>
      <trkpt lat="52.267240" lon="6.008830">
        <ele>4.002123</ele>
        <time>2026-08-02T20:34:33.083Z</time>
      </trkpt>
      <trkpt lat="52.267210" lon="6.008200">
        <ele>4.045203</ele>
        <time>2026-08-02T20:34:39.090Z</time>
      </trkpt>
      <trkpt lat="52.267150" lon="6.007570">
        <ele>4.130245</ele>
        <time>2026-08-02T20:34:45.154Z</time>
      </trkpt>
      <trkpt lat="52.267072" lon="6.007033">
        <ele>4.203861</ele>
        <time>2026-08-02T20:34:50.447Z</time>
      </trkpt>
      <trkpt lat="52.266836" lon="6.005839">
        <ele>4.371220</ele>
        <time>2026-08-02T20:35:02.622Z</time>
      </trkpt>
      <trkpt lat="52.266615" lon="6.004795">
        <ele>4.513980</ele>
        <time>2026-08-02T20:35:13.078Z</time>
      </trkpt>
      <trkpt lat="52.266502" lon="6.003971">
        <ele>4.620304</ele>
        <time>2026-08-02T20:35:21.388Z</time>
      </trkpt>
      <trkpt lat="52.266488" lon="6.003259">
        <ele>4.710000</ele>
        <time>2026-08-02T20:35:28.339Z</time>
      </trkpt>
      <trkpt lat="52.266520" lon="6.002460">
        <ele>4.806974</ele>
        <time>2026-08-02T20:35:35.845Z</time>
      </trkpt>
      <trkpt lat="52.266600" lon="6.001370">
        <ele>4.815321</ele>
        <time>2026-08-02T20:35:46.070Z</time>
      </trkpt>
      <trkpt lat="52.266680" lon="6.000400">
        <ele>4.822764</ele>
        <time>2026-08-02T20:35:54.985Z</time>
      </trkpt>
      <trkpt lat="52.266690" lon="5.999784">
        <ele>4.827449</ele>
        <time>2026-08-02T20:36:00.515Z</time>
      </trkpt>
      <trkpt lat="52.266653" lon="5.999285">
        <ele>4.813835</ele>
        <time>2026-08-02T20:36:04.872Z</time>
      </trkpt>
      <trkpt lat="52.266508" lon="5.998256">
        <ele>4.758142</ele>
        <time>2026-08-02T20:36:14.123Z</time>
      </trkpt>
      <trkpt lat="52.266385" lon="5.997533">
        <ele>4.718563</ele>
        <time>2026-08-02T20:36:20.767Z</time>
      </trkpt>
      <trkpt lat="52.266252" lon="5.996571">
        <ele>4.701514</ele>
        <time>2026-08-02T20:36:29.493Z</time>
      </trkpt>
      <trkpt lat="52.266151" lon="5.995634">
        <ele>4.884799</ele>
        <time>2026-08-02T20:36:38.284Z</time>
      </trkpt>
      <trkpt lat="52.265680" lon="5.990915">
        <ele>6.148877</ele>
        <time>2026-08-02T20:37:27.564Z</time>
      </trkpt>
      <trkpt lat="52.265668" lon="5.990549">
        <ele>6.246204</ele>
        <time>2026-08-02T20:37:31.552Z</time>
      </trkpt>
      <trkpt lat="52.265724" lon="5.990185">
        <ele>6.345746</ele>
        <time>2026-08-02T20:37:35.546Z</time>
      </trkpt>
      <trkpt lat="52.265870" lon="5.989790">
        <ele>6.468130</ele>
        <time>2026-08-02T20:37:40.365Z</time>
      </trkpt>
      <trkpt lat="52.265897" lon="5.989481">
        <ele>6.550912</ele>
        <time>2026-08-02T20:37:43.544Z</time>
      </trkpt>
      <trkpt lat="52.265889" lon="5.989163">
        <ele>6.635322</ele>
        <time>2026-08-02T20:37:46.754Z</time>
      </trkpt>
      <trkpt lat="52.265760" lon="5.988610">
        <ele>6.792279</ele>
        <time>2026-08-02T20:37:52.669Z</time>
      </trkpt>
      <trkpt lat="52.265394" lon="5.987789">
        <ele>6.986999</ele>
        <time>2026-08-02T20:38:02.062Z</time>
      </trkpt>
      <trkpt lat="52.264632" lon="5.986299">
        <ele>7.211784</ele>
        <time>2026-08-02T20:38:20.299Z</time>
      </trkpt>
      <trkpt lat="52.264604" lon="5.986234">
        <ele>7.220986</ele>
        <time>2026-08-02T20:38:21.094Z</time>
      </trkpt>
      <trkpt lat="52.264595" lon="5.986099">
        <ele>7.236707</ele>
        <time>2026-08-02T20:38:22.450Z</time>
      </trkpt>
      <trkpt lat="52.264446" lon="5.986064">
        <ele>7.265181</ele>
        <time>2026-08-02T20:38:24.928Z</time>
      </trkpt>
      <trkpt lat="52.264454" lon="5.985984">
        <ele>7.283581</ele>
        <time>2026-08-02T20:38:25.741Z</time>
      </trkpt>
      <trkpt lat="52.264487" lon="5.985645">
        <ele>7.392524</ele>
        <time>2026-08-02T20:38:29.225Z</time>
      </trkpt>
      <trkpt lat="52.264489" lon="5.985633">
        <ele>7.396471</ele>
        <time>2026-08-02T20:38:29.351Z</time>
      </trkpt>
      <trkpt lat="52.264512" lon="5.985494">
        <ele>7.442170</ele>
        <time>2026-08-02T20:38:30.824Z</time>
      </trkpt>
      <trkpt lat="52.264543" lon="5.985316">
        <ele>7.500906</ele>
        <time>2026-08-02T20:38:32.729Z</time>
      </trkpt>
      <trkpt lat="52.264561" lon="5.985216">
        <ele>7.533988</ele>
        <time>2026-08-02T20:38:33.799Z</time>
      </trkpt>
      <trkpt lat="52.264585" lon="5.985109">
        <ele>7.570156</ele>
        <time>2026-08-02T20:38:34.989Z</time>
      </trkpt>
      <trkpt lat="52.264602" lon="5.985047">
        <ele>7.591718</ele>
        <time>2026-08-02T20:38:35.697Z</time>
      </trkpt>
      <trkpt lat="52.264809" lon="5.984473">
        <ele>7.803165</ele>
        <time>2026-08-02T20:38:42.640Z</time>
      </trkpt>
      <trkpt lat="52.264915" lon="5.984078">
        <ele>7.940049</ele>
        <time>2026-08-02T20:38:47.100Z</time>
      </trkpt>
      <trkpt lat="52.265120" lon="5.983342">
        <ele>8.196689</ele>
        <time>2026-08-02T20:38:55.589Z</time>
      </trkpt>
      <trkpt lat="52.265171" lon="5.982952">
        <ele>8.334064</ele>
        <time>2026-08-02T20:38:59.805Z</time>
      </trkpt>
      <trkpt lat="52.265078" lon="5.982254">
        <ele>8.581003</ele>
        <time>2026-08-02T20:39:07.396Z</time>
      </trkpt>
      <trkpt lat="52.264897" lon="5.981496">
        <ele>8.862270</ele>
        <time>2026-08-02T20:39:15.940Z</time>
      </trkpt>
      <trkpt lat="52.264728" lon="5.980845">
        <ele>9.106720</ele>
        <time>2026-08-02T20:39:23.247Z</time>
      </trkpt>
      <trkpt lat="52.264613" lon="5.980297">
        <ele>9.294501</ele>
        <time>2026-08-02T20:39:29.237Z</time>
      </trkpt>
      <trkpt lat="52.264590" lon="5.979970">
        <ele>9.392315</ele>
        <time>2026-08-02T20:39:32.648Z</time>
      </trkpt>
      <trkpt lat="52.264594" lon="5.979706">
        <ele>9.470791</ele>
        <time>2026-08-02T20:39:35.380Z</time>
      </trkpt>
      <trkpt lat="52.264685" lon="5.979098">
        <ele>9.656793</ele>
        <time>2026-08-02T20:39:41.801Z</time>
      </trkpt>
      <trkpt lat="52.264698" lon="5.978834">
        <ele>9.735498</ele>
        <time>2026-08-02T20:39:44.504Z</time>
      </trkpt>
      <trkpt lat="52.264595" lon="5.976799">
        <ele>10.272486</ele>
        <time>2026-08-02T20:40:05.193Z</time>
      </trkpt>
      <trkpt lat="52.264594" lon="5.975559">
        <ele>10.538445</ele>
        <time>2026-08-02T20:40:17.660Z</time>
      </trkpt>
      <trkpt lat="52.264607" lon="5.974232">
        <ele>10.802905</ele>
        <time>2026-08-02T20:40:30.495Z</time>
      </trkpt>
      <trkpt lat="52.264620" lon="5.972145">
        <ele>11.161366</ele>
        <time>2026-08-02T20:40:50.698Z</time>
      </trkpt>
      <trkpt lat="52.264543" lon="5.969906">
        <ele>11.725604</ele>
        <time>2026-08-02T20:41:13.386Z</time>
      </trkpt>
      <trkpt lat="52.264562" lon="5.968170">
        <ele>12.162127</ele>
        <time>2026-08-02T20:41:31.295Z</time>
      </trkpt>
      <trkpt lat="52.264591" lon="5.967887">
        <ele>12.226587</ele>
        <time>2026-08-02T20:41:34.200Z</time>
      </trkpt>
      <trkpt lat="52.264820" lon="5.967270">
        <ele>12.388690</ele>
        <time>2026-08-02T20:41:41.377Z</time>
      </trkpt>
      <trkpt lat="52.264859" lon="5.967178">
        <ele>12.413831</ele>
        <time>2026-08-02T20:41:42.473Z</time>
      </trkpt>
      <trkpt lat="52.264887" lon="5.966988">
        <ele>12.457734</ele>
        <time>2026-08-02T20:41:44.363Z</time>
      </trkpt>
      <trkpt lat="52.265053" lon="5.965626">
        <ele>12.817132</ele>
        <time>2026-08-02T20:41:57.819Z</time>
      </trkpt>
      <trkpt lat="52.265120" lon="5.964960">
        <ele>13.043803</ele>
        <time>2026-08-02T20:42:04.623Z</time>
      </trkpt>
      <trkpt lat="52.265682" lon="5.961456">
        <ele>14.233814</ele>
        <time>2026-08-02T20:42:43.563Z</time>
      </trkpt>
      <trkpt lat="52.265745" lon="5.960985">
        <ele>14.388567</ele>
        <time>2026-08-02T20:42:48.467Z</time>
      </trkpt>
      <trkpt lat="52.265730" lon="5.960121">
        <ele>14.624580</ele>
        <time>2026-08-02T20:42:56.894Z</time>
      </trkpt>
      <trkpt lat="52.265570" lon="5.958140">
        <ele>14.835579</ele>
        <time>2026-08-02T20:43:15.383Z</time>
      </trkpt>
      <trkpt lat="52.265335" lon="5.956046">
        <ele>15.307941</ele>
        <time>2026-08-02T20:43:36.153Z</time>
      </trkpt>
      <trkpt lat="52.265323" lon="5.955944">
        <ele>15.337535</ele>
        <time>2026-08-02T20:43:37.222Z</time>
      </trkpt>
      <trkpt lat="52.265316" lon="5.955889">
        <ele>15.353541</ele>
        <time>2026-08-02T20:43:37.794Z</time>
      </trkpt>
      <trkpt lat="52.264718" lon="5.951173">
        <ele>17.014488</ele>
        <time>2026-08-02T20:44:29.096Z</time>
      </trkpt>
      <trkpt lat="52.264648" lon="5.950617">
        <ele>17.152184</ele>
        <time>2026-08-02T20:44:35.025Z</time>
      </trkpt>
      <trkpt lat="52.264215" lon="5.946420">
        <ele>17.984167</ele>
        <time>2026-08-02T20:45:16.636Z</time>
      </trkpt>
      <trkpt lat="52.263993" lon="5.944257">
        <ele>18.240859</ele>
        <time>2026-08-02T20:45:37.434Z</time>
      </trkpt>
      <trkpt lat="52.263976" lon="5.944055">
        <ele>18.261773</ele>
        <time>2026-08-02T20:45:39.346Z</time>
      </trkpt>
      <trkpt lat="52.265346" lon="5.942115">
        <ele>18.617563</ele>
        <time>2026-08-02T20:46:07.112Z</time>
      </trkpt>
      <trkpt lat="52.268300" lon="5.937920">
        <ele>19.937624</ele>
        <time>2026-08-02T20:47:11.249Z</time>
      </trkpt>
      <trkpt lat="52.270540" lon="5.934850">
        <ele>20.887038</ele>
        <time>2026-08-02T20:47:56.888Z</time>
      </trkpt>
      <trkpt lat="52.271301" lon="5.933775">
        <ele>21.462832</ele>
        <time>2026-08-02T20:48:15.649Z</time>
      </trkpt>
      <trkpt lat="52.272708" lon="5.931759">
        <ele>22.268877</ele>
        <time>2026-08-02T20:48:46.220Z</time>
      </trkpt>
      <trkpt lat="52.274550" lon="5.929169">
        <ele>22.804325</ele>
        <time>2026-08-02T20:49:24.724Z</time>
      </trkpt>
      <trkpt lat="52.275399" lon="5.927975">
        <ele>22.926400</ele>
        <time>2026-08-02T20:49:41.741Z</time>
      </trkpt>
      <trkpt lat="52.276667" lon="5.926162">
        <ele>22.748736</ele>
        <time>2026-08-02T20:50:05.353Z</time>
      </trkpt>
      <trkpt lat="52.278226" lon="5.923957">
        <ele>23.503217</ele>
        <time>2026-08-02T20:50:38.680Z</time>
      </trkpt>
      <trkpt lat="52.278335" lon="5.923802">
        <ele>23.614874</ele>
        <time>2026-08-02T20:50:41.463Z</time>
      </trkpt>
      <trkpt lat="52.279263" lon="5.922479">
        <ele>24.566544</ele>
        <time>2026-08-02T20:51:05.547Z</time>
      </trkpt>
      <trkpt lat="52.280342" lon="5.920947">
        <ele>24.684368</ele>
        <time>2026-08-02T20:51:26.849Z</time>
      </trkpt>
      <trkpt lat="52.280457" lon="5.920783">
        <ele>24.672521</ele>
        <time>2026-08-02T20:51:28.803Z</time>
      </trkpt>
      <trkpt lat="52.280624" lon="5.920546">
        <ele>24.655354</ele>
        <time>2026-08-02T20:51:31.605Z</time>
      </trkpt>
      <trkpt lat="52.282152" lon="5.918441">
        <ele>24.219482</ele>
        <time>2026-08-02T20:51:59.275Z</time>
      </trkpt>
      <trkpt lat="52.282182" lon="5.918418">
        <ele>24.211543</ele>
        <time>2026-08-02T20:51:59.831Z</time>
      </trkpt>
      <trkpt lat="52.282392" lon="5.918349">
        <ele>24.186860</ele>
        <time>2026-08-02T20:52:03.266Z</time>
      </trkpt>
      <trkpt lat="52.282978" lon="5.918364">
        <ele>24.132033</ele>
        <time>2026-08-02T20:52:12.086Z</time>
      </trkpt>
      <trkpt lat="52.283435" lon="5.918367">
        <ele>24.089280</ele>
        <time>2026-08-02T20:52:18.815Z</time>
      </trkpt>
      <trkpt lat="52.283628" lon="5.918258">
        <ele>24.070178</ele>
        <time>2026-08-02T20:52:21.540Z</time>
      </trkpt>
      <trkpt lat="52.283796" lon="5.918003">
        <ele>24.048731</ele>
        <time>2026-08-02T20:52:24.632Z</time>
      </trkpt>
      <trkpt lat="52.283977" lon="5.917522">
        <ele>24.140517</ele>
        <time>2026-08-02T20:52:29.447Z</time>
      </trkpt>
      <trkpt lat="52.284024" lon="5.917376">
        <ele>24.191956</ele>
        <time>2026-08-02T20:52:30.903Z</time>
      </trkpt>
      <trkpt lat="52.284231" lon="5.916762">
        <ele>24.410542</ele>
        <time>2026-08-02T20:52:37.572Z</time>
      </trkpt>
      <trkpt lat="52.284380" lon="5.916458">
        <ele>24.531995</ele>
        <time>2026-08-02T20:52:41.703Z</time>
      </trkpt>
      <trkpt lat="52.284544" lon="5.916206">
        <ele>24.646712</ele>
        <time>2026-08-02T20:52:45.757Z</time>
      </trkpt>
      <trkpt lat="52.284669" lon="5.915879">
        <ele>24.766935</ele>
        <time>2026-08-02T20:52:50.151Z</time>
      </trkpt>
      <trkpt lat="52.284747" lon="5.914913">
        <ele>25.189106</ele>
        <time>2026-08-02T20:53:01.672Z</time>
      </trkpt>
      <trkpt lat="52.284746" lon="5.913375">
        <ele>26.148236</ele>
        <time>2026-08-02T20:53:19.834Z</time>
      </trkpt>
      <trkpt lat="52.284701" lon="5.912215">
        <ele>26.807475</ele>
        <time>2026-08-02T20:53:32.904Z</time>
      </trkpt>
      <trkpt lat="52.284760" lon="5.911852">
        <ele>26.865310</ele>
        <time>2026-08-02T20:53:36.983Z</time>
      </trkpt>
      <trkpt lat="52.284985" lon="5.911260">
        <ele>26.972629</ele>
        <time>2026-08-02T20:53:44.302Z</time>
      </trkpt>
      <trkpt lat="52.284997" lon="5.911218">
        <ele>26.979767</ele>
        <time>2026-08-02T20:53:44.776Z</time>
      </trkpt>
      <trkpt lat="52.285101" lon="5.910642">
        <ele>27.072243</ele>
        <time>2026-08-02T20:53:50.583Z</time>
      </trkpt>
      <trkpt lat="52.285274" lon="5.909293">
        <ele>27.113930</ele>
        <time>2026-08-02T20:54:02.501Z</time>
      </trkpt>
      <trkpt lat="52.285435" lon="5.907565">
        <ele>26.380271</ele>
        <time>2026-08-02T20:54:16.463Z</time>
      </trkpt>
      <trkpt lat="52.285470" lon="5.907394">
        <ele>26.304586</ele>
        <time>2026-08-02T20:54:17.824Z</time>
      </trkpt>
      <trkpt lat="52.285522" lon="5.907246">
        <ele>26.232949</ele>
        <time>2026-08-02T20:54:19.093Z</time>
      </trkpt>
      <trkpt lat="52.285607" lon="5.907150">
        <ele>26.162061</ele>
        <time>2026-08-02T20:54:20.345Z</time>
      </trkpt>
      <trkpt lat="52.285851" lon="5.907026">
        <ele>25.983895</ele>
        <time>2026-08-02T20:54:23.384Z</time>
      </trkpt>
      <trkpt lat="52.286302" lon="5.906982">
        <ele>25.624476</ele>
        <time>2026-08-02T20:54:28.782Z</time>
      </trkpt>
      <trkpt lat="52.286911" lon="5.907064">
        <ele>25.138361</ele>
        <time>2026-08-02T20:54:36.225Z</time>
      </trkpt>
      <trkpt lat="52.288396" lon="5.907329">
        <ele>24.748294</ele>
        <time>2026-08-02T20:54:56.534Z</time>
      </trkpt>
      <trkpt lat="52.289333" lon="5.907512">
        <ele>24.958401</ele>
        <time>2026-08-02T20:55:12.637Z</time>
      </trkpt>
      <trkpt lat="52.289833" lon="5.907625">
        <ele>25.466536</ele>
        <time>2026-08-02T20:55:22.068Z</time>
      </trkpt>
      <trkpt lat="52.292597" lon="5.908178">
        <ele>28.865209</ele>
        <time>2026-08-02T20:56:17.409Z</time>
      </trkpt>
      <trkpt lat="52.295701" lon="5.908805">
        <ele>33.122162</ele>
        <time>2026-08-02T20:57:21.640Z</time>
      </trkpt>
      <trkpt lat="52.297406" lon="5.908359">
        <ele>34.781227</ele>
        <time>2026-08-02T20:57:54.410Z</time>
      </trkpt>
      <trkpt lat="52.298252" lon="5.908230">
        <ele>35.358887</ele>
        <time>2026-08-02T20:58:08.551Z</time>
      </trkpt>
      <trkpt lat="52.298921" lon="5.908262">
        <ele>35.378794</ele>
        <time>2026-08-02T20:58:18.796Z</time>
      </trkpt>
      <trkpt lat="52.300521" lon="5.908480">
        <ele>35.004289</ele>
        <time>2026-08-02T20:58:41.739Z</time>
      </trkpt>
      <trkpt lat="52.300677" lon="5.908384">
        <ele>34.873586</ele>
        <time>2026-08-02T20:58:43.974Z</time>
      </trkpt>
      <trkpt lat="52.300844" lon="5.908123">
        <ele>34.692444</ele>
        <time>2026-08-02T20:58:47.021Z</time>
      </trkpt>
      <trkpt lat="52.306382" lon="5.898637">
        <ele>28.675168</ele>
        <time>2026-08-02T21:00:27.172Z</time>
      </trkpt>
      <trkpt lat="52.307445" lon="5.896816">
        <ele>29.170734</ele>
        <time>2026-08-02T21:00:52.958Z</time>
      </trkpt>
      <trkpt lat="52.308516" lon="5.895048">
        <ele>29.937773</ele>
        <time>2026-08-02T21:01:20.107Z</time>
      </trkpt>
      <trkpt lat="52.308583" lon="5.895097">
        <ele>29.976650</ele>
        <time>2026-08-02T21:01:21.351Z</time>
      </trkpt>
      <trkpt lat="52.309240" lon="5.895180">
        <ele>30.313042</ele>
        <time>2026-08-02T21:01:31.978Z</time>
      </trkpt>
      <trkpt lat="52.309294" lon="5.895188">
        <ele>30.314982</ele>
        <time>2026-08-02T21:01:32.797Z</time>
      </trkpt>
      <trkpt lat="52.309321" lon="5.895190">
        <ele>30.315950</ele>
        <time>2026-08-02T21:01:33.219Z</time>
      </trkpt>
      <trkpt lat="52.310611" lon="5.895227">
        <ele>30.362129</ele>
        <time>2026-08-02T21:01:51.740Z</time>
      </trkpt>
      <trkpt lat="52.311104" lon="5.895162">
        <ele>30.398361</ele>
        <time>2026-08-02T21:01:59.188Z</time>
      </trkpt>
      <trkpt lat="52.311616" lon="5.895183">
        <ele>30.518698</ele>
        <time>2026-08-02T21:02:07.499Z</time>
      </trkpt>
      <trkpt lat="52.312564" lon="5.895465">
        <ele>30.745092</ele>
        <time>2026-08-02T21:02:23.412Z</time>
      </trkpt>
      <trkpt lat="52.313334" lon="5.895795">
        <ele>30.522817</ele>
        <time>2026-08-02T21:02:35.062Z</time>
      </trkpt>
      <trkpt lat="52.313437" lon="5.895833">
        <ele>30.471282</ele>
        <time>2026-08-02T21:02:36.491Z</time>
      </trkpt>
      <trkpt lat="52.313920" lon="5.896086">
        <ele>30.223750</ele>
        <time>2026-08-02T21:02:43.031Z</time>
      </trkpt>
      <trkpt lat="52.314366" lon="5.896424">
        <ele>29.983842</ele>
        <time>2026-08-02T21:02:49.198Z</time>
      </trkpt>
      <trkpt lat="52.314677" lon="5.897194">
        <ele>29.614444</ele>
        <time>2026-08-02T21:02:56.097Z</time>
      </trkpt>
      <trkpt lat="52.314963" lon="5.898056">
        <ele>29.192471</ele>
        <time>2026-08-02T21:03:03.464Z</time>
      </trkpt>
      <trkpt lat="52.315390" lon="5.898847">
        <ele>28.738454</ele>
        <time>2026-08-02T21:03:12.023Z</time>
      </trkpt>
      <trkpt lat="52.315992" lon="5.900341">
        <ele>28.640335</ele>
        <time>2026-08-02T21:03:27.941Z</time>
      </trkpt>
      <trkpt lat="52.316063" lon="5.900468">
        <ele>28.638714</ele>
        <time>2026-08-02T21:03:29.607Z</time>
      </trkpt>
      <trkpt lat="52.316176" lon="5.900529">
        <ele>28.636882</ele>
        <time>2026-08-02T21:03:31.488Z</time>
      </trkpt>
      <trkpt lat="52.316391" lon="5.900575">
        <ele>28.633543</ele>
        <time>2026-08-02T21:03:34.884Z</time>
      </trkpt>
      <trkpt lat="52.316471" lon="5.900583">
        <ele>28.632308</ele>
        <time>2026-08-02T21:03:37.142Z</time>
      </trkpt>
      <trkpt lat="52.316652" lon="5.896813">
        <ele>28.775218</ele>
        <time>2026-08-02T21:04:12.200Z</time>
      </trkpt>
      <trkpt lat="52.316657" lon="5.896729">
        <ele>28.776411</ele>
        <time>2026-08-02T21:04:12.956Z</time>
      </trkpt>
      <trkpt lat="52.317149" lon="5.895941">
        <ele>28.792333</ele>
        <time>2026-08-02T21:04:26.658Z</time>
      </trkpt>
      <trkpt lat="52.322229" lon="5.887799">
        <ele>29.041399</ele>
        <time>2026-08-02T21:06:50.914Z</time>
      </trkpt>
      <trkpt lat="52.322370" lon="5.887606">
        <ele>29.073912</ele>
        <time>2026-08-02T21:06:54.775Z</time>
      </trkpt>
      <trkpt lat="52.322521" lon="5.887447">
        <ele>29.105671</ele>
        <time>2026-08-02T21:06:58.564Z</time>
      </trkpt>
      <trkpt lat="52.322822" lon="5.887254">
        <ele>29.162848</ele>
        <time>2026-08-02T21:07:05.463Z</time>
      </trkpt>
      <trkpt lat="52.324257" lon="5.886643">
        <ele>29.715303</ele>
        <time>2026-08-02T21:07:38.095Z</time>
      </trkpt>
      <trkpt lat="52.324555" lon="5.886514">
        <ele>29.841997</ele>
        <time>2026-08-02T21:07:44.927Z</time>
      </trkpt>
      <trkpt lat="52.324690" lon="5.886455">
        <ele>29.899428</ele>
        <time>2026-08-02T21:07:48.018Z</time>
      </trkpt>
      <trkpt lat="52.333431" lon="5.882713">
        <ele>33.317860</ele>
        <time>2026-08-02T21:11:05.041Z</time>
      </trkpt>
      <trkpt lat="52.333726" lon="5.882587">
        <ele>33.269682</ele>
        <time>2026-08-02T21:11:10.862Z</time>
      </trkpt>
      <trkpt lat="52.334081" lon="5.882417">
        <ele>33.162191</ele>
        <time>2026-08-02T21:11:17.829Z</time>
      </trkpt>
      <trkpt lat="52.334592" lon="5.882175">
        <ele>33.007597</ele>
        <time>2026-08-02T21:11:27.678Z</time>
      </trkpt>
      <trkpt lat="52.335422" lon="5.881842">
        <ele>32.693627</ele>
        <time>2026-08-02T21:11:44.079Z</time>
      </trkpt>
      <trkpt lat="52.335862" lon="5.881664">
        <ele>32.408132</ele>
        <time>2026-08-02T21:11:52.772Z</time>
      </trkpt>
      <trkpt lat="52.338780" lon="5.880433">
        <ele>30.145672</ele>
        <time>2026-08-02T21:12:46.238Z</time>
      </trkpt>
      <trkpt lat="52.342016" lon="5.879021">
        <ele>27.048751</ele>
        <time>2026-08-02T21:13:44.373Z</time>
      </trkpt>
      <trkpt lat="52.345486" lon="5.877556">
        <ele>26.468545</ele>
        <time>2026-08-02T21:14:54.333Z</time>
      </trkpt>
      <trkpt lat="52.347334" lon="5.876762">
        <ele>27.592869</ele>
        <time>2026-08-02T21:15:38.780Z</time>
      </trkpt>
      <trkpt lat="52.348749" lon="5.876132">
        <ele>28.382342</ele>
        <time>2026-08-02T21:16:12.484Z</time>
      </trkpt>
      <trkpt lat="52.349331" lon="5.875914">
        <ele>28.552758</ele>
        <time>2026-08-02T21:16:25.169Z</time>
      </trkpt>
      <trkpt lat="52.353441" lon="5.874147">
        <ele>26.709933</ele>
        <time>2026-08-02T21:17:44.671Z</time>
      </trkpt>
      <trkpt lat="52.355106" lon="5.873446">
        <ele>25.763978</ele>
        <time>2026-08-02T21:18:14.955Z</time>
      </trkpt>
      <trkpt lat="52.355238" lon="5.873404">
        <ele>25.711756</ele>
        <time>2026-08-02T21:18:16.652Z</time>
      </trkpt>
      <trkpt lat="52.355412" lon="5.873340">
        <ele>25.642498</ele>
        <time>2026-08-02T21:18:18.975Z</time>
      </trkpt>
      <trkpt lat="52.355647" lon="5.873235">
        <ele>25.547896</ele>
        <time>2026-08-02T21:18:22.301Z</time>
      </trkpt>
      <trkpt lat="52.355722" lon="5.873244">
        <ele>25.518691</ele>
        <time>2026-08-02T21:18:23.356Z</time>
      </trkpt>
      <trkpt lat="52.356088" lon="5.873783">
        <ele>25.422529</ele>
        <time>2026-08-02T21:18:30.990Z</time>
      </trkpt>
      <trkpt lat="52.356934" lon="5.874842">
        <ele>26.352093</ele>
        <time>2026-08-02T21:18:50.987Z</time>
      </trkpt>
      <trkpt lat="52.356931" lon="5.874954">
        <ele>26.411859</ele>
        <time>2026-08-02T21:18:56.833Z</time>
      </trkpt>
      <trkpt lat="52.356934" lon="5.874842">
        <ele>26.471626</ele>
        <time>2026-08-02T21:19:02.628Z</time>
      </trkpt>
      <trkpt lat="52.356994" lon="5.874880">
        <ele>26.527781</ele>
        <time>2026-08-02T21:19:03.953Z</time>
      </trkpt>
      <trkpt lat="52.356989" lon="5.875169">
        <ele>26.681914</ele>
        <time>2026-08-02T21:19:07.485Z</time>
      </trkpt>
      <trkpt lat="52.356974" lon="5.876070">
        <ele>27.010344</ele>
        <time>2026-08-02T21:19:17.794Z</time>
      </trkpt>
      <trkpt lat="52.357014" lon="5.877022">
        <ele>27.190705</ele>
        <time>2026-08-02T21:19:27.610Z</time>
      </trkpt>
      <trkpt lat="52.357017" lon="5.877391">
        <ele>27.260455</ele>
        <time>2026-08-02T21:19:31.213Z</time>
      </trkpt>
      <trkpt lat="52.357071" lon="5.877795">
        <ele>27.338621</ele>
        <time>2026-08-02T21:19:35.084Z</time>
      </trkpt>
      <trkpt lat="52.357335" lon="5.881178">
        <ele>26.610135</ele>
        <time>2026-08-02T21:20:03.393Z</time>
      </trkpt>
      <trkpt lat="52.357352" lon="5.881525">
        <ele>26.491561</ele>
        <time>2026-08-02T21:20:05.926Z</time>
      </trkpt>
      <trkpt lat="52.357319" lon="5.882257">
        <ele>26.193283</ele>
        <time>2026-08-02T21:20:11.176Z</time>
      </trkpt>
      <trkpt lat="52.357324" lon="5.882720">
        <ele>26.005101</ele>
        <time>2026-08-02T21:20:14.459Z</time>
      </trkpt>
      <trkpt lat="52.357329" lon="5.882801">
        <ele>25.972017</ele>
        <time>2026-08-02T21:20:15.035Z</time>
      </trkpt>
      <trkpt lat="52.357343" lon="5.883047">
        <ele>25.871615</ele>
        <time>2026-08-02T21:20:16.807Z</time>
      </trkpt>
      <trkpt lat="52.357371" lon="5.883520">
        <ele>25.678498</ele>
        <time>2026-08-02T21:20:20.364Z</time>
      </trkpt>
      <trkpt lat="52.357465" lon="5.884561">
        <ele>25.443558</ele>
        <time>2026-08-02T21:20:29.801Z</time>
      </trkpt>
      <trkpt lat="52.357574" lon="5.886018">
        <ele>26.667331</ele>
        <time>2026-08-02T21:20:47.869Z</time>
      </trkpt>
      <trkpt lat="52.357686" lon="5.888520">
        <ele>28.493491</ele>
        <time>2026-08-02T21:21:22.430Z</time>
      </trkpt>
      <trkpt lat="52.357941" lon="5.890689">
        <ele>29.448549</ele>
        <time>2026-08-02T21:21:44.727Z</time>
      </trkpt>
      <trkpt lat="52.357946" lon="5.890728">
        <ele>29.438145</ele>
        <time>2026-08-02T21:21:45.052Z</time>
      </trkpt>
      <trkpt lat="52.358138" lon="5.890732">
        <ele>29.356062</ele>
        <time>2026-08-02T21:21:47.602Z</time>
      </trkpt>
      <trkpt lat="52.358172" lon="5.890818">
        <ele>29.329316</ele>
        <time>2026-08-02T21:21:48.451Z</time>
      </trkpt>
      <trkpt lat="52.358238" lon="5.890827">
        <ele>29.301005</ele>
        <time>2026-08-02T21:21:49.298Z</time>
      </trkpt>
      <trkpt lat="52.358423" lon="5.890886">
        <ele>29.220435</ele>
        <time>2026-08-02T21:21:51.732Z</time>
      </trkpt>
      <trkpt lat="52.358430" lon="5.890964">
        <ele>29.199853</ele>
        <time>2026-08-02T21:21:52.354Z</time>
      </trkpt>
      <trkpt lat="52.360156" lon="5.892163">
        <ele>28.538789</ele>
        <time>2026-08-02T21:22:26.197Z</time>
      </trkpt>
      <trkpt lat="52.360611" lon="5.892470">
        <ele>28.402463</ele>
        <time>2026-08-02T21:22:36.109Z</time>
      </trkpt>
      <trkpt lat="52.362190" lon="5.893584">
        <ele>28.547346</ele>
        <time>2026-08-02T21:23:13.406Z</time>
      </trkpt>
      <trkpt lat="52.362236" lon="5.893621">
        <ele>28.556799</ele>
        <time>2026-08-02T21:23:14.180Z</time>
      </trkpt>
      <trkpt lat="52.364591" lon="5.895292">
        <ele>28.405226</ele>
        <time>2026-08-02T21:23:49.420Z</time>
      </trkpt>
      <trkpt lat="52.366499" lon="5.896643">
        <ele>30.241497</ele>
        <time>2026-08-02T21:24:27.386Z</time>
      </trkpt>
      <trkpt lat="52.368389" lon="5.897973">
        <ele>33.512244</ele>
        <time>2026-08-02T21:25:14.878Z</time>
      </trkpt>
      <trkpt lat="52.368941" lon="5.898399">
        <ele>34.458945</ele>
        <time>2026-08-02T21:25:27.477Z</time>
      </trkpt>
      <trkpt lat="52.369168" lon="5.898640">
        <ele>34.878639</ele>
        <time>2026-08-02T21:25:32.525Z</time>
      </trkpt>
      <trkpt lat="52.370639" lon="5.900459">
        <ele>35.345756</ele>
        <time>2026-08-02T21:26:00.943Z</time>
      </trkpt>
      <trkpt lat="52.373046" lon="5.903426">
        <ele>35.186254</ele>
        <time>2026-08-02T21:26:44.679Z</time>
      </trkpt>
      <trkpt lat="52.377032" lon="5.908338">
        <ele>34.922905</ele>
        <time>2026-08-02T21:27:56.941Z</time>
      </trkpt>
      <trkpt lat="52.377040" lon="5.908348">
        <ele>34.924572</ele>
        <time>2026-08-02T21:27:57.096Z</time>
      </trkpt>
      <trkpt lat="52.377137" lon="5.908468">
        <ele>34.944719</ele>
        <time>2026-08-02T21:27:58.868Z</time>
      </trkpt>
      <trkpt lat="52.380608" lon="5.912756">
        <ele>36.835964</ele>
        <time>2026-08-02T21:29:11.431Z</time>
      </trkpt>
      <trkpt lat="52.380951" lon="5.913136">
        <ele>37.142051</ele>
        <time>2026-08-02T21:29:19.134Z</time>
      </trkpt>
      <trkpt lat="52.381002" lon="5.913186">
        <ele>37.188804</ele>
        <time>2026-08-02T21:29:20.202Z</time>
      </trkpt>
      <trkpt lat="52.381034" lon="5.913317">
        <ele>37.256555</ele>
        <time>2026-08-02T21:29:21.820Z</time>
      </trkpt>
      <trkpt lat="52.381094" lon="5.913518">
        <ele>37.363990</ele>
        <time>2026-08-02T21:29:24.326Z</time>
      </trkpt>
      <trkpt lat="52.381171" lon="5.913722">
        <ele>37.479158</ele>
        <time>2026-08-02T21:29:27.798Z</time>
      </trkpt>
      <trkpt lat="52.381294" lon="5.913881">
        <ele>37.602406</ele>
        <time>2026-08-02T21:29:31.559Z</time>
      </trkpt>
      <trkpt lat="52.381354" lon="5.914016">
        <ele>37.682590</ele>
        <time>2026-08-02T21:29:33.990Z</time>
      </trkpt>
      <trkpt lat="52.381493" lon="5.914423">
        <ele>37.906523</ele>
        <time>2026-08-02T21:29:40.822Z</time>
      </trkpt>
      <trkpt lat="52.381596" lon="5.914826">
        <ele>38.116304</ele>
        <time>2026-08-02T21:29:47.045Z</time>
      </trkpt>
      <trkpt lat="52.381782" lon="5.915272">
        <ele>38.347155</ele>
        <time>2026-08-02T21:29:54.283Z</time>
      </trkpt>
      <trkpt lat="52.382189" lon="5.916536">
        <ele>38.795012</ele>
        <time>2026-08-02T21:30:13.505Z</time>
      </trkpt>
      <trkpt lat="52.382736" lon="5.918225">
        <ele>39.416232</ele>
        <time>2026-08-02T21:30:39.464Z</time>
      </trkpt>
      <trkpt lat="52.383070" lon="5.919176">
        <ele>39.802818</ele>
        <time>2026-08-02T21:30:54.416Z</time>
      </trkpt>
      <trkpt lat="52.383164" lon="5.919122">
        <ele>39.860319</ele>
        <time>2026-08-02T21:31:02.559Z</time>
      </trkpt>
      <trkpt lat="52.383182" lon="5.919173">
        <ele>39.881076</ele>
        <time>2026-08-02T21:31:03.169Z</time>
      </trkpt>
      <trkpt lat="52.383726" lon="5.920837">
        <ele>40.645171</ele>
        <time>2026-08-02T21:31:23.340Z</time>
      </trkpt>
      <trkpt lat="52.386639" lon="5.929675">
        <ele>45.356702</ele>
        <time>2026-08-02T21:33:13.405Z</time>
      </trkpt>
      <trkpt lat="52.390225" lon="5.940535">
        <ele>50.273012</ele>
        <time>2026-08-02T21:35:25.672Z</time>
      </trkpt>
      <trkpt lat="52.390938" lon="5.942694">
        <ele>50.178431</ele>
        <time>2026-08-02T21:35:47.646Z</time>
      </trkpt>
      <trkpt lat="52.390999" lon="5.942879">
        <ele>50.157239</ele>
        <time>2026-08-02T21:35:49.353Z</time>
      </trkpt>
      <trkpt lat="52.391312" lon="5.943825">
        <ele>49.884107</ele>
        <time>2026-08-02T21:35:57.845Z</time>
      </trkpt>
      <trkpt lat="52.393026" lon="5.949016">
        <ele>47.112652</ele>
        <time>2026-08-02T21:36:42.773Z</time>
      </trkpt>
      <trkpt lat="52.393387" lon="5.949939">
        <ele>46.951127</ele>
        <time>2026-08-02T21:36:51.960Z</time>
      </trkpt>
      <trkpt lat="52.393442" lon="5.950159">
        <ele>46.916098</ele>
        <time>2026-08-02T21:36:54.089Z</time>
      </trkpt>
      <trkpt lat="52.393519" lon="5.950692">
        <ele>46.835398</ele>
        <time>2026-08-02T21:36:59.209Z</time>
      </trkpt>
      <trkpt lat="52.393563" lon="5.951167">
        <ele>46.764612</ele>
        <time>2026-08-02T21:37:03.917Z</time>
      </trkpt>
      <trkpt lat="52.393720" lon="5.952850">
        <ele>46.107296</ele>
        <time>2026-08-02T21:37:19.513Z</time>
      </trkpt>
      <trkpt lat="52.393805" lon="5.953246">
        <ele>45.936072</ele>
        <time>2026-08-02T21:37:22.821Z</time>
      </trkpt>
      <trkpt lat="52.395845" lon="5.956753">
        <ele>41.128009</ele>
        <time>2026-08-02T21:37:55.621Z</time>
      </trkpt>
      <trkpt lat="52.396478" lon="5.957916">
        <ele>39.373706</ele>
        <time>2026-08-02T21:38:06.157Z</time>
      </trkpt>
      <trkpt lat="52.396496" lon="5.957956">
        <ele>39.317759</ele>
        <time>2026-08-02T21:38:06.502Z</time>
      </trkpt>
      <trkpt lat="52.397309" lon="5.959808">
        <ele>36.725743</ele>
        <time>2026-08-02T21:38:22.333Z</time>
      </trkpt>
      <trkpt lat="52.397506" lon="5.960322">
        <ele>36.034759</ele>
        <time>2026-08-02T21:38:26.458Z</time>
      </trkpt>
      <trkpt lat="52.397748" lon="5.961642">
        <ele>33.904760</ele>
        <time>2026-08-02T21:38:35.372Z</time>
      </trkpt>
      <trkpt lat="52.397751" lon="5.962029">
        <ele>33.225439</ele>
        <time>2026-08-02T21:38:37.787Z</time>
      </trkpt>
      <trkpt lat="52.397730" lon="5.963681">
        <ele>30.325778</ele>
        <time>2026-08-02T21:38:48.005Z</time>
      </trkpt>
      <trkpt lat="52.397781" lon="5.964093">
        <ele>29.808806</ele>
        <time>2026-08-02T21:38:50.592Z</time>
      </trkpt>
      <trkpt lat="52.397880" lon="5.964455">
        <ele>29.320975</ele>
        <time>2026-08-02T21:38:53.075Z</time>
      </trkpt>
      <trkpt lat="52.397814" lon="5.964647">
        <ele>29.049976</ele>
        <time>2026-08-02T21:38:54.477Z</time>
      </trkpt>
      <trkpt lat="52.397616" lon="5.965307">
        <ele>28.145557</ele>
        <time>2026-08-02T21:38:59.312Z</time>
      </trkpt>
      <trkpt lat="52.397417" lon="5.965924">
        <ele>27.287331</ele>
        <time>2026-08-02T21:39:04.175Z</time>
      </trkpt>
      <trkpt lat="52.396790" lon="5.967914">
        <ele>26.469539</ele>
        <time>2026-08-02T21:39:22.639Z</time>
      </trkpt>
      <trkpt lat="52.396294" lon="5.969517">
        <ele>26.230385</ele>
        <time>2026-08-02T21:39:40.388Z</time>
      </trkpt>
      <trkpt lat="52.395489" lon="5.972230">
        <ele>25.579202</ele>
        <time>2026-08-02T21:40:05.411Z</time>
      </trkpt>
      <trkpt lat="52.395597" lon="5.972211">
        <ele>25.491746</ele>
        <time>2026-08-02T21:40:07.286Z</time>
      </trkpt>
      <trkpt lat="52.395924" lon="5.972408">
        <ele>25.211237</ele>
        <time>2026-08-02T21:40:13.246Z</time>
      </trkpt>
      <trkpt lat="52.396973" lon="5.972587">
        <ele>24.420981</ele>
        <time>2026-08-02T21:40:31.513Z</time>
      </trkpt>
      <trkpt lat="52.397700" lon="5.972679">
        <ele>24.165487</ele>
        <time>2026-08-02T21:40:44.908Z</time>
      </trkpt>
      <trkpt lat="52.397928" lon="5.972714">
        <ele>24.085248</ele>
        <time>2026-08-02T21:40:49.410Z</time>
      </trkpt>
      <trkpt lat="52.398139" lon="5.972839">
        <ele>24.006633</ele>
        <time>2026-08-02T21:40:53.998Z</time>
      </trkpt>
      <trkpt lat="52.398581" lon="5.973171">
        <ele>23.836268</ele>
        <time>2026-08-02T21:41:03.963Z</time>
      </trkpt>
      <trkpt lat="52.398715" lon="5.973340">
        <ele>23.804562</ele>
        <time>2026-08-02T21:41:07.381Z</time>
      </trkpt>
      <trkpt lat="52.398954" lon="5.974014">
        <ele>23.715537</ele>
        <time>2026-08-02T21:41:16.940Z</time>
      </trkpt>
      <trkpt lat="52.399144" lon="5.974726">
        <ele>23.626791</ele>
        <time>2026-08-02T21:41:26.256Z</time>
      </trkpt>
      <trkpt lat="52.399296" lon="5.975426">
        <ele>23.541941</ele>
        <time>2026-08-02T21:41:34.900Z</time>
      </trkpt>
      <trkpt lat="52.399392" lon="5.975642">
        <ele>23.511424</ele>
        <time>2026-08-02T21:41:37.977Z</time>
      </trkpt>
      <trkpt lat="52.399591" lon="5.975954">
        <ele>23.397469</ele>
        <time>2026-08-02T21:41:43.124Z</time>
      </trkpt>
      <trkpt lat="52.399712" lon="5.976242">
        <ele>23.294634</ele>
        <time>2026-08-02T21:41:47.090Z</time>
      </trkpt>
      <trkpt lat="52.400092" lon="5.976725">
        <ele>23.062850</ele>
        <time>2026-08-02T21:41:55.937Z</time>
      </trkpt>
      <trkpt lat="52.401445" lon="5.979359">
        <ele>22.358495</ele>
        <time>2026-08-02T21:42:34.921Z</time>
      </trkpt>
      <trkpt lat="52.402288" lon="5.980753">
        <ele>22.374109</ele>
        <time>2026-08-02T21:43:00.672Z</time>
      </trkpt>
      <trkpt lat="52.402432" lon="5.980994">
        <ele>22.424834</ele>
        <time>2026-08-02T21:43:05.260Z</time>
      </trkpt>
      <trkpt lat="52.402477" lon="5.981155">
        <ele>22.451464</ele>
        <time>2026-08-02T21:43:07.642Z</time>
      </trkpt>
      <trkpt lat="52.402482" lon="5.981443">
        <ele>22.494788</ele>
        <time>2026-08-02T21:43:11.512Z</time>
      </trkpt>
      <trkpt lat="52.402449" lon="5.981732">
        <ele>22.539001</ele>
        <time>2026-08-02T21:43:15.418Z</time>
      </trkpt>
      <trkpt lat="52.402448" lon="5.981996">
        <ele>22.578700</ele>
        <time>2026-08-02T21:43:18.883Z</time>
      </trkpt>
      <trkpt lat="52.402681" lon="5.984362">
        <ele>22.396968</ele>
        <time>2026-08-02T21:43:47.493Z</time>
      </trkpt>
      <trkpt lat="52.402594" lon="5.984843">
        <ele>22.321638</ele>
        <time>2026-08-02T21:43:53.160Z</time>
      </trkpt>
      <trkpt lat="52.402312" lon="5.987505">
        <ele>21.915128</ele>
        <time>2026-08-02T21:44:24.300Z</time>
      </trkpt>
      <trkpt lat="52.402428" lon="5.988870">
        <ele>21.774610</ele>
        <time>2026-08-02T21:44:41.490Z</time>
      </trkpt>
      <trkpt lat="52.402533" lon="5.989202">
        <ele>21.769474</ele>
        <time>2026-08-02T21:44:46.234Z</time>
      </trkpt>
      <trkpt lat="52.402746" lon="5.989768">
        <ele>21.760339</ele>
        <time>2026-08-02T21:44:54.609Z</time>
      </trkpt>
      <trkpt lat="52.403539" lon="5.994964">
        <ele>21.490674</ele>
        <time>2026-08-02T21:45:58.578Z</time>
      </trkpt>
      <trkpt lat="52.404075" lon="5.998450">
        <ele>21.819047</ele>
        <time>2026-08-02T21:46:45.495Z</time>
      </trkpt>
      <trkpt lat="52.405085" lon="6.001607">
        <ele>22.215762</ele>
        <time>2026-08-02T21:47:30.105Z</time>
      </trkpt>
      <trkpt lat="52.405550" lon="6.003099">
        <ele>22.517017</ele>
        <time>2026-08-02T21:47:52.456Z</time>
      </trkpt>
      <trkpt lat="52.405574" lon="6.003184">
        <ele>22.538660</ele>
        <time>2026-08-02T21:47:53.701Z</time>
      </trkpt>
      <trkpt lat="52.405552" lon="6.003265">
        <ele>22.559149</ele>
        <time>2026-08-02T21:47:54.900Z</time>
      </trkpt>
      <trkpt lat="52.405240" lon="6.004550">
        <ele>22.878741</ele>
        <time>2026-08-02T21:48:13.168Z</time>
      </trkpt>
      <trkpt lat="52.405191" lon="6.004879">
        <ele>22.956999</ele>
        <time>2026-08-02T21:48:17.605Z</time>
      </trkpt>
      <trkpt lat="52.405108" lon="6.006275">
        <ele>22.921736</ele>
        <time>2026-08-02T21:48:36.296Z</time>
      </trkpt>
      <trkpt lat="52.405018" lon="6.006882">
        <ele>22.898227</ele>
        <time>2026-08-02T21:48:44.368Z</time>
      </trkpt>
      <trkpt lat="52.404817" lon="6.007384">
        <ele>22.875629</ele>
        <time>2026-08-02T21:48:51.222Z</time>
      </trkpt>
      <trkpt lat="52.404436" lon="6.007708">
        <ele>22.684571</ele>
        <time>2026-08-02T21:48:58.803Z</time>
      </trkpt>
      <trkpt lat="52.404359" lon="6.007771">
        <ele>22.606222</ele>
        <time>2026-08-02T21:49:00.273Z</time>
      </trkpt>
      <trkpt lat="52.404246" lon="6.007987">
        <ele>22.448181</ele>
        <time>2026-08-02T21:49:03.167Z</time>
      </trkpt>
      <trkpt lat="52.404152" lon="6.008399">
        <ele>22.203867</ele>
        <time>2026-08-02T21:49:07.599Z</time>
      </trkpt>
      <trkpt lat="52.404122" lon="6.008560">
        <ele>22.110365</ele>
        <time>2026-08-02T21:49:09.263Z</time>
      </trkpt>
      <trkpt lat="52.404179" lon="6.008652">
        <ele>22.037537</ele>
        <time>2026-08-02T21:49:10.171Z</time>
      </trkpt>
      <trkpt lat="52.404251" lon="6.008767">
        <ele>21.946013</ele>
        <time>2026-08-02T21:49:11.311Z</time>
      </trkpt>
      <trkpt lat="52.404372" lon="6.008970">
        <ele>21.788381</ele>
        <time>2026-08-02T21:49:13.310Z</time>
      </trkpt>
      <trkpt lat="52.404456" lon="6.009296">
        <ele>21.591825</ele>
        <time>2026-08-02T21:49:15.850Z</time>
      </trkpt>
      <trkpt lat="52.404837" lon="6.009995">
        <ele>21.394170</ele>
        <time>2026-08-02T21:49:23.597Z</time>
      </trkpt>
      <trkpt lat="52.404917" lon="6.010185">
        <ele>21.537653</ele>
        <time>2026-08-02T21:49:25.981Z</time>
      </trkpt>
      <trkpt lat="52.405003" lon="6.010517">
        <ele>21.761827</ele>
        <time>2026-08-02T21:49:29.971Z</time>
      </trkpt>
      <trkpt lat="52.405087" lon="6.010782">
        <ele>21.947434</ele>
        <time>2026-08-02T21:49:33.554Z</time>
      </trkpt>
      <trkpt lat="52.405259" lon="6.011086">
        <ele>22.205121</ele>
        <time>2026-08-02T21:49:38.835Z</time>
      </trkpt>
      <trkpt lat="52.405327" lon="6.011359">
        <ele>22.388391</ele>
        <time>2026-08-02T21:49:42.745Z</time>
      </trkpt>
      <trkpt lat="52.405470" lon="6.012118">
        <ele>22.882102</ele>
        <time>2026-08-02T21:49:53.376Z</time>
      </trkpt>
      <trkpt lat="52.405537" lon="6.012761">
        <ele>23.211266</ele>
        <time>2026-08-02T21:50:01.439Z</time>
      </trkpt>
      <trkpt lat="52.405715" lon="6.013408">
        <ele>23.507095</ele>
        <time>2026-08-02T21:50:09.561Z</time>
      </trkpt>
      <trkpt lat="52.405951" lon="6.014664">
        <ele>24.054873</ele>
        <time>2026-08-02T21:50:22.931Z</time>
      </trkpt>
      <trkpt lat="52.406133" lon="6.015643">
        <ele>24.431709</ele>
        <time>2026-08-02T21:50:32.413Z</time>
      </trkpt>
      <trkpt lat="52.406344" lon="6.016776">
        <ele>24.800527</ele>
        <time>2026-08-02T21:50:47.899Z</time>
      </trkpt>
      <trkpt lat="52.406719" lon="6.018379">
        <ele>25.331363</ele>
        <time>2026-08-02T21:51:12.753Z</time>
      </trkpt>
      <trkpt lat="52.406773" lon="6.018965">
        <ele>25.510750</ele>
        <time>2026-08-02T21:51:20.939Z</time>
      </trkpt>
      <trkpt lat="52.406802" lon="6.019079">
        <ele>25.548136</ele>
        <time>2026-08-02T21:51:22.617Z</time>
      </trkpt>
      <trkpt lat="52.406893" lon="6.019382">
        <ele>25.650361</ele>
        <time>2026-08-02T21:51:27.138Z</time>
      </trkpt>
      <trkpt lat="52.406958" lon="6.019582">
        <ele>25.718953</ele>
        <time>2026-08-02T21:51:30.155Z</time>
      </trkpt>
      <trkpt lat="52.407038" lon="6.019761">
        <ele>25.786118</ele>
        <time>2026-08-02T21:51:33.113Z</time>
      </trkpt>
      <trkpt lat="52.407340" lon="6.020091">
        <ele>25.966201</ele>
        <time>2026-08-02T21:51:41.128Z</time>
      </trkpt>
      <trkpt lat="52.407507" lon="6.020320">
        <ele>26.074229</ele>
        <time>2026-08-02T21:51:45.755Z</time>
      </trkpt>
      <trkpt lat="52.407616" lon="6.020453">
        <ele>26.136179</ele>
        <time>2026-08-02T21:51:48.532Z</time>
      </trkpt>
      <trkpt lat="52.407801" lon="6.020639">
        <ele>26.231172</ele>
        <time>2026-08-02T21:51:52.952Z</time>
      </trkpt>
      <trkpt lat="52.407818" lon="6.020795">
        <ele>26.273487</ele>
        <time>2026-08-02T21:51:54.922Z</time>
      </trkpt>
      <trkpt lat="52.407852" lon="6.020927">
        <ele>26.311746</ele>
        <time>2026-08-02T21:51:56.717Z</time>
      </trkpt>
      <trkpt lat="52.407915" lon="6.021007">
        <ele>26.346628</ele>
        <time>2026-08-02T21:51:58.365Z</time>
      </trkpt>
      <trkpt lat="52.408096" lon="6.021222">
        <ele>26.444467</ele>
        <time>2026-08-02T21:52:03.154Z</time>
      </trkpt>
      <trkpt lat="52.408268" lon="6.021334">
        <ele>26.525475</ele>
        <time>2026-08-02T21:52:07.274Z</time>
      </trkpt>
      <trkpt lat="52.408449" lon="6.021541">
        <ele>26.622076</ele>
        <time>2026-08-02T21:52:12.231Z</time>
      </trkpt>
      <trkpt lat="52.408623" lon="6.021683">
        <ele>26.707153</ele>
        <time>2026-08-02T21:52:16.654Z</time>
      </trkpt>
      <trkpt lat="52.408939" lon="6.022120">
        <ele>26.895490</ele>
        <time>2026-08-02T21:52:26.068Z</time>
      </trkpt>
      <trkpt lat="52.409382" lon="6.022542">
        <ele>27.414291</ele>
        <time>2026-08-02T21:52:37.736Z</time>
      </trkpt>
      <trkpt lat="52.410022" lon="6.023269">
        <ele>28.202707</ele>
        <time>2026-08-02T21:52:56.807Z</time>
      </trkpt>
      <trkpt lat="52.411297" lon="6.024601">
        <ele>28.973533</ele>
        <time>2026-08-02T21:53:35.557Z</time>
      </trkpt>
      <trkpt lat="52.411409" lon="6.024803">
        <ele>29.017703</ele>
        <time>2026-08-02T21:53:38.904Z</time>
      </trkpt>
      <trkpt lat="52.411535" lon="6.024921">
        <ele>29.056196</ele>
        <time>2026-08-02T21:53:41.649Z</time>
      </trkpt>
      <trkpt lat="52.411092" lon="6.026737">
        <ele>27.879248</ele>
        <time>2026-08-02T21:54:01.055Z</time>
      </trkpt>
      <trkpt lat="52.410566" lon="6.028942">
        <ele>25.130565</ele>
        <time>2026-08-02T21:54:23.845Z</time>
      </trkpt>
      <trkpt lat="52.410536" lon="6.029202">
        <ele>24.774789</ele>
        <time>2026-08-02T21:54:26.416Z</time>
      </trkpt>
      <trkpt lat="52.410596" lon="6.029657">
        <ele>24.148897</ele>
        <time>2026-08-02T21:54:30.880Z</time>
      </trkpt>
      <trkpt lat="52.410576" lon="6.029847">
        <ele>23.889660</ele>
        <time>2026-08-02T21:54:32.709Z</time>
      </trkpt>
      <trkpt lat="52.410493" lon="6.030064">
        <ele>23.545285</ele>
        <time>2026-08-02T21:54:35.115Z</time>
      </trkpt>
      <trkpt lat="52.409956" lon="6.030948">
        <ele>21.875168</ele>
        <time>2026-08-02T21:54:46.777Z</time>
      </trkpt>
      <trkpt lat="52.409887" lon="6.031063">
        <ele>21.672541</ele>
        <time>2026-08-02T21:54:48.252Z</time>
      </trkpt>
      <trkpt lat="52.409701" lon="6.031555">
        <ele>20.945441</ele>
        <time>2026-08-02T21:54:53.603Z</time>
      </trkpt>
      <trkpt lat="52.409410" lon="6.032911">
        <ele>19.139732</ele>
        <time>2026-08-02T21:55:07.251Z</time>
      </trkpt>
      <trkpt lat="52.409230" lon="6.033572">
        <ele>18.248022</ele>
        <time>2026-08-02T21:55:14.460Z</time>
      </trkpt>
      <trkpt lat="52.409207" lon="6.033742">
        <ele>18.115970</ele>
        <time>2026-08-02T21:55:16.213Z</time>
      </trkpt>
      <trkpt lat="52.409165" lon="6.034104">
        <ele>17.836527</ele>
        <time>2026-08-02T21:55:19.927Z</time>
      </trkpt>
      <trkpt lat="52.408233" lon="6.037950">
        <ele>14.900101</ele>
        <time>2026-08-02T21:56:02.972Z</time>
      </trkpt>
      <trkpt lat="52.408144" lon="6.038162">
        <ele>14.734329</ele>
        <time>2026-08-02T21:56:05.735Z</time>
      </trkpt>
      <trkpt lat="52.408051" lon="6.038545">
        <ele>14.468795</ele>
        <time>2026-08-02T21:56:10.191Z</time>
      </trkpt>
      <trkpt lat="52.408000" lon="6.038630">
        <ele>14.391997</ele>
        <time>2026-08-02T21:56:11.470Z</time>
      </trkpt>
      <trkpt lat="52.407582" lon="6.040362">
        <ele>13.267212</ele>
        <time>2026-08-02T21:56:25.626Z</time>
      </trkpt>
      <trkpt lat="52.407482" lon="6.040779">
        <ele>13.001444</ele>
        <time>2026-08-02T21:56:28.938Z</time>
      </trkpt>
      <trkpt lat="52.407443" lon="6.040934">
        <ele>12.901993</ele>
        <time>2026-08-02T21:56:30.167Z</time>
      </trkpt>
      <trkpt lat="52.407020" lon="6.042796">
        <ele>11.718639</ele>
        <time>2026-08-02T21:56:44.760Z</time>
      </trkpt>
      <trkpt lat="52.406691" lon="6.044238">
        <ele>10.798862</ele>
        <time>2026-08-02T21:56:56.328Z</time>
      </trkpt>
      <trkpt lat="52.406579" lon="6.044750">
        <ele>10.484653</ele>
        <time>2026-08-02T21:57:02.334Z</time>
      </trkpt>
      <trkpt lat="52.406170" lon="6.046675">
        <ele>9.351051</ele>
        <time>2026-08-02T21:57:18.157Z</time>
      </trkpt>
      <trkpt lat="52.405666" lon="6.048960">
        <ele>7.920033</ele>
        <time>2026-08-02T21:57:35.367Z</time>
      </trkpt>
      <trkpt lat="52.405573" lon="6.049364">
        <ele>7.660544</ele>
        <time>2026-08-02T21:57:38.697Z</time>
      </trkpt>
      <trkpt lat="52.405455" lon="6.049736">
        <ele>7.408581</ele>
        <time>2026-08-02T21:57:42.108Z</time>
      </trkpt>
      <trkpt lat="52.404967" lon="6.050906">
        <ele>7.104983</ele>
        <time>2026-08-02T21:57:54.697Z</time>
      </trkpt>
      <trkpt lat="52.404790" lon="6.051332">
        <ele>7.052047</ele>
        <time>2026-08-02T21:57:59.825Z</time>
      </trkpt>
      <trkpt lat="52.404672" lon="6.051700">
        <ele>7.009348</ele>
        <time>2026-08-02T21:58:03.722Z</time>
      </trkpt>
      <trkpt lat="52.404648" lon="6.051780">
        <ele>7.000192</ele>
        <time>2026-08-02T21:58:04.516Z</time>
      </trkpt>
      <trkpt lat="52.404611" lon="6.051904">
        <ele>6.986014</ele>
        <time>2026-08-02T21:58:06.169Z</time>
      </trkpt>
      <trkpt lat="52.404512" lon="6.052857">
        <ele>6.832705</ele>
        <time>2026-08-02T21:58:16.974Z</time>
      </trkpt>
      <trkpt lat="52.404472" lon="6.054359">
        <ele>6.385040</ele>
        <time>2026-08-02T21:58:33.428Z</time>
      </trkpt>
      <trkpt lat="52.404460" lon="6.054933">
        <ele>6.214024</ele>
        <time>2026-08-02T21:58:38.143Z</time>
      </trkpt>
      <trkpt lat="52.404103" lon="6.056287">
        <ele>5.905408</ele>
        <time>2026-08-02T21:58:50.923Z</time>
      </trkpt>
      <trkpt lat="52.404015" lon="6.056518">
        <ele>5.864660</ele>
        <time>2026-08-02T21:58:53.337Z</time>
      </trkpt>
      <trkpt lat="52.403800" lon="6.056937">
        <ele>5.782743</ele>
        <time>2026-08-02T21:58:58.155Z</time>
      </trkpt>
      <trkpt lat="52.403188" lon="6.057876">
        <ele>5.589032</ele>
        <time>2026-08-02T21:59:09.546Z</time>
      </trkpt>
      <trkpt lat="52.403088" lon="6.058113">
        <ele>5.572810</ele>
        <time>2026-08-02T21:59:11.940Z</time>
      </trkpt>
      <trkpt lat="52.402972" lon="6.058548">
        <ele>5.546083</ele>
        <time>2026-08-02T21:59:15.990Z</time>
      </trkpt>
      <trkpt lat="52.402859" lon="6.059280">
        <ele>5.503575</ele>
        <time>2026-08-02T21:59:22.687Z</time>
      </trkpt>
      <trkpt lat="52.402782" lon="6.059602">
        <ele>5.484104</ele>
        <time>2026-08-02T21:59:26.925Z</time>
      </trkpt>
      <trkpt lat="52.402645" lon="6.059773">
        <ele>5.468215</ele>
        <time>2026-08-02T21:59:30.393Z</time>
      </trkpt>
      <trkpt lat="52.402166" lon="6.060225">
        <ele>5.432130</ele>
        <time>2026-08-02T21:59:41.811Z</time>
      </trkpt>
      <trkpt lat="52.401798" lon="6.060587">
        <ele>5.437919</ele>
        <time>2026-08-02T21:59:50.849Z</time>
      </trkpt>
      <trkpt lat="52.401758" lon="6.060724">
        <ele>5.439168</ele>
        <time>2026-08-02T21:59:52.764Z</time>
      </trkpt>
      <trkpt lat="52.401687" lon="6.061021">
        <ele>5.441793</ele>
        <time>2026-08-02T21:59:56.742Z</time>
      </trkpt>
      <trkpt lat="52.401708" lon="6.061225">
        <ele>5.443496</ele>
        <time>2026-08-02T21:59:59.296Z</time>
      </trkpt>
      <trkpt lat="52.402062" lon="6.064109">
        <ele>5.234421</ele>
        <time>2026-08-02T22:00:25.495Z</time>
      </trkpt>
      <trkpt lat="52.402252" lon="6.065125">
        <ele>5.088821</ele>
        <time>2026-08-02T22:00:34.363Z</time>
      </trkpt>
      <trkpt lat="52.402281" lon="6.065217">
        <ele>5.074633</ele>
        <time>2026-08-02T22:00:35.198Z</time>
      </trkpt>
      <trkpt lat="52.402380" lon="6.065359">
        <ele>5.035785</ele>
        <time>2026-08-02T22:00:36.919Z</time>
      </trkpt>
      <trkpt lat="52.402420" lon="6.065476">
        <ele>4.986168</ele>
        <time>2026-08-02T22:00:37.963Z</time>
      </trkpt>
      <trkpt lat="52.402417" lon="6.065763">
        <ele>4.879976</ele>
        <time>2026-08-02T22:00:40.220Z</time>
      </trkpt>
      <trkpt lat="52.402415" lon="6.065849">
        <ele>4.848137</ele>
        <time>2026-08-02T22:00:40.901Z</time>
      </trkpt>
      <trkpt lat="52.401944" lon="6.065754">
        <ele>4.560381</ele>
        <time>2026-08-02T22:00:46.953Z</time>
      </trkpt>
      <trkpt lat="52.401591" lon="6.065622">
        <ele>4.340832</ele>
        <time>2026-08-02T22:00:51.553Z</time>
      </trkpt>
      <trkpt lat="52.400411" lon="6.064993">
        <ele>3.800842</ele>
        <time>2026-08-02T22:01:07.723Z</time>
      </trkpt>
      <trkpt lat="52.399335" lon="6.064355">
        <ele>3.503739</ele>
        <time>2026-08-02T22:01:24.238Z</time>
      </trkpt>
      <trkpt lat="52.397811" lon="6.063039">
        <ele>3.717066</ele>
        <time>2026-08-02T22:01:51.069Z</time>
      </trkpt>
      <trkpt lat="52.396912" lon="6.062200">
        <ele>3.755448</ele>
        <time>2026-08-02T22:02:06.043Z</time>
      </trkpt>
      <trkpt lat="52.393850" lon="6.059685">
        <ele>3.991537</ele>
        <time>2026-08-02T22:02:58.064Z</time>
      </trkpt>
      <trkpt lat="52.393688" lon="6.061797">
        <ele>4.052211</ele>
        <time>2026-08-02T22:03:17.790Z</time>
      </trkpt>
      <trkpt lat="52.393611" lon="6.062552">
        <ele>4.014488</ele>
        <time>2026-08-02T22:03:24.854Z</time>
      </trkpt>
      <trkpt lat="52.393597" lon="6.063343">
        <ele>3.975491</ele>
        <time>2026-08-02T22:03:31.918Z</time>
      </trkpt>
      <trkpt lat="52.393544" lon="6.063683">
        <ele>3.958198</ele>
        <time>2026-08-02T22:03:34.972Z</time>
      </trkpt>
      <trkpt lat="52.393419" lon="6.064070">
        <ele>3.936620</ele>
        <time>2026-08-02T22:03:38.718Z</time>
      </trkpt>
      <trkpt lat="52.393009" lon="6.064807">
        <ele>3.764257</ele>
        <time>2026-08-02T22:03:46.993Z</time>
      </trkpt>
      <trkpt lat="52.392925" lon="6.065025">
        <ele>3.711675</ele>
        <time>2026-08-02T22:03:49.085Z</time>
      </trkpt>
      <trkpt lat="52.392894" lon="6.065276">
        <ele>3.659445</ele>
        <time>2026-08-02T22:03:51.166Z</time>
      </trkpt>
      <trkpt lat="52.392869" lon="6.067605">
        <ele>3.236706</ele>
        <time>2026-08-02T22:04:10.598Z</time>
      </trkpt>
      <trkpt lat="52.392889" lon="6.068538">
        <ele>3.116860</ele>
        <time>2026-08-02T22:04:18.695Z</time>
      </trkpt>
      <trkpt lat="52.392890" lon="6.068681">
        <ele>3.098501</ele>
        <time>2026-08-02T22:04:20.417Z</time>
      </trkpt>
      <trkpt lat="52.392891" lon="6.068876">
        <ele>3.073468</ele>
        <time>2026-08-02T22:04:22.732Z</time>
      </trkpt>
      <trkpt lat="52.392890" lon="6.070207">
        <ele>2.956182</ele>
        <time>2026-08-02T22:04:34.389Z</time>
      </trkpt>
      <trkpt lat="52.392962" lon="6.070856">
        <ele>2.973161</ele>
        <time>2026-08-02T22:04:40.417Z</time>
      </trkpt>
      <trkpt lat="52.393047" lon="6.071357">
        <ele>2.986546</ele>
        <time>2026-08-02T22:04:45.141Z</time>
      </trkpt>
      <trkpt lat="52.393185" lon="6.071893">
        <ele>3.001520</ele>
        <time>2026-08-02T22:04:50.490Z</time>
      </trkpt>
      <trkpt lat="52.393304" lon="6.072236">
        <ele>3.011676</ele>
        <time>2026-08-02T22:04:54.164Z</time>
      </trkpt>
      <trkpt lat="52.393096" lon="6.072381">
        <ele>3.021210</ele>
        <time>2026-08-02T22:04:58.848Z</time>
      </trkpt>
      <trkpt lat="52.392908" lon="6.072440">
        <ele>3.020963</ele>
        <time>2026-08-02T22:05:02.843Z</time>
      </trkpt>
      <trkpt lat="52.392654" lon="6.072447">
        <ele>3.017261</ele>
        <time>2026-08-02T22:05:08.111Z</time>
      </trkpt>
      <trkpt lat="52.392136" lon="6.072330">
        <ele>3.009640</ele>
        <time>2026-08-02T22:05:18.610Z</time>
      </trkpt>
      <trkpt lat="52.390462" lon="6.071953">
        <ele>3.007240</ele>
        <time>2026-08-02T22:05:52.241Z</time>
      </trkpt>
      <trkpt lat="52.388973" lon="6.070961">
        <ele>2.944725</ele>
        <time>2026-08-02T22:06:25.340Z</time>
      </trkpt>
      <trkpt lat="52.388723" lon="6.070852">
        <ele>2.913592</ele>
        <time>2026-08-02T22:06:30.510Z</time>
      </trkpt>
      <trkpt lat="52.388579" lon="6.070808">
        <ele>2.895963</ele>
        <time>2026-08-02T22:06:33.406Z</time>
      </trkpt>
      <trkpt lat="52.388026" lon="6.070350">
        <ele>2.821393</ele>
        <time>2026-08-02T22:06:45.355Z</time>
      </trkpt>
      <trkpt lat="52.386917" lon="6.068747">
        <ele>2.375587</ele>
        <time>2026-08-02T22:07:13.326Z</time>
      </trkpt>
      <trkpt lat="52.385478" lon="6.067529">
        <ele>2.041070</ele>
        <time>2026-08-02T22:07:44.976Z</time>
      </trkpt>
      <trkpt lat="52.383664" lon="6.066025">
        <ele>1.773996</ele>
        <time>2026-08-02T22:08:25.208Z</time>
      </trkpt>
      <trkpt lat="52.383477" lon="6.065901">
        <ele>1.750139</ele>
        <time>2026-08-02T22:08:29.169Z</time>
      </trkpt>
      <trkpt lat="52.383190" lon="6.066282">
        <ele>1.677890</ele>
        <time>2026-08-02T22:08:34.374Z</time>
      </trkpt>
      <trkpt lat="52.383054" lon="6.066530">
        <ele>1.616638</ele>
        <time>2026-08-02T22:08:37.219Z</time>
      </trkpt>
      <trkpt lat="52.382619" lon="6.067653">
        <ele>1.372277</ele>
        <time>2026-08-02T22:08:48.272Z</time>
      </trkpt>
      <trkpt lat="52.381854" lon="6.069669">
        <ele>0.867743</ele>
        <time>2026-08-02T22:09:08.166Z</time>
      </trkpt>
      <trkpt lat="52.381822" lon="6.069897">
        <ele>0.812876</ele>
        <time>2026-08-02T22:09:10.129Z</time>
      </trkpt>
      <trkpt lat="52.381771" lon="6.070306">
        <ele>0.714975</ele>
        <time>2026-08-02T22:09:13.646Z</time>
      </trkpt>
      <trkpt lat="52.381711" lon="6.070481">
        <ele>0.667902</ele>
        <time>2026-08-02T22:09:15.363Z</time>
      </trkpt>
      <trkpt lat="52.381619" lon="6.070538">
        <ele>0.630111</ele>
        <time>2026-08-02T22:09:16.750Z</time>
      </trkpt>
      <trkpt lat="52.381532" lon="6.070517">
        <ele>0.596324</ele>
        <time>2026-08-02T22:09:17.979Z</time>
      </trkpt>
      <trkpt lat="52.381332" lon="6.070381">
        <ele>0.513124</ele>
        <time>2026-08-02T22:09:21.071Z</time>
      </trkpt>
      <trkpt lat="52.380720" lon="6.070258">
        <ele>0.229049</ele>
        <time>2026-08-02T22:09:28.906Z</time>
      </trkpt>
      <trkpt lat="52.380409" lon="6.070286">
        <ele>0.083275</ele>
        <time>2026-08-02T22:09:32.487Z</time>
      </trkpt>
      <trkpt lat="52.380043" lon="6.070204">
        <ele>-0.089615</ele>
        <time>2026-08-02T22:09:37.204Z</time>
      </trkpt>
      <trkpt lat="52.379939" lon="6.070235">
        <ele>-0.139088</ele>
        <time>2026-08-02T22:09:38.656Z</time>
      </trkpt>
      <trkpt lat="52.379866" lon="6.070359">
        <ele>-0.188304</ele>
        <time>2026-08-02T22:09:40.188Z</time>
      </trkpt>
      <trkpt lat="52.379782" lon="6.070915">
        <ele>-0.346932</ele>
        <time>2026-08-02T22:09:45.790Z</time>
      </trkpt>
      <trkpt lat="52.379815" lon="6.071129">
        <ele>-0.289810</ele>
        <time>2026-08-02T22:09:47.983Z</time>
      </trkpt>
      <trkpt lat="52.380446" lon="6.071822">
        <ele>0.032258</ele>
        <time>2026-08-02T22:10:01.139Z</time>
      </trkpt>
      <trkpt lat="52.380550" lon="6.071996">
        <ele>0.095279</ele>
        <time>2026-08-02T22:10:04.161Z</time>
      </trkpt>
      <trkpt lat="52.373924" lon="6.066368">
        <ele>1.543927</ele>
        <time>2026-08-02T22:11:59.616Z</time>
      </trkpt>
      <trkpt lat="52.373660" lon="6.066205">
        <ele>1.598691</ele>
        <time>2026-08-02T22:12:04.209Z</time>
      </trkpt>
      <trkpt lat="52.373325" lon="6.066143">
        <ele>1.639536</ele>
        <time>2026-08-02T22:12:09.645Z</time>
      </trkpt>
      <trkpt lat="52.373266" lon="6.066141">
        <ele>1.640510</ele>
        <time>2026-08-02T22:12:10.596Z</time>
      </trkpt>
      <trkpt lat="52.373176" lon="6.066124">
        <ele>1.642005</ele>
        <time>2026-08-02T22:12:12.058Z</time>
      </trkpt>
      <trkpt lat="52.373117" lon="6.066119">
        <ele>1.642980</ele>
        <time>2026-08-02T22:12:13.003Z</time>
      </trkpt>
      <trkpt lat="52.370953" lon="6.065917">
        <ele>1.606180</ele>
        <time>2026-08-02T22:12:44.465Z</time>
      </trkpt>
      <trkpt lat="52.370703" lon="6.065941">
        <ele>1.584932</ele>
        <time>2026-08-02T22:12:48.086Z</time>
      </trkpt>
      <trkpt lat="52.370440" lon="6.066038">
        <ele>1.562059</ele>
        <time>2026-08-02T22:12:52.003Z</time>
      </trkpt>
      <trkpt lat="52.370190" lon="6.066211">
        <ele>1.539032</ele>
        <time>2026-08-02T22:12:55.949Z</time>
      </trkpt>
      <trkpt lat="52.369913" lon="6.066516">
        <ele>1.521941</ele>
        <time>2026-08-02T22:13:00.844Z</time>
      </trkpt>
      <trkpt lat="52.369750" lon="6.066779">
        <ele>1.562855</ele>
        <time>2026-08-02T22:13:04.223Z</time>
      </trkpt>
      <trkpt lat="52.369679" lon="6.066946">
        <ele>1.585072</ele>
        <time>2026-08-02T22:13:06.075Z</time>
      </trkpt>
      <trkpt lat="52.369635" lon="6.067052">
        <ele>1.599065</ele>
        <time>2026-08-02T22:13:07.249Z</time>
      </trkpt>
      <trkpt lat="52.369555" lon="6.067241">
        <ele>1.624173</ele>
        <time>2026-08-02T22:13:09.377Z</time>
      </trkpt>
      <trkpt lat="52.369249" lon="6.068324">
        <ele>1.754456</ele>
        <time>2026-08-02T22:13:20.675Z</time>
      </trkpt>
      <trkpt lat="52.368010" lon="6.072682">
        <ele>2.954414</ele>
        <time>2026-08-02T22:14:09.794Z</time>
      </trkpt>
      <trkpt lat="52.368039" lon="6.072805">
        <ele>2.986576</ele>
        <time>2026-08-02T22:14:11.151Z</time>
      </trkpt>
      <trkpt lat="52.367997" lon="6.073037">
        <ele>3.045602</ele>
        <time>2026-08-02T22:14:13.659Z</time>
      </trkpt>
      <trkpt lat="52.367936" lon="6.073225">
        <ele>3.097534</ele>
        <time>2026-08-02T22:14:15.885Z</time>
      </trkpt>
      <trkpt lat="52.367853" lon="6.073388">
        <ele>3.149306</ele>
        <time>2026-08-02T22:14:18.070Z</time>
      </trkpt>
      <trkpt lat="52.367761" lon="6.073501">
        <ele>3.195247</ele>
        <time>2026-08-02T22:14:19.991Z</time>
      </trkpt>
      <trkpt lat="52.367699" lon="6.073576">
        <ele>3.226040</ele>
        <time>2026-08-02T22:14:21.279Z</time>
      </trkpt>
      <trkpt lat="52.367578" lon="6.073645">
        <ele>3.277225</ele>
        <time>2026-08-02T22:14:23.368Z</time>
      </trkpt>
      <trkpt lat="52.367448" lon="6.073660">
        <ele>3.329289</ele>
        <time>2026-08-02T22:14:25.418Z</time>
      </trkpt>
      <trkpt lat="52.367408" lon="6.073585">
        <ele>3.353580</ele>
        <time>2026-08-02T22:14:26.386Z</time>
      </trkpt>
      <trkpt lat="52.367270" lon="6.073558">
        <ele>3.395805</ele>
        <time>2026-08-02T22:14:28.503Z</time>
      </trkpt>
      <trkpt lat="52.366979" lon="6.073450">
        <ele>3.320346</ele>
        <time>2026-08-02T22:14:32.937Z</time>
      </trkpt>
      <trkpt lat="52.366626" lon="6.073355">
        <ele>3.229875</ele>
        <time>2026-08-02T22:14:37.930Z</time>
      </trkpt>
      <trkpt lat="52.366116" lon="6.073291">
        <ele>3.100518</ele>
        <time>2026-08-02T22:14:44.974Z</time>
      </trkpt>
      <trkpt lat="52.365611" lon="6.073282">
        <ele>2.972796</ele>
        <time>2026-08-02T22:14:51.638Z</time>
      </trkpt>
      <trkpt lat="52.365096" lon="6.073323">
        <ele>2.942164</ele>
        <time>2026-08-02T22:14:58.478Z</time>
      </trkpt>
      <trkpt lat="52.364788" lon="6.073393">
        <ele>2.939191</ele>
        <time>2026-08-02T22:15:02.930Z</time>
      </trkpt>
      <trkpt lat="52.364192" lon="6.073542">
        <ele>2.933427</ele>
        <time>2026-08-02T22:15:12.212Z</time>
      </trkpt>
      <trkpt lat="52.363908" lon="6.073662">
        <ele>2.930623</ele>
        <time>2026-08-02T22:15:16.815Z</time>
      </trkpt>
      <trkpt lat="52.362773" lon="6.074211">
        <ele>3.164189</ele>
        <time>2026-08-02T22:15:36.114Z</time>
      </trkpt>
      <trkpt lat="52.362299" lon="6.074538">
        <ele>3.284977</ele>
        <time>2026-08-02T22:15:44.130Z</time>
      </trkpt>
      <trkpt lat="52.361948" lon="6.074801">
        <ele>3.353508</ele>
        <time>2026-08-02T22:15:49.881Z</time>
      </trkpt>
      <trkpt lat="52.361455" lon="6.074933">
        <ele>3.364258</ele>
        <time>2026-08-02T22:15:57.106Z</time>
      </trkpt>
      <trkpt lat="52.360615" lon="6.075139">
        <ele>3.382535</ele>
        <time>2026-08-02T22:16:09.783Z</time>
      </trkpt>
      <trkpt lat="52.360093" lon="6.075390">
        <ele>3.387010</ele>
        <time>2026-08-02T22:16:17.836Z</time>
      </trkpt>
      <trkpt lat="52.359818" lon="6.075592">
        <ele>3.382485</ele>
        <time>2026-08-02T22:16:22.330Z</time>
      </trkpt>
      <trkpt lat="52.359467" lon="6.075954">
        <ele>3.376259</ele>
        <time>2026-08-02T22:16:28.499Z</time>
      </trkpt>
      <trkpt lat="52.358696" lon="6.077230">
        <ele>3.393520</ele>
        <time>2026-08-02T22:16:44.699Z</time>
      </trkpt>
      <trkpt lat="52.358140" lon="6.078238">
        <ele>3.513126</ele>
        <time>2026-08-02T22:16:57.511Z</time>
      </trkpt>
      <trkpt lat="52.357839" lon="6.078895">
        <ele>3.585450</ele>
        <time>2026-08-02T22:17:05.422Z</time>
      </trkpt>
      <trkpt lat="52.357190" lon="6.079186">
        <ele>3.646741</ele>
        <time>2026-08-02T22:17:15.676Z</time>
      </trkpt>
      <trkpt lat="52.357016" lon="6.079352">
        <ele>3.658529</ele>
        <time>2026-08-02T22:17:18.685Z</time>
      </trkpt>
      <trkpt lat="52.356868" lon="6.079559">
        <ele>3.669922</ele>
        <time>2026-08-02T22:17:21.587Z</time>
      </trkpt>
      <trkpt lat="52.356532" lon="6.079973">
        <ele>3.694536</ele>
        <time>2026-08-02T22:17:27.823Z</time>
      </trkpt>
      <trkpt lat="52.356350" lon="6.080690">
        <ele>3.722294</ele>
        <time>2026-08-02T22:17:34.858Z</time>
      </trkpt>
      <trkpt lat="52.356165" lon="6.080908">
        <ele>3.760673</ele>
        <time>2026-08-02T22:17:38.298Z</time>
      </trkpt>
      <trkpt lat="52.356023" lon="6.080926">
        <ele>3.795002</ele>
        <time>2026-08-02T22:17:40.482Z</time>
      </trkpt>
      <trkpt lat="52.355860" lon="6.080915">
        <ele>3.834322</ele>
        <time>2026-08-02T22:17:43.042Z</time>
      </trkpt>
      <trkpt lat="52.355735" lon="6.080962">
        <ele>3.865235</ele>
        <time>2026-08-02T22:17:45.098Z</time>
      </trkpt>
      <trkpt lat="52.355642" lon="6.081051">
        <ele>3.891199</ele>
        <time>2026-08-02T22:17:46.827Z</time>
      </trkpt>
      <trkpt lat="52.355288" lon="6.081551">
        <ele>4.003883</ele>
        <time>2026-08-02T22:17:54.442Z</time>
      </trkpt>
      <trkpt lat="52.354883" lon="6.081967">
        <ele>4.119119</ele>
        <time>2026-08-02T22:18:02.184Z</time>
      </trkpt>
      <trkpt lat="52.354600" lon="6.082500">
        <ele>4.169301</ele>
        <time>2026-08-02T22:18:09.078Z</time>
      </trkpt>
      <trkpt lat="52.353991" lon="6.083395">
        <ele>4.195322</ele>
        <time>2026-08-02T22:18:21.429Z</time>
      </trkpt>
      <trkpt lat="52.353846" lon="6.083476">
        <ele>4.200194</ele>
        <time>2026-08-02T22:18:23.646Z</time>
      </trkpt>
      <trkpt lat="52.353379" lon="6.083579">
        <ele>4.215178</ele>
        <time>2026-08-02T22:18:30.387Z</time>
      </trkpt>
      <trkpt lat="52.353075" lon="6.083800">
        <ele>4.166433</ele>
        <time>2026-08-02T22:18:35.119Z</time>
      </trkpt>
      <trkpt lat="52.352934" lon="6.084034">
        <ele>4.121881</ele>
        <time>2026-08-02T22:18:37.957Z</time>
      </trkpt>
      <trkpt lat="52.352697" lon="6.084677">
        <ele>4.020092</ele>
        <time>2026-08-02T22:18:44.398Z</time>
      </trkpt>
      <trkpt lat="52.352531" lon="6.085214">
        <ele>3.938518</ele>
        <time>2026-08-02T22:18:49.511Z</time>
      </trkpt>
      <trkpt lat="52.352454" lon="6.085347">
        <ele>3.913680</ele>
        <time>2026-08-02T22:18:51.060Z</time>
      </trkpt>
      <trkpt lat="52.352221" lon="6.085607">
        <ele>3.851109</ele>
        <time>2026-08-02T22:18:54.966Z</time>
      </trkpt>
      <trkpt lat="52.351817" lon="6.085907">
        <ele>3.795631</ele>
        <time>2026-08-02T22:19:01.135Z</time>
      </trkpt>
      <trkpt lat="52.351669" lon="6.086167">
        <ele>3.778568</ele>
        <time>2026-08-02T22:19:04.197Z</time>
      </trkpt>
      <trkpt lat="52.351607" lon="6.086493">
        <ele>3.762175</ele>
        <time>2026-08-02T22:19:07.174Z</time>
      </trkpt>
      <trkpt lat="52.351617" lon="6.087064">
        <ele>3.734750</ele>
        <time>2026-08-02T22:19:12.233Z</time>
      </trkpt>
      <trkpt lat="52.351524" lon="6.087518">
        <ele>3.711760</ele>
        <time>2026-08-02T22:19:16.568Z</time>
      </trkpt>
      <trkpt lat="52.351482" lon="6.087964">
        <ele>3.690094</ele>
        <time>2026-08-02T22:19:20.719Z</time>
      </trkpt>
      <trkpt lat="52.351433" lon="6.088182">
        <ele>3.678942</ele>
        <time>2026-08-02T22:19:22.853Z</time>
      </trkpt>
      <trkpt lat="52.351322" lon="6.088336">
        <ele>3.714200</ele>
        <time>2026-08-02T22:19:25.065Z</time>
      </trkpt>
      <trkpt lat="52.350971" lon="6.088544">
        <ele>3.817690</ele>
        <time>2026-08-02T22:19:30.865Z</time>
      </trkpt>
      <trkpt lat="52.350813" lon="6.088674">
        <ele>3.866714</ele>
        <time>2026-08-02T22:19:33.653Z</time>
      </trkpt>
      <trkpt lat="52.350508" lon="6.089006">
        <ele>3.968258</ele>
        <time>2026-08-02T22:19:39.513Z</time>
      </trkpt>
      <trkpt lat="52.350311" lon="6.089323">
        <ele>4.044840</ele>
        <time>2026-08-02T22:19:43.965Z</time>
      </trkpt>
      <trkpt lat="52.350248" lon="6.089488">
        <ele>4.077791</ele>
        <time>2026-08-02T22:19:45.888Z</time>
      </trkpt>
      <trkpt lat="52.350000" lon="6.090340">
        <ele>4.216115</ele>
        <time>2026-08-02T22:19:55.405Z</time>
      </trkpt>
      <trkpt lat="52.349837" lon="6.090949">
        <ele>4.289113</ele>
        <time>2026-08-02T22:20:02.133Z</time>
      </trkpt>
      <trkpt lat="52.349677" lon="6.091415">
        <ele>4.347803</ele>
        <time>2026-08-02T22:20:07.356Z</time>
      </trkpt>
      <trkpt lat="52.349604" lon="6.091631">
        <ele>4.374905</ele>
        <time>2026-08-02T22:20:09.682Z</time>
      </trkpt>
      <trkpt lat="52.349260" lon="6.092640">
        <ele>4.500500</ele>
        <time>2026-08-02T22:20:20.018Z</time>
      </trkpt>
      <trkpt lat="52.349160" lon="6.092850">
        <ele>4.511332</ele>
        <time>2026-08-02T22:20:22.433Z</time>
      </trkpt>
      <trkpt lat="52.349000" lon="6.092980">
        <ele>4.523229</ele>
        <time>2026-08-02T22:20:25.118Z</time>
      </trkpt>
      <trkpt lat="52.348730" lon="6.093120">
        <ele>4.542091</ele>
        <time>2026-08-02T22:20:29.307Z</time>
      </trkpt>
      <trkpt lat="52.348140" lon="6.093470">
        <ele>4.583885</ele>
        <time>2026-08-02T22:20:38.713Z</time>
      </trkpt>
      <trkpt lat="52.347792" lon="6.093773">
        <ele>4.610136</ele>
        <time>2026-08-02T22:20:44.767Z</time>
      </trkpt>
      <trkpt lat="52.347778" lon="6.093783">
        <ele>4.611154</ele>
        <time>2026-08-02T22:20:45.006Z</time>
      </trkpt>
      <trkpt lat="52.347306" lon="6.094178">
        <ele>4.600678</ele>
        <time>2026-08-02T22:20:53.350Z</time>
      </trkpt>
      <trkpt lat="52.346627" lon="6.094886">
        <ele>4.563102</ele>
        <time>2026-08-02T22:21:05.385Z</time>
      </trkpt>
      <trkpt lat="52.345913" lon="6.095605">
        <ele>4.399756</ele>
        <time>2026-08-02T22:21:16.917Z</time>
      </trkpt>
      <trkpt lat="52.345082" lon="6.096503">
        <ele>3.856207</ele>
        <time>2026-08-02T22:21:29.733Z</time>
      </trkpt>
      <trkpt lat="52.344930" lon="6.096723">
        <ele>3.745452</ele>
        <time>2026-08-02T22:21:32.316Z</time>
      </trkpt>
      <trkpt lat="52.344864" lon="6.096878">
        <ele>3.682446</ele>
        <time>2026-08-02T22:21:33.822Z</time>
      </trkpt>
      <trkpt lat="52.344736" lon="6.097183">
        <ele>3.559048</ele>
        <time>2026-08-02T22:21:36.768Z</time>
      </trkpt>
      <trkpt lat="52.344496" lon="6.097442">
        <ele>3.566317</ele>
        <time>2026-08-02T22:21:40.667Z</time>
      </trkpt>
      <trkpt lat="52.344295" lon="6.097534">
        <ele>3.575752</ele>
        <time>2026-08-02T22:21:43.630Z</time>
      </trkpt>
      <trkpt lat="52.343999" lon="6.097520">
        <ele>3.589137</ele>
        <time>2026-08-02T22:21:48.015Z</time>
      </trkpt>
      <trkpt lat="52.343910" lon="6.097499">
        <ele>3.593202</ele>
        <time>2026-08-02T22:21:49.417Z</time>
      </trkpt>
      <trkpt lat="52.343630" lon="6.097398">
        <ele>3.606162</ele>
        <time>2026-08-02T22:21:53.939Z</time>
      </trkpt>
      <trkpt lat="52.343480" lon="6.097308">
        <ele>3.613384</ele>
        <time>2026-08-02T22:21:56.489Z</time>
      </trkpt>
      <trkpt lat="52.342970" lon="6.096886">
        <ele>3.650359</ele>
        <time>2026-08-02T22:22:05.795Z</time>
      </trkpt>
      <trkpt lat="52.342816" lon="6.096759">
        <ele>3.679082</ele>
        <time>2026-08-02T22:22:08.662Z</time>
      </trkpt>
      <trkpt lat="52.342303" lon="6.096338">
        <ele>3.774666</ele>
        <time>2026-08-02T22:22:17.944Z</time>
      </trkpt>
      <trkpt lat="52.341911" lon="6.096016">
        <ele>3.847720</ele>
        <time>2026-08-02T22:22:24.668Z</time>
      </trkpt>
      <trkpt lat="52.340950" lon="6.095210">
        <ele>3.855305</ele>
        <time>2026-08-02T22:22:40.229Z</time>
      </trkpt>
      <trkpt lat="52.340550" lon="6.094900">
        <ele>3.792361</ele>
        <time>2026-08-02T22:22:46.416Z</time>
      </trkpt>
      <trkpt lat="52.340287" lon="6.094788">
        <ele>3.753711</ele>
        <time>2026-08-02T22:22:50.285Z</time>
      </trkpt>
      <trkpt lat="52.339793" lon="6.094708">
        <ele>3.683111</ele>
        <time>2026-08-02T22:22:57.389Z</time>
      </trkpt>
      <trkpt lat="52.339212" lon="6.094460">
        <ele>3.679352</ele>
        <time>2026-08-02T22:23:05.998Z</time>
      </trkpt>
      <trkpt lat="52.338399" lon="6.094441">
        <ele>3.680075</ele>
        <time>2026-08-02T22:23:17.958Z</time>
      </trkpt>
      <trkpt lat="52.338113" lon="6.094397">
        <ele>3.680331</ele>
        <time>2026-08-02T22:23:22.325Z</time>
      </trkpt>
      <trkpt lat="52.337780" lon="6.094290">
        <ele>3.795616</ele>
        <time>2026-08-02T22:23:27.601Z</time>
      </trkpt>
      <trkpt lat="52.337311" lon="6.093976">
        <ele>4.071557</ele>
        <time>2026-08-02T22:23:36.156Z</time>
      </trkpt>
      <trkpt lat="52.336738" lon="6.093360">
        <ele>4.444884</ele>
        <time>2026-08-02T22:23:48.577Z</time>
      </trkpt>
      <trkpt lat="52.336306" lon="6.092932">
        <ele>4.657239</ele>
        <time>2026-08-02T22:23:57.370Z</time>
      </trkpt>
      <trkpt lat="52.335664" lon="6.092491">
        <ele>4.640359</ele>
        <time>2026-08-02T22:24:08.353Z</time>
      </trkpt>
      <trkpt lat="52.334229" lon="6.091842">
        <ele>4.481359</ele>
        <time>2026-08-02T22:24:28.646Z</time>
      </trkpt>
      <trkpt lat="52.334046" lon="6.091761">
        <ele>4.429838</ele>
        <time>2026-08-02T22:24:31.307Z</time>
      </trkpt>
      <trkpt lat="52.333427" lon="6.091508">
        <ele>4.256442</ele>
        <time>2026-08-02T22:24:40.275Z</time>
      </trkpt>
      <trkpt lat="52.332916" lon="6.091297">
        <ele>4.105852</ele>
        <time>2026-08-02T22:24:47.735Z</time>
      </trkpt>
      <trkpt lat="52.332259" lon="6.091171">
        <ele>3.833312</ele>
        <time>2026-08-02T22:24:56.479Z</time>
      </trkpt>
      <trkpt lat="52.332020" lon="6.091075">
        <ele>3.731920</ele>
        <time>2026-08-02T22:24:59.654Z</time>
      </trkpt>
      <trkpt lat="52.331432" lon="6.090696">
        <ele>3.471546</ele>
        <time>2026-08-02T22:25:08.054Z</time>
      </trkpt>
      <trkpt lat="52.330685" lon="6.090104">
        <ele>3.346238</ele>
        <time>2026-08-02T22:25:19.661Z</time>
      </trkpt>
      <trkpt lat="52.330100" lon="6.089338">
        <ele>3.297935</ele>
        <time>2026-08-02T22:25:30.834Z</time>
      </trkpt>
      <trkpt lat="52.329867" lon="6.089077">
        <ele>3.279731</ele>
        <time>2026-08-02T22:25:35.160Z</time>
      </trkpt>
      <trkpt lat="52.329469" lon="6.088817">
        <ele>3.343370</ele>
        <time>2026-08-02T22:25:41.806Z</time>
      </trkpt>
      <trkpt lat="52.328650" lon="6.088386">
        <ele>3.563505</ele>
        <time>2026-08-02T22:25:55.407Z</time>
      </trkpt>
      <trkpt lat="52.327763" lon="6.088025">
        <ele>3.806534</ele>
        <time>2026-08-02T22:26:10.240Z</time>
      </trkpt>
      <trkpt lat="52.327115" lon="6.087856">
        <ele>3.997475</ele>
        <time>2026-08-02T22:26:21.291Z</time>
      </trkpt>
      <trkpt lat="52.326328" lon="6.087740">
        <ele>4.227410</ele>
        <time>2026-08-02T22:26:33.698Z</time>
      </trkpt>
      <trkpt lat="52.326186" lon="6.087723">
        <ele>4.257486</ele>
        <time>2026-08-02T22:26:35.855Z</time>
      </trkpt>
      <trkpt lat="52.325748" lon="6.087683">
        <ele>4.286884</ele>
        <time>2026-08-02T22:26:42.402Z</time>
      </trkpt>
      <trkpt lat="52.325575" lon="6.087700">
        <ele>4.298498</ele>
        <time>2026-08-02T22:26:44.946Z</time>
      </trkpt>
      <trkpt lat="52.324843" lon="6.087983">
        <ele>4.348904</ele>
        <time>2026-08-02T22:26:55.915Z</time>
      </trkpt>
      <trkpt lat="52.324279" lon="6.088246">
        <ele>4.392793</ele>
        <time>2026-08-02T22:27:05.035Z</time>
      </trkpt>
      <trkpt lat="52.323637" lon="6.088654">
        <ele>4.454538</ele>
        <time>2026-08-02T22:27:15.814Z</time>
      </trkpt>
      <trkpt lat="52.322809" lon="6.089241">
        <ele>4.535438</ele>
        <time>2026-08-02T22:27:29.284Z</time>
      </trkpt>
      <trkpt lat="52.322592" lon="6.089322">
        <ele>4.541615</ele>
        <time>2026-08-02T22:27:32.560Z</time>
      </trkpt>
      <trkpt lat="52.322318" lon="6.089328">
        <ele>4.548841</ele>
        <time>2026-08-02T22:27:36.630Z</time>
      </trkpt>
      <trkpt lat="52.321323" lon="6.089119">
        <ele>4.575293</ele>
        <time>2026-08-02T22:27:51.764Z</time>
      </trkpt>
      <trkpt lat="52.321100" lon="6.089090">
        <ele>4.581192</ele>
        <time>2026-08-02T22:27:55.152Z</time>
      </trkpt>
      <trkpt lat="52.320880" lon="6.089123">
        <ele>4.546006</ele>
        <time>2026-08-02T22:27:58.424Z</time>
      </trkpt>
      <trkpt lat="52.320370" lon="6.089287">
        <ele>4.408418</ele>
        <time>2026-08-02T22:28:05.853Z</time>
      </trkpt>
      <trkpt lat="52.320141" lon="6.089243">
        <ele>4.347382</ele>
        <time>2026-08-02T22:28:09.037Z</time>
      </trkpt>
      <trkpt lat="52.318860" lon="6.088677">
        <ele>4.034330</ele>
        <time>2026-08-02T22:28:26.896Z</time>
      </trkpt>
      <trkpt lat="52.317814" lon="6.088031">
        <ele>3.840179</ele>
        <time>2026-08-02T22:28:42.725Z</time>
      </trkpt>
      <trkpt lat="52.317456" lon="6.087919">
        <ele>3.835001</ele>
        <time>2026-08-02T22:28:48.176Z</time>
      </trkpt>
      <trkpt lat="52.316533" lon="6.087591">
        <ele>4.201967</ele>
        <time>2026-08-02T22:29:03.822Z</time>
      </trkpt>
      <trkpt lat="52.316264" lon="6.087512">
        <ele>4.308150</ele>
        <time>2026-08-02T22:29:08.481Z</time>
      </trkpt>
      <trkpt lat="52.315851" lon="6.087459">
        <ele>4.469101</ele>
        <time>2026-08-02T22:29:15.468Z</time>
      </trkpt>
      <trkpt lat="52.315693" lon="6.087513">
        <ele>4.493933</ele>
        <time>2026-08-02T22:29:18.153Z</time>
      </trkpt>
      <trkpt lat="52.315590" lon="6.087588">
        <ele>4.494263</ele>
        <time>2026-08-02T22:29:20.016Z</time>
      </trkpt>
      <trkpt lat="52.315226" lon="6.087972">
        <ele>4.495535</ele>
        <time>2026-08-02T22:29:26.962Z</time>
      </trkpt>
      <trkpt lat="52.314769" lon="6.088326">
        <ele>4.497018</ele>
        <time>2026-08-02T22:29:34.345Z</time>
      </trkpt>
      <trkpt lat="52.314280" lon="6.088626">
        <ele>4.498551</ele>
        <time>2026-08-02T22:29:41.469Z</time>
      </trkpt>
      <trkpt lat="52.313451" lon="6.089376">
        <ele>4.482325</ele>
        <time>2026-08-02T22:29:54.586Z</time>
      </trkpt>
      <trkpt lat="52.313166" lon="6.089570">
        <ele>4.476082</ele>
        <time>2026-08-02T22:29:59.133Z</time>
      </trkpt>
      <trkpt lat="52.312630" lon="6.089817">
        <ele>4.464820</ele>
        <time>2026-08-02T22:30:07.774Z</time>
      </trkpt>
      <trkpt lat="52.311760" lon="6.090390">
        <ele>4.659662</ele>
        <time>2026-08-02T22:30:22.902Z</time>
      </trkpt>
      <trkpt lat="52.310835" lon="6.091108">
        <ele>4.899300</ele>
        <time>2026-08-02T22:30:39.128Z</time>
      </trkpt>
      <trkpt lat="52.309924" lon="6.091679">
        <ele>5.039216</ele>
        <time>2026-08-02T22:30:54.170Z</time>
      </trkpt>
      <trkpt lat="52.309748" lon="6.091759">
        <ele>5.065414</ele>
        <time>2026-08-02T22:30:57.001Z</time>
      </trkpt>
      <trkpt lat="52.309388" lon="6.091686">
        <ele>5.117439</ele>
        <time>2026-08-02T22:31:02.549Z</time>
      </trkpt>
      <trkpt lat="52.308977" lon="6.091594">
        <ele>5.126302</ele>
        <time>2026-08-02T22:31:08.832Z</time>
      </trkpt>
      <trkpt lat="52.307690" lon="6.091440">
        <ele>4.963771</ele>
        <time>2026-08-02T22:31:27.412Z</time>
      </trkpt>
      <trkpt lat="52.307242" lon="6.091439">
        <ele>4.897274</ele>
        <time>2026-08-02T22:31:33.683Z</time>
      </trkpt>
      <trkpt lat="52.306793" lon="6.091495">
        <ele>4.805061</ele>
        <time>2026-08-02T22:31:40.027Z</time>
      </trkpt>
      <trkpt lat="52.306250" lon="6.091468">
        <ele>4.693815</ele>
        <time>2026-08-02T22:31:47.581Z</time>
      </trkpt>
      <trkpt lat="52.305799" lon="6.091389">
        <ele>4.600932</ele>
        <time>2026-08-02T22:31:53.932Z</time>
      </trkpt>
      <trkpt lat="52.305555" lon="6.091374">
        <ele>4.552022</ele>
        <time>2026-08-02T22:31:57.376Z</time>
      </trkpt>
      <trkpt lat="52.305155" lon="6.091460">
        <ele>4.490976</ele>
        <time>2026-08-02T22:32:03.064Z</time>
      </trkpt>
      <trkpt lat="52.304430" lon="6.091788">
        <ele>4.377153</ele>
        <time>2026-08-02T22:32:13.562Z</time>
      </trkpt>
      <trkpt lat="52.304213" lon="6.091919">
        <ele>4.342152</ele>
        <time>2026-08-02T22:32:16.899Z</time>
      </trkpt>
      <trkpt lat="52.303928" lon="6.092122">
        <ele>4.295115</ele>
        <time>2026-08-02T22:32:21.478Z</time>
      </trkpt>
      <trkpt lat="52.303780" lon="6.092280">
        <ele>4.289977</ele>
        <time>2026-08-02T22:32:24.107Z</time>
      </trkpt>
      <trkpt lat="52.303670" lon="6.092450">
        <ele>4.301010</ele>
        <time>2026-08-02T22:32:26.330Z</time>
      </trkpt>
      <trkpt lat="52.303561" lon="6.092723">
        <ele>4.315544</ele>
        <time>2026-08-02T22:32:29.270Z</time>
      </trkpt>
      <trkpt lat="52.303412" lon="6.093085">
        <ele>4.334996</ele>
        <time>2026-08-02T22:32:33.280Z</time>
      </trkpt>
      <trkpt lat="52.303268" lon="6.093281">
        <ele>4.348654</ele>
        <time>2026-08-02T22:32:36.108Z</time>
      </trkpt>
      <trkpt lat="52.303231" lon="6.093306">
        <ele>4.351572</ele>
        <time>2026-08-02T22:32:36.724Z</time>
      </trkpt>
      <trkpt lat="52.303083" lon="6.093402">
        <ele>4.363179</ele>
        <time>2026-08-02T22:32:39.156Z</time>
      </trkpt>
      <trkpt lat="52.302871" lon="6.093458">
        <ele>4.378834</ele>
        <time>2026-08-02T22:32:42.476Z</time>
      </trkpt>
      <trkpt lat="52.302157" lon="6.093480">
        <ele>4.446346</ele>
        <time>2026-08-02T22:32:53.624Z</time>
      </trkpt>
      <trkpt lat="52.301514" lon="6.093660">
        <ele>4.537590</ele>
        <time>2026-08-02T22:33:03.618Z</time>
      </trkpt>
      <trkpt lat="52.301240" lon="6.093694">
        <ele>4.576024</ele>
        <time>2026-08-02T22:33:07.854Z</time>
      </trkpt>
      <trkpt lat="52.300334" lon="6.093743">
        <ele>4.695828</ele>
        <time>2026-08-02T22:33:21.673Z</time>
      </trkpt>
      <trkpt lat="52.300068" lon="6.093635">
        <ele>4.726958</ele>
        <time>2026-08-02T22:33:25.932Z</time>
      </trkpt>
      <trkpt lat="52.299783" lon="6.093568">
        <ele>4.759661</ele>
        <time>2026-08-02T22:33:30.416Z</time>
      </trkpt>
      <trkpt lat="52.299613" lon="6.093646">
        <ele>4.779716</ele>
        <time>2026-08-02T22:33:33.188Z</time>
      </trkpt>
      <trkpt lat="52.299248" lon="6.094155">
        <ele>4.834201</ele>
        <time>2026-08-02T22:33:40.635Z</time>
      </trkpt>
      <trkpt lat="52.299163" lon="6.094231">
        <ele>4.845204</ele>
        <time>2026-08-02T22:33:42.104Z</time>
      </trkpt>
      <trkpt lat="52.298500" lon="6.094430">
        <ele>4.833717</ele>
        <time>2026-08-02T22:33:52.075Z</time>
      </trkpt>
      <trkpt lat="52.298000" lon="6.094480">
        <ele>4.793955</ele>
        <time>2026-08-02T22:33:59.211Z</time>
      </trkpt>
      <trkpt lat="52.297830" lon="6.094590">
        <ele>4.779443</ele>
        <time>2026-08-02T22:34:01.792Z</time>
      </trkpt>
      <trkpt lat="52.297410" lon="6.095000">
        <ele>4.740617</ele>
        <time>2026-08-02T22:34:08.720Z</time>
      </trkpt>
      <trkpt lat="52.295933" lon="6.095904">
        <ele>4.743929</ele>
        <time>2026-08-02T22:34:32.210Z</time>
      </trkpt>
      <trkpt lat="52.295590" lon="6.096080">
        <ele>4.748210</ele>
        <time>2026-08-02T22:34:37.570Z</time>
      </trkpt>
      <trkpt lat="52.295316" lon="6.096368">
        <ele>4.811456</ele>
        <time>2026-08-02T22:34:42.479Z</time>
      </trkpt>
      <trkpt lat="52.295242" lon="6.096477">
        <ele>4.832737</ele>
        <time>2026-08-02T22:34:44.040Z</time>
      </trkpt>
      <trkpt lat="52.295149" lon="6.096565">
        <ele>4.855696</ele>
        <time>2026-08-02T22:34:45.679Z</time>
      </trkpt>
      <trkpt lat="52.295006" lon="6.096622">
        <ele>4.887145</ele>
        <time>2026-08-02T22:34:47.976Z</time>
      </trkpt>
      <trkpt lat="52.294709" lon="6.096624">
        <ele>4.950605</ele>
        <time>2026-08-02T22:34:52.807Z</time>
      </trkpt>
      <trkpt lat="52.294545" lon="6.096670">
        <ele>4.986159</ele>
        <time>2026-08-02T22:34:55.563Z</time>
      </trkpt>
      <trkpt lat="52.294365" lon="6.096821">
        <ele>5.029386</ele>
        <time>2026-08-02T22:34:58.877Z</time>
      </trkpt>
      <trkpt lat="52.294093" lon="6.097424">
        <ele>5.127300</ele>
        <time>2026-08-02T22:35:06.055Z</time>
      </trkpt>
      <trkpt lat="52.294030" lon="6.097480">
        <ele>5.126463</ele>
        <time>2026-08-02T22:35:07.169Z</time>
      </trkpt>
      <trkpt lat="52.293864" lon="6.097522">
        <ele>5.102715</ele>
        <time>2026-08-02T22:35:09.751Z</time>
      </trkpt>
      <trkpt lat="52.293647" lon="6.097470">
        <ele>5.071709</ele>
        <time>2026-08-02T22:35:13.092Z</time>
      </trkpt>
      <trkpt lat="52.292732" lon="6.097148">
        <ele>4.939388</ele>
        <time>2026-08-02T22:35:26.358Z</time>
      </trkpt>
      <trkpt lat="52.292589" lon="6.097142">
        <ele>4.919165</ele>
        <time>2026-08-02T22:35:28.255Z</time>
      </trkpt>
      <trkpt lat="52.292437" lon="6.097213">
        <ele>4.896816</ele>
        <time>2026-08-02T22:35:30.374Z</time>
      </trkpt>
      <trkpt lat="52.292361" lon="6.097361">
        <ele>4.880106</ele>
        <time>2026-08-02T22:35:31.961Z</time>
      </trkpt>
      <trkpt lat="52.292309" lon="6.097626">
        <ele>4.849828</ele>
        <time>2026-08-02T22:35:34.246Z</time>
      </trkpt>
      <trkpt lat="52.292187" lon="6.098535">
        <ele>4.747209</ele>
        <time>2026-08-02T22:35:42.042Z</time>
      </trkpt>
      <trkpt lat="52.292156" lon="6.098872">
        <ele>4.709630</ele>
        <time>2026-08-02T22:35:44.937Z</time>
      </trkpt>
      <trkpt lat="52.292148" lon="6.099476">
        <ele>4.643012</ele>
        <time>2026-08-02T22:35:50.212Z</time>
      </trkpt>
      <trkpt lat="52.292112" lon="6.099566">
        <ele>4.631153</ele>
        <time>2026-08-02T22:35:51.173Z</time>
      </trkpt>
      <trkpt lat="52.291640" lon="6.100260">
        <ele>4.585479</ele>
        <time>2026-08-02T22:36:00.721Z</time>
      </trkpt>
      <trkpt lat="52.291529" lon="6.100399">
        <ele>4.606335</ele>
        <time>2026-08-02T22:36:02.894Z</time>
      </trkpt>
      <trkpt lat="52.291309" lon="6.100590">
        <ele>4.643490</ele>
        <time>2026-08-02T22:36:06.850Z</time>
      </trkpt>
      <trkpt lat="52.290990" lon="6.100780">
        <ele>4.694131</ele>
        <time>2026-08-02T22:36:12.244Z</time>
      </trkpt>
      <trkpt lat="52.290187" lon="6.100997">
        <ele>4.815533</ele>
        <time>2026-08-02T22:36:24.798Z</time>
      </trkpt>
      <trkpt lat="52.290005" lon="6.101059">
        <ele>4.835235</ele>
        <time>2026-08-02T22:36:27.620Z</time>
      </trkpt>
      <trkpt lat="52.289384" lon="6.101383">
        <ele>4.894630</ele>
        <time>2026-08-02T22:36:37.435Z</time>
      </trkpt>
      <trkpt lat="52.288826" lon="6.101503">
        <ele>4.945911</ele>
        <time>2026-08-02T22:36:45.837Z</time>
      </trkpt>
      <trkpt lat="52.287722" lon="6.102090">
        <ele>5.067977</ele>
        <time>2026-08-02T22:37:04.020Z</time>
      </trkpt>
      <trkpt lat="52.287130" lon="6.102416">
        <ele>5.139121</ele>
        <time>2026-08-02T22:37:13.492Z</time>
      </trkpt>
      <trkpt lat="52.286825" lon="6.102591">
        <ele>5.175934</ele>
        <time>2026-08-02T22:37:18.343Z</time>
      </trkpt>
      <trkpt lat="52.286622" lon="6.102824">
        <ele>5.198727</ele>
        <time>2026-08-02T22:37:22.027Z</time>
      </trkpt>
      <trkpt lat="52.286545" lon="6.102937">
        <ele>5.205497</ele>
        <time>2026-08-02T22:37:23.556Z</time>
      </trkpt>
      <trkpt lat="52.286387" lon="6.103097">
        <ele>5.217658</ele>
        <time>2026-08-02T22:37:26.300Z</time>
      </trkpt>
      <trkpt lat="52.286228" lon="6.103196">
        <ele>5.228790</ele>
        <time>2026-08-02T22:37:28.815Z</time>
      </trkpt>
      <trkpt lat="52.285482" lon="6.103452">
        <ele>5.278664</ele>
        <time>2026-08-02T22:37:40.280Z</time>
      </trkpt>
      <trkpt lat="52.285156" lon="6.103635">
        <ele>5.301217</ele>
        <time>2026-08-02T22:37:45.546Z</time>
      </trkpt>
      <trkpt lat="52.284692" lon="6.103930">
        <ele>5.318912</ele>
        <time>2026-08-02T22:37:53.253Z</time>
      </trkpt>
      <trkpt lat="52.284485" lon="6.104023">
        <ele>5.324513</ele>
        <time>2026-08-02T22:37:56.474Z</time>
      </trkpt>
      <trkpt lat="52.283799" lon="6.104331">
        <ele>5.343073</ele>
        <time>2026-08-02T22:38:07.021Z</time>
      </trkpt>
      <trkpt lat="52.283739" lon="6.104385">
        <ele>5.344860</ele>
        <time>2026-08-02T22:38:08.040Z</time>
      </trkpt>
      <trkpt lat="52.283483" lon="6.104647">
        <ele>5.352740</ele>
        <time>2026-08-02T22:38:12.507Z</time>
      </trkpt>
      <trkpt lat="52.283321" lon="6.104772">
        <ele>5.351634</ele>
        <time>2026-08-02T22:38:15.123Z</time>
      </trkpt>
      <trkpt lat="52.282891" lon="6.104965">
        <ele>5.316690</ele>
        <time>2026-08-02T22:38:21.545Z</time>
      </trkpt>
      <trkpt lat="52.282431" lon="6.105059">
        <ele>5.280362</ele>
        <time>2026-08-02T22:38:28.127Z</time>
      </trkpt>
      <trkpt lat="52.281398" lon="6.105162">
        <ele>5.226763</ele>
        <time>2026-08-02T22:38:43.380Z</time>
      </trkpt>
      <trkpt lat="52.280481" lon="6.105231">
        <ele>5.280366</ele>
        <time>2026-08-02T22:38:57.166Z</time>
      </trkpt>
      <trkpt lat="52.280313" lon="6.105295">
        <ele>5.290439</ele>
        <time>2026-08-02T22:38:59.774Z</time>
      </trkpt>
      <trkpt lat="52.280119" lon="6.105455">
        <ele>5.303127</ele>
        <time>2026-08-02T22:39:03.075Z</time>
      </trkpt>
      <trkpt lat="52.279965" lon="6.105628">
        <ele>5.314039</ele>
        <time>2026-08-02T22:39:05.893Z</time>
      </trkpt>
      <trkpt lat="52.279884" lon="6.105767">
        <ele>5.321709</ele>
        <time>2026-08-02T22:39:07.671Z</time>
      </trkpt>
      <trkpt lat="52.279696" lon="6.106386">
        <ele>5.370011</ele>
        <time>2026-08-02T22:39:14.056Z</time>
      </trkpt>
      <trkpt lat="52.279604" lon="6.106580">
        <ele>5.387166</ele>
        <time>2026-08-02T22:39:16.333Z</time>
      </trkpt>
      <trkpt lat="52.279075" lon="6.107247">
        <ele>5.463492</ele>
        <time>2026-08-02T22:39:26.542Z</time>
      </trkpt>
      <trkpt lat="52.277670" lon="6.109196">
        <ele>5.702120</ele>
        <time>2026-08-02T22:39:55.245Z</time>
      </trkpt>
      <trkpt lat="52.277522" lon="6.109375">
        <ele>5.727134</ele>
        <time>2026-08-02T22:39:58.046Z</time>
      </trkpt>
      <trkpt lat="52.277278" lon="6.109557">
        <ele>5.763573</ele>
        <time>2026-08-02T22:40:02.063Z</time>
      </trkpt>
      <trkpt lat="52.276834" lon="6.109666">
        <ele>5.683903</ele>
        <time>2026-08-02T22:40:08.637Z</time>
      </trkpt>
      <trkpt lat="52.276576" lon="6.109700">
        <ele>5.628599</ele>
        <time>2026-08-02T22:40:12.344Z</time>
      </trkpt>
      <trkpt lat="52.276503" lon="6.109759">
        <ele>5.611199</ele>
        <time>2026-08-02T22:40:13.478Z</time>
      </trkpt>
      <trkpt lat="52.276399" lon="6.109962">
        <ele>5.576586</ele>
        <time>2026-08-02T22:40:15.738Z</time>
      </trkpt>
      <trkpt lat="52.276283" lon="6.110295">
        <ele>5.526491</ele>
        <time>2026-08-02T22:40:18.998Z</time>
      </trkpt>
      <trkpt lat="52.276144" lon="6.110901">
        <ele>5.441884</ele>
        <time>2026-08-02T22:40:24.449Z</time>
      </trkpt>
      <trkpt lat="52.276055" lon="6.111122">
        <ele>5.407296</ele>
        <time>2026-08-02T22:40:26.645Z</time>
      </trkpt>
      <trkpt lat="52.275268" lon="6.112071">
        <ele>5.218041</ele>
        <time>2026-08-02T22:40:39.970Z</time>
      </trkpt>
      <trkpt lat="52.274986" lon="6.112390">
        <ele>5.152477</ele>
        <time>2026-08-02T22:40:44.778Z</time>
      </trkpt>
      <trkpt lat="52.274632" lon="6.112712">
        <ele>5.075027</ele>
        <time>2026-08-02T22:40:50.633Z</time>
      </trkpt>
      <trkpt lat="52.273767" lon="6.113439">
        <ele>5.138782</ele>
        <time>2026-08-02T22:41:05.696Z</time>
      </trkpt>
      <trkpt lat="52.273125" lon="6.113929">
        <ele>5.224886</ele>
        <time>2026-08-02T22:41:16.722Z</time>
      </trkpt>
      <trkpt lat="52.273073" lon="6.113950">
        <ele>5.231395</ele>
        <time>2026-08-02T22:41:17.536Z</time>
      </trkpt>
      <trkpt lat="52.272413" lon="6.114229">
        <ele>5.235615</ele>
        <time>2026-08-02T22:41:27.665Z</time>
      </trkpt>
      <trkpt lat="52.271897" lon="6.114484">
        <ele>5.205614</ele>
        <time>2026-08-02T22:41:35.482Z</time>
      </trkpt>
      <trkpt lat="52.271482" lon="6.114806">
        <ele>5.180048</ele>
        <time>2026-08-02T22:41:42.103Z</time>
      </trkpt>
      <trkpt lat="52.270934" lon="6.115246">
        <ele>5.160196</ele>
        <time>2026-08-02T22:41:50.958Z</time>
      </trkpt>
      <trkpt lat="52.270080" lon="6.115766">
        <ele>5.160135</ele>
        <time>2026-08-02T22:42:04.852Z</time>
      </trkpt>
      <trkpt lat="52.269498" lon="6.116288">
        <ele>5.157592</ele>
        <time>2026-08-02T22:42:14.629Z</time>
      </trkpt>
      <trkpt lat="52.269050" lon="6.116652">
        <ele>5.116960</ele>
        <time>2026-08-02T22:42:21.805Z</time>
      </trkpt>
      <trkpt lat="52.267956" lon="6.117042">
        <ele>5.026025</ele>
        <time>2026-08-02T22:42:37.816Z</time>
      </trkpt>
      <trkpt lat="52.267043" lon="6.117334">
        <ele>5.020162</ele>
        <time>2026-08-02T22:42:51.559Z</time>
      </trkpt>
      <trkpt lat="52.266807" lon="6.117410">
        <ele>5.022050</ele>
        <time>2026-08-02T22:42:55.148Z</time>
      </trkpt>
      <trkpt lat="52.265798" lon="6.117564">
        <ele>5.048694</ele>
        <time>2026-08-02T22:43:10.292Z</time>
      </trkpt>
      <trkpt lat="52.265473" lon="6.117706">
        <ele>5.077776</ele>
        <time>2026-08-02T22:43:15.456Z</time>
      </trkpt>
      <trkpt lat="52.265283" lon="6.117866">
        <ele>5.096254</ele>
        <time>2026-08-02T22:43:18.757Z</time>
      </trkpt>
      <trkpt lat="52.264907" lon="6.118367">
        <ele>5.138195</ele>
        <time>2026-08-02T22:43:26.264Z</time>
      </trkpt>
      <trkpt lat="52.264675" lon="6.118788">
        <ele>5.168167</ele>
        <time>2026-08-02T22:43:31.547Z</time>
      </trkpt>
      <trkpt lat="52.264227" lon="6.119895">
        <ele>5.056895</ele>
        <time>2026-08-02T22:43:43.424Z</time>
      </trkpt>
      <trkpt lat="52.263970" lon="6.120537">
        <ele>4.962966</ele>
        <time>2026-08-02T22:43:49.984Z</time>
      </trkpt>
      <trkpt lat="52.263381" lon="6.121894">
        <ele>4.805900</ele>
        <time>2026-08-02T22:44:04.042Z</time>
      </trkpt>
      <trkpt lat="52.262921" lon="6.123034">
        <ele>4.759549</ele>
        <time>2026-08-02T22:44:16.135Z</time>
      </trkpt>
      <trkpt lat="52.262770" lon="6.123400">
        <ele>4.744566</ele>
        <time>2026-08-02T22:44:20.106Z</time>
      </trkpt>
      <trkpt lat="52.262652" lon="6.123609">
        <ele>4.734913</ele>
        <time>2026-08-02T22:44:22.684Z</time>
      </trkpt>
      <trkpt lat="52.262223" lon="6.124048">
        <ele>4.777876</ele>
        <time>2026-08-02T22:44:30.287Z</time>
      </trkpt>
      <trkpt lat="52.262172" lon="6.124096">
        <ele>4.788102</ele>
        <time>2026-08-02T22:44:31.183Z</time>
      </trkpt>
      <trkpt lat="52.261359" lon="6.124981">
        <ele>4.957834</ele>
        <time>2026-08-02T22:44:46.767Z</time>
      </trkpt>
      <trkpt lat="52.260718" lon="6.125703">
        <ele>5.024578</ele>
        <time>2026-08-02T22:44:58.777Z</time>
      </trkpt>
      <trkpt lat="52.260230" lon="6.126240">
        <ele>5.002984</ele>
        <time>2026-08-02T22:45:07.606Z</time>
      </trkpt>
      <trkpt lat="52.259830" lon="6.126599">
        <ele>4.986235</ele>
        <time>2026-08-02T22:45:14.266Z</time>
      </trkpt>
      <trkpt lat="52.259402" lon="6.126902">
        <ele>4.954212</ele>
        <time>2026-08-02T22:45:20.853Z</time>
      </trkpt>
      <trkpt lat="52.259283" lon="6.126967">
        <ele>4.900640</ele>
        <time>2026-08-02T22:45:22.594Z</time>
      </trkpt>
      <trkpt lat="52.259151" lon="6.127039">
        <ele>4.841225</ele>
        <time>2026-08-02T22:45:24.502Z</time>
      </trkpt>
      <trkpt lat="52.258742" lon="6.127194">
        <ele>4.661966</ele>
        <time>2026-08-02T22:45:30.210Z</time>
      </trkpt>
      <trkpt lat="52.258744" lon="6.127276">
        <ele>4.640519</ele>
        <time>2026-08-02T22:45:30.877Z</time>
      </trkpt>
      <trkpt lat="52.258489" lon="6.127379">
        <ele>4.528369</ele>
        <time>2026-08-02T22:45:34.423Z</time>
      </trkpt>
      <trkpt lat="52.258092" lon="6.127546">
        <ele>4.353341</ele>
        <time>2026-08-02T22:45:39.854Z</time>
      </trkpt>
      <trkpt lat="52.257890" lon="6.127694">
        <ele>4.258821</ele>
        <time>2026-08-02T22:45:42.749Z</time>
      </trkpt>
      <trkpt lat="52.257658" lon="6.127918">
        <ele>4.164120</ele>
        <time>2026-08-02T22:45:46.258Z</time>
      </trkpt>
      <trkpt lat="52.257385" lon="6.128347">
        <ele>4.058361</ele>
        <time>2026-08-02T22:45:51.196Z</time>
      </trkpt>
      <trkpt lat="52.257173" lon="6.128873">
        <ele>3.950730</ele>
        <time>2026-08-02T22:45:56.445Z</time>
      </trkpt>
      <trkpt lat="52.256769" lon="6.130115">
        <ele>3.710360</ele>
        <time>2026-08-02T22:46:08.784Z</time>
      </trkpt>
      <trkpt lat="52.256538" lon="6.130739">
        <ele>3.773837</ele>
        <time>2026-08-02T22:46:15.488Z</time>
      </trkpt>
      <trkpt lat="52.256200" lon="6.131393">
        <ele>3.867500</ele>
        <time>2026-08-02T22:46:23.617Z</time>
      </trkpt>
      <trkpt lat="52.255369" lon="6.132655">
        <ele>4.053147</ele>
        <time>2026-08-02T22:46:41.887Z</time>
      </trkpt>
      <trkpt lat="52.255038" lon="6.133145">
        <ele>4.104637</ele>
        <time>2026-08-02T22:46:48.860Z</time>
      </trkpt>
      <trkpt lat="52.254832" lon="6.133511">
        <ele>4.139721</ele>
        <time>2026-08-02T22:46:53.467Z</time>
      </trkpt>
      <trkpt lat="52.254432" lon="6.134324">
        <ele>4.213322</ele>
        <time>2026-08-02T22:47:02.996Z</time>
      </trkpt>
      <trkpt lat="52.254172" lon="6.134852">
        <ele>4.223416</ele>
        <time>2026-08-02T22:47:09.014Z</time>
      </trkpt>
      <trkpt lat="52.253904" lon="6.135586">
        <ele>4.212314</ele>
        <time>2026-08-02T22:47:16.621Z</time>
      </trkpt>
      <trkpt lat="52.253521" lon="6.136824">
        <ele>4.194296</ele>
        <time>2026-08-02T22:47:29.286Z</time>
      </trkpt>
      <trkpt lat="52.253324" lon="6.137574">
        <ele>4.117611</ele>
        <time>2026-08-02T22:47:36.721Z</time>
      </trkpt>
      <trkpt lat="52.253272" lon="6.137879">
        <ele>4.076867</ele>
        <time>2026-08-02T22:47:39.497Z</time>
      </trkpt>
      <trkpt lat="52.253249" lon="6.138525">
        <ele>3.993594</ele>
        <time>2026-08-02T22:47:44.955Z</time>
      </trkpt>
      <trkpt lat="52.253265" lon="6.138865">
        <ele>3.949711</ele>
        <time>2026-08-02T22:47:47.693Z</time>
      </trkpt>
      <trkpt lat="52.253408" lon="6.140068">
        <ele>3.886023</ele>
        <time>2026-08-02T22:47:57.728Z</time>
      </trkpt>
      <trkpt lat="52.253409" lon="6.140682">
        <ele>4.160684</ele>
        <time>2026-08-02T22:48:03.933Z</time>
      </trkpt>
      <trkpt lat="52.253375" lon="6.141098">
        <ele>4.348424</ele>
        <time>2026-08-02T22:48:08.396Z</time>
      </trkpt>
      <trkpt lat="52.253068" lon="6.141857">
        <ele>4.755366</ele>
        <time>2026-08-02T22:48:18.862Z</time>
      </trkpt>
      <trkpt lat="52.252735" lon="6.142676">
        <ele>5.184842</ele>
        <time>2026-08-02T22:48:31.223Z</time>
      </trkpt>
      <trkpt lat="52.252454" lon="6.143239">
        <ele>5.460285</ele>
        <time>2026-08-02T22:48:39.813Z</time>
      </trkpt>
      <trkpt lat="52.252222" lon="6.143779">
        <ele>5.710440</ele>
        <time>2026-08-02T22:48:46.351Z</time>
      </trkpt>
      <trkpt lat="52.251963" lon="6.144292">
        <ele>5.962584</ele>
        <time>2026-08-02T22:48:52.665Z</time>
      </trkpt>
      <trkpt lat="52.251870" lon="6.144554">
        <ele>6.077425</ele>
        <time>2026-08-02T22:48:56.670Z</time>
      </trkpt>
      <trkpt lat="52.251591" lon="6.145476">
        <ele>6.367387</ele>
        <time>2026-08-02T22:49:10.470Z</time>
      </trkpt>
      <trkpt lat="52.251358" lon="6.146248">
        <ele>6.549308</ele>
        <time>2026-08-02T22:49:21.948Z</time>
      </trkpt>
      <trkpt lat="52.251123" lon="6.147015">
        <ele>6.730590</ele>
        <time>2026-08-02T22:49:33.001Z</time>
      </trkpt>
      <trkpt lat="52.250673" lon="6.148529">
        <ele>7.030201</ele>
        <time>2026-08-02T22:49:55.547Z</time>
      </trkpt>
      <trkpt lat="52.250177" lon="6.150169">
        <ele>7.319947</ele>
        <time>2026-08-02T22:50:19.909Z</time>
      </trkpt>
      <trkpt lat="52.249833" lon="6.151313">
        <ele>6.792480</ele>
        <time>2026-08-02T22:50:34.586Z</time>
      </trkpt>
      <trkpt lat="52.249790" lon="6.151440">
        <ele>6.729075</ele>
        <time>2026-08-02T22:50:36.087Z</time>
      </trkpt>
      <trkpt lat="52.249711" lon="6.151629">
        <ele>6.629094</ele>
        <time>2026-08-02T22:50:38.425Z</time>
      </trkpt>
      <trkpt lat="52.249616" lon="6.151833">
        <ele>6.517115</ele>
        <time>2026-08-02T22:50:40.250Z</time>
      </trkpt>
      <trkpt lat="52.249486" lon="6.151991">
        <ele>6.401481</ele>
        <time>2026-08-02T22:50:42.127Z</time>
      </trkpt>
      <trkpt lat="52.248910" lon="6.152507">
        <ele>6.010832</ele>
        <time>2026-08-02T22:50:50.041Z</time>
      </trkpt>
      <trkpt lat="52.247747" lon="6.153558">
        <ele>5.726881</ele>
        <time>2026-08-02T22:51:08.667Z</time>
      </trkpt>
      <trkpt lat="52.247586" lon="6.153596">
        <ele>5.692129</ele>
        <time>2026-08-02T22:51:11.448Z</time>
      </trkpt>
      <trkpt lat="52.247462" lon="6.153683">
        <ele>5.663297</ele>
        <time>2026-08-02T22:51:14.471Z</time>
      </trkpt>
      <trkpt lat="52.247320" lon="6.153838">
        <ele>5.671515</ele>
        <time>2026-08-02T22:51:18.313Z</time>
      </trkpt>
      <trkpt lat="52.247254" lon="6.153906">
        <ele>5.677317</ele>
        <time>2026-08-02T22:51:20.028Z</time>
      </trkpt>
      <trkpt lat="52.247222" lon="6.153970">
        <ele>5.681079</ele>
        <time>2026-08-02T22:51:21.155Z</time>
      </trkpt>
      <trkpt lat="52.247131" lon="6.154278">
        <ele>5.696646</ele>
        <time>2026-08-02T22:51:24.618Z</time>
      </trkpt>
      <trkpt lat="52.246941" lon="6.154900">
        <ele>5.728290</ele>
        <time>2026-08-02T22:51:31.402Z</time>
      </trkpt>
      <trkpt lat="52.246845" lon="6.155126">
        <ele>5.740811</ele>
        <time>2026-08-02T22:51:33.917Z</time>
      </trkpt>
      <trkpt lat="52.246575" lon="6.155427">
        <ele>5.765117</ele>
        <time>2026-08-02T22:51:38.494Z</time>
      </trkpt>
      <trkpt lat="52.246156" lon="6.155818">
        <ele>5.777517</ele>
        <time>2026-08-02T22:51:45.201Z</time>
      </trkpt>
      <trkpt lat="52.245404" lon="6.156208">
        <ele>5.647283</ele>
        <time>2026-08-02T22:51:55.864Z</time>
      </trkpt>
      <trkpt lat="52.244053" lon="6.156894">
        <ele>5.471259</ele>
        <time>2026-08-02T22:52:17.057Z</time>
      </trkpt>
      <trkpt lat="52.241435" lon="6.158218">
        <ele>5.275146</ele>
        <time>2026-08-02T22:52:56.949Z</time>
      </trkpt>
      <trkpt lat="52.239442" lon="6.159219">
        <ele>4.928448</ele>
        <time>2026-08-02T22:53:26.610Z</time>
      </trkpt>
      <trkpt lat="52.238551" lon="6.159662">
        <ele>4.677107</ele>
        <time>2026-08-02T22:53:39.038Z</time>
      </trkpt>
      <trkpt lat="52.238251" lon="6.159653">
        <ele>4.594091</ele>
        <time>2026-08-02T22:53:43.160Z</time>
      </trkpt>
      <trkpt lat="52.236836" lon="6.158910">
        <ele>4.352516</ele>
        <time>2026-08-02T22:54:04.722Z</time>
      </trkpt>
      <trkpt lat="52.236627" lon="6.158849">
        <ele>4.336043</ele>
        <time>2026-08-02T22:54:07.879Z</time>
      </trkpt>
      <trkpt lat="52.235815" lon="6.158737">
        <ele>4.278382</ele>
        <time>2026-08-02T22:54:19.760Z</time>
      </trkpt>
      <trkpt lat="52.234932" lon="6.158549">
        <ele>4.270647</ele>
        <time>2026-08-02T22:54:32.700Z</time>
      </trkpt>
      <trkpt lat="52.234614" lon="6.158571">
        <ele>4.267883</ele>
        <time>2026-08-02T22:54:37.481Z</time>
      </trkpt>
      <trkpt lat="52.234337" lon="6.158676">
        <ele>4.265413</ele>
        <time>2026-08-02T22:54:41.779Z</time>
      </trkpt>
      <trkpt lat="52.233742" lon="6.158976">
        <ele>4.391908</ele>
        <time>2026-08-02T22:54:51.322Z</time>
      </trkpt>
      <trkpt lat="52.232971" lon="6.159017">
        <ele>4.640879</ele>
        <time>2026-08-02T22:55:03.433Z</time>
      </trkpt>
      <trkpt lat="52.231663" lon="6.159380">
        <ele>5.403908</ele>
        <time>2026-08-02T22:55:25.864Z</time>
      </trkpt>
      <trkpt lat="52.231306" lon="6.159479">
        <ele>5.694603</ele>
        <time>2026-08-02T22:55:32.910Z</time>
      </trkpt>
      <trkpt lat="52.231006" lon="6.159610">
        <ele>5.943900</ele>
        <time>2026-08-02T22:55:39.241Z</time>
      </trkpt>
      <trkpt lat="52.230100" lon="6.160157">
        <ele>6.224966</ele>
        <time>2026-08-02T22:55:56.439Z</time>
      </trkpt>
      <trkpt lat="52.229749" lon="6.160352">
        <ele>6.181570</ele>
        <time>2026-08-02T22:56:03.832Z</time>
      </trkpt>
      <trkpt lat="52.229318" lon="6.160621">
        <ele>6.127564</ele>
        <time>2026-08-02T22:56:09.843Z</time>
      </trkpt>
      <trkpt lat="52.229000" lon="6.160873">
        <ele>6.086192</ele>
        <time>2026-08-02T22:56:14.129Z</time>
      </trkpt>
      <trkpt lat="52.228668" lon="6.161064">
        <ele>5.985594</ele>
        <time>2026-08-02T22:56:18.397Z</time>
      </trkpt>
      <trkpt lat="52.224718" lon="6.163195">
        <ele>5.199077</ele>
        <time>2026-08-02T22:57:17.933Z</time>
      </trkpt>
      <trkpt lat="52.224351" lon="6.163323">
        <ele>5.189187</ele>
        <time>2026-08-02T22:57:23.487Z</time>
      </trkpt>
      <trkpt lat="52.224065" lon="6.163527">
        <ele>5.180962</ele>
        <time>2026-08-02T22:57:28.255Z</time>
      </trkpt>
      <trkpt lat="52.223150" lon="6.164680">
        <ele>5.097385</ele>
        <time>2026-08-02T22:57:45.642Z</time>
      </trkpt>
      <trkpt lat="52.222735" lon="6.165335">
        <ele>5.047486</ele>
        <time>2026-08-02T22:57:54.008Z</time>
      </trkpt>
      <trkpt lat="52.222637" lon="6.165428">
        <ele>5.037687</ele>
        <time>2026-08-02T22:57:55.574Z</time>
      </trkpt>
      <trkpt lat="52.222535" lon="6.165465">
        <ele>5.028655</ele>
        <time>2026-08-02T22:57:57.006Z</time>
      </trkpt>
      <trkpt lat="52.222522" lon="6.165610">
        <ele>5.020895</ele>
        <time>2026-08-02T22:57:58.224Z</time>
      </trkpt>
      <trkpt lat="52.222448" lon="6.165806">
        <ele>4.976550</ele>
        <time>2026-08-02T22:58:00.110Z</time>
      </trkpt>
      <trkpt lat="52.220844" lon="6.168437">
        <ele>4.300055</ele>
        <time>2026-08-02T22:58:30.806Z</time>
      </trkpt>
      <trkpt lat="52.220672" lon="6.168671">
        <ele>4.283699</ele>
        <time>2026-08-02T22:58:34.038Z</time>
      </trkpt>
      <trkpt lat="52.220580" lon="6.168753">
        <ele>4.276042</ele>
        <time>2026-08-02T22:58:35.575Z</time>
      </trkpt>
      <trkpt lat="52.218458" lon="6.170501">
        <ele>4.353742</ele>
        <time>2026-08-02T22:59:12.161Z</time>
      </trkpt>
      <trkpt lat="52.217760" lon="6.171040">
        <ele>4.372436</ele>
        <time>2026-08-02T22:59:23.572Z</time>
      </trkpt>
      <trkpt lat="52.216850" lon="6.171990">
        <ele>4.348455</ele>
        <time>2026-08-02T22:59:39.398Z</time>
      </trkpt>
      <trkpt lat="52.216700" lon="6.172190">
        <ele>4.344155</ele>
        <time>2026-08-02T22:59:42.287Z</time>
      </trkpt>
      <trkpt lat="52.216170" lon="6.173080">
        <ele>4.358580</ele>
        <time>2026-08-02T22:59:53.711Z</time>
      </trkpt>
      <trkpt lat="52.216110" lon="6.173120">
        <ele>4.360029</ele>
        <time>2026-08-02T22:59:54.686Z</time>
      </trkpt>
      <trkpt lat="52.215840" lon="6.173120">
        <ele>4.366064</ele>
        <time>2026-08-02T22:59:58.745Z</time>
      </trkpt>
      <trkpt lat="52.215720" lon="6.173160">
        <ele>4.368802</ele>
        <time>2026-08-02T23:00:00.589Z</time>
      </trkpt>
      <trkpt lat="52.215640" lon="6.173240">
        <ele>4.370899</ele>
        <time>2026-08-02T23:00:01.993Z</time>
      </trkpt>
      <trkpt lat="52.215140" lon="6.174100">
        <ele>4.374747</ele>
        <time>2026-08-02T23:00:12.673Z</time>
      </trkpt>
      <trkpt lat="52.214700" lon="6.175280">
        <ele>4.335910</ele>
        <time>2026-08-02T23:00:24.989Z</time>
      </trkpt>
      <trkpt lat="52.214600" lon="6.175680">
        <ele>4.323764</ele>
        <time>2026-08-02T23:00:28.853Z</time>
      </trkpt>
      <trkpt lat="52.214490" lon="6.176430">
        <ele>4.302082</ele>
        <time>2026-08-02T23:00:35.858Z</time>
      </trkpt>
      <trkpt lat="52.214420" lon="6.176650">
        <ele>4.287400</ele>
        <time>2026-08-02T23:00:38.113Z</time>
      </trkpt>
      <trkpt lat="52.214190" lon="6.177130">
        <ele>4.245940</ele>
        <time>2026-08-02T23:00:43.628Z</time>
      </trkpt>
      <trkpt lat="52.214080" lon="6.177460">
        <ele>4.220379</ele>
        <time>2026-08-02T23:00:47.039Z</time>
      </trkpt>
      <trkpt lat="52.214030" lon="6.177750">
        <ele>4.199881</ele>
        <time>2026-08-02T23:00:49.771Z</time>
      </trkpt>
      <trkpt lat="52.214050" lon="6.178200">
        <ele>4.169182</ele>
        <time>2026-08-02T23:00:53.871Z</time>
      </trkpt>
      <trkpt lat="52.214040" lon="6.178520">
        <ele>4.147381</ele>
        <time>2026-08-02T23:00:56.798Z</time>
      </trkpt>
      <trkpt lat="52.213294" lon="6.180561">
        <ele>3.622226</ele>
        <time>2026-08-02T23:01:16.392Z</time>
      </trkpt>
      <trkpt lat="52.213247" lon="6.180639">
        <ele>3.591284</ele>
        <time>2026-08-02T23:01:17.228Z</time>
      </trkpt>
      <trkpt lat="52.213121" lon="6.180727">
        <ele>3.528019</ele>
        <time>2026-08-02T23:01:18.939Z</time>
      </trkpt>
      <trkpt lat="52.212944" lon="6.180779">
        <ele>3.445000</ele>
        <time>2026-08-02T23:01:21.207Z</time>
      </trkpt>
      <trkpt lat="52.212703" lon="6.180787">
        <ele>3.333729</ele>
        <time>2026-08-02T23:01:24.317Z</time>
      </trkpt>
      <trkpt lat="52.212228" lon="6.180729">
        <ele>3.433512</ele>
        <time>2026-08-02T23:01:30.712Z</time>
      </trkpt>
      <trkpt lat="52.211300" lon="6.180480">
        <ele>3.885082</ele>
        <time>2026-08-02T23:01:46.200Z</time>
      </trkpt>
      <trkpt lat="52.210500" lon="6.180430">
        <ele>4.354956</ele>
        <time>2026-08-02T23:02:02.343Z</time>
      </trkpt>
      <trkpt lat="52.210180" lon="6.180460">
        <ele>4.606062</ele>
        <time>2026-08-02T23:02:08.675Z</time>
      </trkpt>
      <trkpt lat="52.209643" lon="6.180575">
        <ele>5.030363</ele>
        <time>2026-08-02T23:02:19.146Z</time>
      </trkpt>
      <trkpt lat="52.209480" lon="6.180610">
        <ele>5.159160</ele>
        <time>2026-08-02T23:02:22.240Z</time>
      </trkpt>
      <trkpt lat="52.208496" lon="6.180611">
        <ele>5.427698</ele>
        <time>2026-08-02T23:02:36.803Z</time>
      </trkpt>
      <trkpt lat="52.208451" lon="6.180613">
        <ele>5.417162</ele>
        <time>2026-08-02T23:02:37.373Z</time>
      </trkpt>
      <trkpt lat="52.207915" lon="6.180693">
        <ele>5.291190</ele>
        <time>2026-08-02T23:02:44.476Z</time>
      </trkpt>
      <trkpt lat="52.207790" lon="6.180626">
        <ele>5.260396</ele>
        <time>2026-08-02T23:02:46.243Z</time>
      </trkpt>
      <trkpt lat="52.207708" lon="6.180509">
        <ele>5.234903</ele>
        <time>2026-08-02T23:02:47.740Z</time>
      </trkpt>
      <trkpt lat="52.207609" lon="6.180313">
        <ele>5.198473</ele>
        <time>2026-08-02T23:02:49.873Z</time>
      </trkpt>
      <trkpt lat="52.207563" lon="6.180112">
        <ele>5.167700</ele>
        <time>2026-08-02T23:02:51.657Z</time>
      </trkpt>
      <trkpt lat="52.207653" lon="6.178825">
        <ele>5.061584</ele>
        <time>2026-08-02T23:03:02.836Z</time>
      </trkpt>
      <trkpt lat="52.207646" lon="6.178598">
        <ele>5.047487</ele>
        <time>2026-08-02T23:03:05.057Z</time>
      </trkpt>
      <trkpt lat="52.207619" lon="6.178463">
        <ele>5.038680</ele>
        <time>2026-08-02T23:03:06.458Z</time>
      </trkpt>
      <trkpt lat="52.207467" lon="6.177793">
        <ele>4.994368</ele>
        <time>2026-08-02T23:03:13.254Z</time>
      </trkpt>
      <trkpt lat="52.207161" lon="6.176681">
        <ele>4.887880</ele>
        <time>2026-08-02T23:03:23.473Z</time>
      </trkpt>
      <trkpt lat="52.205872" lon="6.172000">
        <ele>4.567604</ele>
        <time>2026-08-02T23:04:07.426Z</time>
      </trkpt>
      <trkpt lat="52.205760" lon="6.171678">
        <ele>4.577964</ele>
        <time>2026-08-02T23:04:11.778Z</time>
      </trkpt>
      <trkpt lat="52.205681" lon="6.171531">
        <ele>4.669902</ele>
        <time>2026-08-02T23:04:14.135Z</time>
      </trkpt>
      <trkpt lat="52.205469" lon="6.171382">
        <ele>4.867768</ele>
        <time>2026-08-02T23:04:18.810Z</time>
      </trkpt>
      <trkpt lat="52.204722" lon="6.171101">
        <ele>5.524891</ele>
        <time>2026-08-02T23:04:34.598Z</time>
      </trkpt>
      <trkpt lat="52.204543" lon="6.171001">
        <ele>5.687073</ele>
        <time>2026-08-02T23:04:38.211Z</time>
      </trkpt>
      <trkpt lat="52.204096" lon="6.170313">
        <ele>6.077517</ele>
        <time>2026-08-02T23:04:48.500Z</time>
      </trkpt>
      <trkpt lat="52.202813" lon="6.168922">
        <ele>5.472017</ele>
        <time>2026-08-02T23:05:08.438Z</time>
      </trkpt>
      <trkpt lat="52.202615" lon="6.168647">
        <ele>5.395783</ele>
        <time>2026-08-02T23:05:11.880Z</time>
      </trkpt>
      <trkpt lat="52.202537" lon="6.168273">
        <ele>5.357377</ele>
        <time>2026-08-02T23:05:15.174Z</time>
      </trkpt>
      <trkpt lat="52.202382" lon="6.166415">
        <ele>5.175089</ele>
        <time>2026-08-02T23:05:31.974Z</time>
      </trkpt>
      <trkpt lat="52.202480" lon="6.163715">
        <ele>4.759640</ele>
        <time>2026-08-02T23:05:55.709Z</time>
      </trkpt>
      <trkpt lat="52.202145" lon="6.162236">
        <ele>4.264998</ele>
        <time>2026-08-02T23:06:08.336Z</time>
      </trkpt>
      <trkpt lat="52.201744" lon="6.160213">
        <ele>3.353922</ele>
        <time>2026-08-02T23:06:24.665Z</time>
      </trkpt>
      <trkpt lat="52.201670" lon="6.160038">
        <ele>3.323539</ele>
        <time>2026-08-02T23:06:26.250Z</time>
      </trkpt>
      <trkpt lat="52.200879" lon="6.158848">
        <ele>3.072670</ele>
        <time>2026-08-02T23:06:40.121Z</time>
      </trkpt>
      <trkpt lat="52.200225" lon="6.157549">
        <ele>3.172253</ele>
        <time>2026-08-02T23:06:58.524Z</time>
      </trkpt>
      <trkpt lat="52.200150" lon="6.157347">
        <ele>3.242889</ele>
        <time>2026-08-02T23:07:01.252Z</time>
      </trkpt>
      <trkpt lat="52.200114" lon="6.157091">
        <ele>3.321445</ele>
        <time>2026-08-02T23:07:04.228Z</time>
      </trkpt>
      <trkpt lat="52.200131" lon="6.156499">
        <ele>3.498698</ele>
        <time>2026-08-02T23:07:10.778Z</time>
      </trkpt>
      <trkpt lat="52.199915" lon="6.156589">
        <ele>3.607484</ele>
        <time>2026-08-02T23:07:14.500Z</time>
      </trkpt>
      <trkpt lat="52.199704" lon="6.156565">
        <ele>3.710698</ele>
        <time>2026-08-02T23:07:17.983Z</time>
      </trkpt>
      <trkpt lat="52.198248" lon="6.155855">
        <ele>3.748137</ele>
        <time>2026-08-02T23:07:38.867Z</time>
      </trkpt>
      <trkpt lat="52.197560" lon="6.155520">
        <ele>3.831368</ele>
        <time>2026-08-02T23:07:50.196Z</time>
      </trkpt>
      <trkpt lat="52.196130" lon="6.155140">
        <ele>4.580335</ele>
        <time>2026-08-02T23:08:15.674Z</time>
      </trkpt>
      <trkpt lat="52.195560" lon="6.154910">
        <ele>4.753201</ele>
        <time>2026-08-02T23:08:24.974Z</time>
      </trkpt>
      <trkpt lat="52.195326" lon="6.154888">
        <ele>4.806661</ele>
        <time>2026-08-02T23:08:28.649Z</time>
      </trkpt>
      <trkpt lat="52.195313" lon="6.154896">
        <ele>4.809830</ele>
        <time>2026-08-02T23:08:28.880Z</time>
      </trkpt>
      <trkpt lat="52.194920" lon="6.155100">
        <ele>4.903893</ele>
        <time>2026-08-02T23:08:35.311Z</time>
      </trkpt>
      <trkpt lat="52.192727" lon="6.155472">
        <ele>5.142915</ele>
        <time>2026-08-02T23:09:08.969Z</time>
      </trkpt>
      <trkpt lat="52.192574" lon="6.155537">
        <ele>5.151517</ele>
        <time>2026-08-02T23:09:11.242Z</time>
      </trkpt>
      <trkpt lat="52.192331" lon="6.155701">
        <ele>5.145120</ele>
        <time>2026-08-02T23:09:15.024Z</time>
      </trkpt>
      <trkpt lat="52.192037" lon="6.156032">
        <ele>5.112350</ele>
        <time>2026-08-02T23:09:20.147Z</time>
      </trkpt>
      <trkpt lat="52.191824" lon="6.156174">
        <ele>5.091242</ele>
        <time>2026-08-02T23:09:23.468Z</time>
      </trkpt>
      <trkpt lat="52.191604" lon="6.156260">
        <ele>5.070489</ele>
        <time>2026-08-02T23:09:26.702Z</time>
      </trkpt>
      <trkpt lat="52.190450" lon="6.156780">
        <ele>5.085560</ele>
        <time>2026-08-02T23:09:43.874Z</time>
      </trkpt>
      <trkpt lat="52.190060" lon="6.157030">
        <ele>5.195047</ele>
        <time>2026-08-02T23:09:50.561Z</time>
      </trkpt>
      <trkpt lat="52.189820" lon="6.157225">
        <ele>5.265103</ele>
        <time>2026-08-02T23:09:54.904Z</time>
      </trkpt>
      <trkpt lat="52.189230" lon="6.157890">
        <ele>5.452482</ele>
        <time>2026-08-02T23:10:06.830Z</time>
      </trkpt>
      <trkpt lat="52.188357" lon="6.158558">
        <ele>5.640594</ele>
        <time>2026-08-02T23:10:22.550Z</time>
      </trkpt>
      <trkpt lat="52.188182" lon="6.158621">
        <ele>5.675034</ele>
        <time>2026-08-02T23:10:25.390Z</time>
      </trkpt>
      <trkpt lat="52.188055" lon="6.158596">
        <ele>5.699617</ele>
        <time>2026-08-02T23:10:27.393Z</time>
      </trkpt>
      <trkpt lat="52.187933" lon="6.158491">
        <ele>5.726126</ele>
        <time>2026-08-02T23:10:29.502Z</time>
      </trkpt>
      <trkpt lat="52.187885" lon="6.158168">
        <ele>5.765283</ele>
        <time>2026-08-02T23:10:32.519Z</time>
      </trkpt>
      <trkpt lat="52.187888" lon="6.158052">
        <ele>5.778962</ele>
        <time>2026-08-02T23:10:33.576Z</time>
      </trkpt>
      <trkpt lat="52.187900" lon="6.157795">
        <ele>5.808065</ele>
        <time>2026-08-02T23:10:35.834Z</time>
      </trkpt>
      <trkpt lat="52.187938" lon="6.157460">
        <ele>5.763866</ele>
        <time>2026-08-02T23:10:38.734Z</time>
      </trkpt>
      <trkpt lat="52.188235" lon="6.154884">
        <ele>5.432798</ele>
        <time>2026-08-02T23:11:00.777Z</time>
      </trkpt>
      <trkpt lat="52.188652" lon="6.151770">
        <ele>5.944443</ele>
        <time>2026-08-02T23:11:31.949Z</time>
      </trkpt>
      <trkpt lat="52.188561" lon="6.150075">
        <ele>6.544367</ele>
        <time>2026-08-02T23:11:50.951Z</time>
      </trkpt>
      <trkpt lat="52.188528" lon="6.149666">
        <ele>6.689820</ele>
        <time>2026-08-02T23:11:55.258Z</time>
      </trkpt>
      <trkpt lat="52.188462" lon="6.149377">
        <ele>6.798558</ele>
        <time>2026-08-02T23:11:58.338Z</time>
      </trkpt>
      <trkpt lat="52.188324" lon="6.149135">
        <ele>6.877710</ele>
        <time>2026-08-02T23:12:01.551Z</time>
      </trkpt>
      <trkpt lat="52.187656" lon="6.148503">
        <ele>6.876651</ele>
        <time>2026-08-02T23:12:12.942Z</time>
      </trkpt>
      <trkpt lat="52.185634" lon="6.146668">
        <ele>6.907722</ele>
        <time>2026-08-02T23:12:46.085Z</time>
      </trkpt>
      <trkpt lat="52.185080" lon="6.146059">
        <ele>7.042639</ele>
        <time>2026-08-02T23:12:57.131Z</time>
      </trkpt>
      <trkpt lat="52.184981" lon="6.145781">
        <ele>7.153049</ele>
        <time>2026-08-02T23:13:00.525Z</time>
      </trkpt>
      <trkpt lat="52.184910" lon="6.144869">
        <ele>7.468774</ele>
        <time>2026-08-02T23:13:10.420Z</time>
      </trkpt>
      <trkpt lat="52.184883" lon="6.144653">
        <ele>7.544482</ele>
        <time>2026-08-02T23:13:12.840Z</time>
      </trkpt>
      <trkpt lat="52.184511" lon="6.143445">
        <ele>7.970182</ele>
        <time>2026-08-02T23:13:27.387Z</time>
      </trkpt>
      <trkpt lat="52.184418" lon="6.142954">
        <ele>8.064513</ele>
        <time>2026-08-02T23:13:32.552Z</time>
      </trkpt>
      <trkpt lat="52.184356" lon="6.142319">
        <ele>8.182543</ele>
        <time>2026-08-02T23:13:38.773Z</time>
      </trkpt>
      <trkpt lat="52.184373" lon="6.141370">
        <ele>8.356817</ele>
        <time>2026-08-02T23:13:47.819Z</time>
      </trkpt>
      <trkpt lat="52.184329" lon="6.140997">
        <ele>8.426541</ele>
        <time>2026-08-02T23:13:51.336Z</time>
      </trkpt>
      <trkpt lat="52.184292" lon="6.140871">
        <ele>8.452186</ele>
        <time>2026-08-02T23:13:52.616Z</time>
      </trkpt>
      <trkpt lat="52.184139" lon="6.140323">
        <ele>8.587007</ele>
        <time>2026-08-02T23:13:58.113Z</time>
      </trkpt>
      <trkpt lat="52.184094" lon="6.140071">
        <ele>8.647091</ele>
        <time>2026-08-02T23:14:00.524Z</time>
      </trkpt>
      <trkpt lat="52.183935" lon="6.138157">
        <ele>9.089240</ele>
        <time>2026-08-02T23:14:20.655Z</time>
      </trkpt>
      <trkpt lat="52.183856" lon="6.137365">
        <ele>9.177688</ele>
        <time>2026-08-02T23:14:28.844Z</time>
      </trkpt>
      <trkpt lat="52.183782" lon="6.136630">
        <ele>9.229653</ele>
        <time>2026-08-02T23:14:36.174Z</time>
      </trkpt>
      <trkpt lat="52.183743" lon="6.136418">
        <ele>9.245094</ele>
        <time>2026-08-02T23:14:38.307Z</time>
      </trkpt>
      <trkpt lat="52.183649" lon="6.136185">
        <ele>9.264553</ele>
        <time>2026-08-02T23:14:40.978Z</time>
      </trkpt>
      <trkpt lat="52.183396" lon="6.135809">
        <ele>9.303500</ele>
        <time>2026-08-02T23:14:45.849Z</time>
      </trkpt>
      <trkpt lat="52.183302" lon="6.135589">
        <ele>9.322208</ele>
        <time>2026-08-02T23:14:48.062Z</time>
      </trkpt>
      <trkpt lat="52.183275" lon="6.135486">
        <ele>9.330023</ele>
        <time>2026-08-02T23:14:48.983Z</time>
      </trkpt>
      <trkpt lat="52.183243" lon="6.135411">
        <ele>9.336397</ele>
        <time>2026-08-02T23:14:49.735Z</time>
      </trkpt>
      <trkpt lat="52.183035" lon="6.135518">
        <ele>9.312356</ele>
        <time>2026-08-02T23:14:52.633Z</time>
      </trkpt>
      <trkpt lat="52.182808" lon="6.135568">
        <ele>9.276644</ele>
        <time>2026-08-02T23:14:55.737Z</time>
      </trkpt>
      <trkpt lat="52.182444" lon="6.135806">
        <ele>9.215503</ele>
        <time>2026-08-02T23:15:01.268Z</time>
      </trkpt>
      <trkpt lat="52.181969" lon="6.136183">
        <ele>9.133144</ele>
        <time>2026-08-02T23:15:09.108Z</time>
      </trkpt>
      <trkpt lat="52.181888" lon="6.136261">
        <ele>9.118478</ele>
        <time>2026-08-02T23:15:10.539Z</time>
      </trkpt>
      <trkpt lat="52.180981" lon="6.137480">
        <ele>8.917598</ele>
        <time>2026-08-02T23:15:27.447Z</time>
      </trkpt>
      <trkpt lat="52.180855" lon="6.137632">
        <ele>8.889713</ele>
        <time>2026-08-02T23:15:29.675Z</time>
      </trkpt>
      <trkpt lat="52.180501" lon="6.137930">
        <ele>8.818833</ele>
        <time>2026-08-02T23:15:35.314Z</time>
      </trkpt>
      <trkpt lat="52.179060" lon="6.138900">
        <ele>8.568239</ele>
        <time>2026-08-02T23:15:56.781Z</time>
      </trkpt>
      <trkpt lat="52.178530" lon="6.139246">
        <ele>8.480353</ele>
        <time>2026-08-02T23:16:05.319Z</time>
      </trkpt>
      <trkpt lat="52.178396" lon="6.139335">
        <ele>8.474217</ele>
        <time>2026-08-02T23:16:07.396Z</time>
      </trkpt>
      <trkpt lat="52.178383" lon="6.139343">
        <ele>8.478734</ele>
        <time>2026-08-02T23:16:07.601Z</time>
      </trkpt>
      <trkpt lat="52.178324" lon="6.139378">
        <ele>8.499146</ele>
        <time>2026-08-02T23:16:08.552Z</time>
      </trkpt>
      <trkpt lat="52.177757" lon="6.139703">
        <ele>8.694539</ele>
        <time>2026-08-02T23:16:18.189Z</time>
      </trkpt>
      <trkpt lat="52.177355" lon="6.139869">
        <ele>8.829359</ele>
        <time>2026-08-02T23:16:25.431Z</time>
      </trkpt>
      <trkpt lat="52.177173" lon="6.139943">
        <ele>8.890341</ele>
        <time>2026-08-02T23:16:28.800Z</time>
      </trkpt>
      <trkpt lat="52.176912" lon="6.140045">
        <ele>8.977597</ele>
        <time>2026-08-02T23:16:33.277Z</time>
      </trkpt>
      <trkpt lat="52.176241" lon="6.140283">
        <ele>8.965552</ele>
        <time>2026-08-02T23:16:43.738Z</time>
      </trkpt>
      <trkpt lat="52.175362" lon="6.140805">
        <ele>8.801425</ele>
        <time>2026-08-02T23:16:56.466Z</time>
      </trkpt>
      <trkpt lat="52.175302" lon="6.140819">
        <ele>8.790790</ele>
        <time>2026-08-02T23:16:57.265Z</time>
      </trkpt>
      <trkpt lat="52.175219" lon="6.140777">
        <ele>8.775543</ele>
        <time>2026-08-02T23:16:58.437Z</time>
      </trkpt>
      <trkpt lat="52.175185" lon="6.140887">
        <ele>8.762290</ele>
        <time>2026-08-02T23:16:59.440Z</time>
      </trkpt>
      <trkpt lat="52.175161" lon="6.140957">
        <ele>8.753661</ele>
        <time>2026-08-02T23:17:00.102Z</time>
      </trkpt>
      <trkpt lat="52.175051" lon="6.140843">
        <ele>8.732983</ele>
        <time>2026-08-02T23:17:01.903Z</time>
      </trkpt>
      <trkpt lat="52.175012" lon="6.140855">
        <ele>8.735195</ele>
        <time>2026-08-02T23:17:02.452Z</time>
      </trkpt>
      <trkpt lat="52.174951" lon="6.140881">
        <ele>8.738708</ele>
        <time>2026-08-02T23:17:03.340Z</time>
      </trkpt>
      <trkpt lat="52.174842" lon="6.140995">
        <ele>8.745925</ele>
        <time>2026-08-02T23:17:05.203Z</time>
      </trkpt>
      <trkpt lat="52.174726" lon="6.141209">
        <ele>8.755686</ele>
        <time>2026-08-02T23:17:07.792Z</time>
      </trkpt>
      <trkpt lat="52.174637" lon="6.141301">
        <ele>8.761559</ele>
        <time>2026-08-02T23:17:09.415Z</time>
      </trkpt>
      <trkpt lat="52.173337" lon="6.141542">
        <ele>8.827009</ele>
        <time>2026-08-02T23:17:36.914Z</time>
      </trkpt>
      <trkpt lat="52.173295" lon="6.141559">
        <ele>8.819315</ele>
        <time>2026-08-02T23:17:37.800Z</time>
      </trkpt>
      <trkpt lat="52.173081" lon="6.141637">
        <ele>8.780325</ele>
        <time>2026-08-02T23:17:42.227Z</time>
      </trkpt>
      <trkpt lat="52.173039" lon="6.141718">
        <ele>8.768758</ele>
        <time>2026-08-02T23:17:43.538Z</time>
      </trkpt>
      <trkpt lat="52.172978" lon="6.141943">
        <ele>8.741932</ele>
        <time>2026-08-02T23:17:46.505Z</time>
      </trkpt>
      <trkpt lat="52.172891" lon="6.142498">
        <ele>8.679465</ele>
        <time>2026-08-02T23:17:53.251Z</time>
      </trkpt>
      <trkpt lat="52.172760" lon="6.142805">
        <ele>8.638682</ele>
        <time>2026-08-02T23:17:57.580Z</time>
      </trkpt>
      <trkpt lat="52.172036" lon="6.143632">
        <ele>8.506947</ele>
        <time>2026-08-02T23:18:14.259Z</time>
      </trkpt>
      <trkpt lat="52.171851" lon="6.143978">
        <ele>8.497484</ele>
        <time>2026-08-02T23:18:19.997Z</time>
      </trkpt>
      <trkpt lat="52.171756" lon="6.144289">
        <ele>8.490321</ele>
        <time>2026-08-02T23:18:24.454Z</time>
      </trkpt>
      <trkpt lat="52.171598" lon="6.145122">
        <ele>8.472346</ele>
        <time>2026-08-02T23:18:35.844Z</time>
      </trkpt>
      <trkpt lat="52.171304" lon="6.145781">
        <ele>8.455546</ele>
        <time>2026-08-02T23:18:46.311Z</time>
      </trkpt>
      <trkpt lat="52.171149" lon="6.146090">
        <ele>8.290382</ele>
        <time>2026-08-02T23:18:51.231Z</time>
      </trkpt>
      <trkpt lat="52.170970" lon="6.146228">
        <ele>8.079001</ele>
        <time>2026-08-02T23:18:54.988Z</time>
      </trkpt>
      <trkpt lat="52.171084" lon="6.147190">
        <ele>7.437476</ele>
        <time>2026-08-02T23:19:02.161Z</time>
      </trkpt>
      <trkpt lat="52.171193" lon="6.147788">
        <ele>7.029008</ele>
        <time>2026-08-02T23:19:06.507Z</time>
      </trkpt>
      <trkpt lat="52.171197" lon="6.148285">
        <ele>6.703568</ele>
        <time>2026-08-02T23:19:09.986Z</time>
      </trkpt>
      <trkpt lat="52.171236" lon="6.148633">
        <ele>6.501846</ele>
        <time>2026-08-02T23:19:12.474Z</time>
      </trkpt>
      <trkpt lat="52.171336" lon="6.148953">
        <ele>6.383354</ele>
        <time>2026-08-02T23:19:15.035Z</time>
      </trkpt>
      <trkpt lat="52.171448" lon="6.149196">
        <ele>6.283066</ele>
        <time>2026-08-02T23:19:17.220Z</time>
      </trkpt>
      <trkpt lat="52.171761" lon="6.149802">
        <ele>6.021676</ele>
        <time>2026-08-02T23:19:23.279Z</time>
      </trkpt>
      <trkpt lat="52.173098" lon="6.152385">
        <ele>5.747229</ele>
        <time>2026-08-02T23:19:55.648Z</time>
      </trkpt>
      <trkpt lat="52.173185" lon="6.152463">
        <ele>5.762048</ele>
        <time>2026-08-02T23:19:57.170Z</time>
      </trkpt>
      <trkpt lat="52.174015" lon="6.152726">
        <ele>5.795551</ele>
        <time>2026-08-02T23:20:09.748Z</time>
      </trkpt>
      <trkpt lat="52.175074" lon="6.153190">
        <ele>5.684125</ele>
        <time>2026-08-02T23:20:25.374Z</time>
      </trkpt>
      <trkpt lat="52.175464" lon="6.153300">
        <ele>5.645121</ele>
        <time>2026-08-02T23:20:31.024Z</time>
      </trkpt>
      <trkpt lat="52.175591" lon="6.153359">
        <ele>5.634238</ele>
        <time>2026-08-02T23:20:32.918Z</time>
      </trkpt>
      <trkpt lat="52.175790" lon="6.153600">
        <ele>5.613810</ele>
        <time>2026-08-02T23:20:36.504Z</time>
      </trkpt>
      <trkpt lat="52.176144" lon="6.154553">
        <ele>5.557499</ele>
        <time>2026-08-02T23:20:46.484Z</time>
      </trkpt>
      <trkpt lat="52.176160" lon="6.154700">
        <ele>5.549954</ele>
        <time>2026-08-02T23:20:47.837Z</time>
      </trkpt>
      <trkpt lat="52.175497" lon="6.158029">
        <ele>5.469854</ele>
        <time>2026-08-02T23:21:19.431Z</time>
      </trkpt>
      <trkpt lat="52.175195" lon="6.159661">
        <ele>5.404658</ele>
        <time>2026-08-02T23:21:34.463Z</time>
      </trkpt>
      <trkpt lat="52.175160" lon="6.159980">
        <ele>5.389885</ele>
        <time>2026-08-02T23:21:37.302Z</time>
      </trkpt>
      <trkpt lat="52.175170" lon="6.160099">
        <ele>5.384409</ele>
        <time>2026-08-02T23:21:38.360Z</time>
      </trkpt>
      <trkpt lat="52.175215" lon="6.160211">
        <ele>5.378305</ele>
        <time>2026-08-02T23:21:39.544Z</time>
      </trkpt>
      <trkpt lat="52.175486" lon="6.160535">
        <ele>5.353325</ele>
        <time>2026-08-02T23:21:44.423Z</time>
      </trkpt>
      <trkpt lat="52.175546" lon="6.160647">
        <ele>5.346545</ele>
        <time>2026-08-02T23:21:45.747Z</time>
      </trkpt>
      <trkpt lat="52.175594" lon="6.160945">
        <ele>5.332500</ele>
        <time>2026-08-02T23:21:48.525Z</time>
      </trkpt>
      <trkpt lat="52.175579" lon="6.163508">
        <ele>5.547172</ele>
        <time>2026-08-02T23:22:12.789Z</time>
      </trkpt>
      <trkpt lat="52.175504" lon="6.164108">
        <ele>5.601685</ele>
        <time>2026-08-02T23:22:18.674Z</time>
      </trkpt>
      <trkpt lat="52.175378" lon="6.164476">
        <ele>5.642263</ele>
        <time>2026-08-02T23:22:22.731Z</time>
      </trkpt>
      <trkpt lat="52.175143" lon="6.164717">
        <ele>5.685845</ele>
        <time>2026-08-02T23:22:27.082Z</time>
      </trkpt>
      <trkpt lat="52.174971" lon="6.164840">
        <ele>5.715330</ele>
        <time>2026-08-02T23:22:30.031Z</time>
      </trkpt>
      <trkpt lat="52.172053" lon="6.165844">
        <ele>5.848425</ele>
        <time>2026-08-02T23:23:15.121Z</time>
      </trkpt>
      <trkpt lat="52.171873" lon="6.165938">
        <ele>5.788167</ele>
        <time>2026-08-02T23:23:17.734Z</time>
      </trkpt>
      <trkpt lat="52.171770" lon="6.166040">
        <ele>5.749748</ele>
        <time>2026-08-02T23:23:19.387Z</time>
      </trkpt>
      <trkpt lat="52.171684" lon="6.166246">
        <ele>5.701023</ele>
        <time>2026-08-02T23:23:21.472Z</time>
      </trkpt>
      <trkpt lat="52.171733" lon="6.166700">
        <ele>5.610889</ele>
        <time>2026-08-02T23:23:25.299Z</time>
      </trkpt>
      <trkpt lat="52.171951" lon="6.167554">
        <ele>5.430023</ele>
        <time>2026-08-02T23:23:32.888Z</time>
      </trkpt>
      <trkpt lat="52.172239" lon="6.168244">
        <ele>5.253902</ele>
        <time>2026-08-02T23:23:39.694Z</time>
      </trkpt>
      <trkpt lat="52.172262" lon="6.168351">
        <ele>5.228375</ele>
        <time>2026-08-02T23:23:40.625Z</time>
      </trkpt>
      <trkpt lat="52.172257" lon="6.168528">
        <ele>5.188483</ele>
        <time>2026-08-02T23:23:42.081Z</time>
      </trkpt>
      <trkpt lat="52.172221" lon="6.168623">
        <ele>5.163340</ele>
        <time>2026-08-02T23:23:42.992Z</time>
      </trkpt>
      <trkpt lat="52.170952" lon="6.169963">
        <ele>4.682351</ele>
        <time>2026-08-02T23:24:03.576Z</time>
      </trkpt>
      <trkpt lat="52.170559" lon="6.170316">
        <ele>4.663559</ele>
        <time>2026-08-02T23:24:09.986Z</time>
      </trkpt>
      <trkpt lat="52.170189" lon="6.170595">
        <ele>4.646485</ele>
        <time>2026-08-02T23:24:16.046Z</time>
      </trkpt>
      <trkpt lat="52.169056" lon="6.171547">
        <ele>4.686391</ele>
        <time>2026-08-02T23:24:35.861Z</time>
      </trkpt>
      <trkpt lat="52.169048" lon="6.171683">
        <ele>4.696843</ele>
        <time>2026-08-02T23:24:37.207Z</time>
      </trkpt>
      <trkpt lat="52.168864" lon="6.171895">
        <ele>4.724945</ele>
        <time>2026-08-02T23:24:40.729Z</time>
      </trkpt>
      <trkpt lat="52.168778" lon="6.172076">
        <ele>4.742461</ele>
        <time>2026-08-02T23:24:42.948Z</time>
      </trkpt>
      <trkpt lat="52.168370" lon="6.172457">
        <ele>4.801106</ele>
        <time>2026-08-02T23:24:50.392Z</time>
      </trkpt>
      <trkpt lat="52.167468" lon="6.173449">
        <ele>4.589456</ele>
        <time>2026-08-02T23:25:06.000Z</time>
      </trkpt>
      <trkpt lat="52.167012" lon="6.174047">
        <ele>4.398115</ele>
        <time>2026-08-02T23:25:13.761Z</time>
      </trkpt>
      <trkpt lat="52.166452" lon="6.175077">
        <ele>4.267510</ele>
        <time>2026-08-02T23:25:24.690Z</time>
      </trkpt>
      <trkpt lat="52.166260" lon="6.175368">
        <ele>4.277150</ele>
        <time>2026-08-02T23:25:28.280Z</time>
      </trkpt>
      <trkpt lat="52.165785" lon="6.175925">
        <ele>4.298667</ele>
        <time>2026-08-02T23:25:37.148Z</time>
      </trkpt>
      <trkpt lat="52.165344" lon="6.176306">
        <ele>4.317020</ele>
        <time>2026-08-02T23:25:45.753Z</time>
      </trkpt>
      <trkpt lat="52.164821" lon="6.176619">
        <ele>4.612853</ele>
        <time>2026-08-02T23:25:55.758Z</time>
      </trkpt>
      <trkpt lat="52.164418" lon="6.176769">
        <ele>4.853595</ele>
        <time>2026-08-02T23:26:03.248Z</time>
      </trkpt>
      <trkpt lat="52.163856" lon="6.176858">
        <ele>5.182438</ele>
        <time>2026-08-02T23:26:13.056Z</time>
      </trkpt>
      <trkpt lat="52.163146" lon="6.176770">
        <ele>5.360509</ele>
        <time>2026-08-02T23:26:24.049Z</time>
      </trkpt>
      <trkpt lat="52.162654" lon="6.176785">
        <ele>5.353117</ele>
        <time>2026-08-02T23:26:31.100Z</time>
      </trkpt>
      <trkpt lat="52.162326" lon="6.176908">
        <ele>5.348062</ele>
        <time>2026-08-02T23:26:35.994Z</time>
      </trkpt>
      <trkpt lat="52.161899" lon="6.177173">
        <ele>5.341199</ele>
        <time>2026-08-02T23:26:42.548Z</time>
      </trkpt>
      <trkpt lat="52.161499" lon="6.177492">
        <ele>5.347223</ele>
        <time>2026-08-02T23:26:48.909Z</time>
      </trkpt>
      <trkpt lat="52.160483" lon="6.177912">
        <ele>5.372072</ele>
        <time>2026-08-02T23:27:04.789Z</time>
      </trkpt>
      <trkpt lat="52.160035" lon="6.177935">
        <ele>5.376772</ele>
        <time>2026-08-02T23:27:11.517Z</time>
      </trkpt>
      <trkpt lat="52.159520" lon="6.177895">
        <ele>5.271566</ele>
        <time>2026-08-02T23:27:19.152Z</time>
      </trkpt>
      <trkpt lat="52.158923" lon="6.177970">
        <ele>5.149386</ele>
        <time>2026-08-02T23:27:27.510Z</time>
      </trkpt>
      <trkpt lat="52.158777" lon="6.178023">
        <ele>5.118865</ele>
        <time>2026-08-02T23:27:29.515Z</time>
      </trkpt>
      <trkpt lat="52.158278" lon="6.178268">
        <ele>5.024486</ele>
        <time>2026-08-02T23:27:36.293Z</time>
      </trkpt>
      <trkpt lat="52.158125" lon="6.178390">
        <ele>5.153368</ele>
        <time>2026-08-02T23:27:38.480Z</time>
      </trkpt>
      <trkpt lat="52.157204" lon="6.179393">
        <ele>5.991499</ele>
        <time>2026-08-02T23:27:57.720Z</time>
      </trkpt>
      <trkpt lat="52.156846" lon="6.179701">
        <ele>6.297808</ele>
        <time>2026-08-02T23:28:06.725Z</time>
      </trkpt>
      <trkpt lat="52.156567" lon="6.179798">
        <ele>6.502561</ele>
        <time>2026-08-02T23:28:13.150Z</time>
      </trkpt>
      <trkpt lat="52.156242" lon="6.179745">
        <ele>6.729755</ele>
        <time>2026-08-02T23:28:20.229Z</time>
      </trkpt>
      <trkpt lat="52.155641" lon="6.179186">
        <ele>7.211079</ele>
        <time>2026-08-02T23:28:33.371Z</time>
      </trkpt>
      <trkpt lat="52.155518" lon="6.179110">
        <ele>7.302577</ele>
        <time>2026-08-02T23:28:35.284Z</time>
      </trkpt>
      <trkpt lat="52.155172" lon="6.178920">
        <ele>7.556542</ele>
        <time>2026-08-02T23:28:40.114Z</time>
      </trkpt>
      <trkpt lat="52.154612" lon="6.178698">
        <ele>7.280859</ele>
        <time>2026-08-02T23:28:47.369Z</time>
      </trkpt>
      <trkpt lat="52.154467" lon="6.178610">
        <ele>7.168000</ele>
        <time>2026-08-02T23:28:49.262Z</time>
      </trkpt>
      <trkpt lat="52.154035" lon="6.178535">
        <ele>6.851108</ele>
        <time>2026-08-02T23:28:54.673Z</time>
      </trkpt>
      <trkpt lat="52.153211" lon="6.178606">
        <ele>6.302118</ele>
        <time>2026-08-02T23:29:05.102Z</time>
      </trkpt>
      <trkpt lat="52.152605" lon="6.178544">
        <ele>6.214244</ele>
        <time>2026-08-02T23:29:13.283Z</time>
      </trkpt>
      <trkpt lat="52.152334" lon="6.178425">
        <ele>6.173626</ele>
        <time>2026-08-02T23:29:17.325Z</time>
      </trkpt>
      <trkpt lat="52.152104" lon="6.178416">
        <ele>6.140330</ele>
        <time>2026-08-02T23:29:20.690Z</time>
      </trkpt>
      <trkpt lat="52.151974" lon="6.178528">
        <ele>6.119050</ele>
        <time>2026-08-02T23:29:22.894Z</time>
      </trkpt>
      <trkpt lat="52.151866" lon="6.178694">
        <ele>6.097566</ele>
        <time>2026-08-02T23:29:25.221Z</time>
      </trkpt>
      <trkpt lat="52.151579" lon="6.179259">
        <ele>6.082188</ele>
        <time>2026-08-02T23:29:32.739Z</time>
      </trkpt>
      <trkpt lat="52.151444" lon="6.179516">
        <ele>6.118657</ele>
        <time>2026-08-02T23:29:36.130Z</time>
      </trkpt>
      <trkpt lat="52.150352" lon="6.180903">
        <ele>6.361882</ele>
        <time>2026-08-02T23:29:57.460Z</time>
      </trkpt>
      <trkpt lat="52.150079" lon="6.181155">
        <ele>6.366099</ele>
        <time>2026-08-02T23:30:02.114Z</time>
      </trkpt>
      <trkpt lat="52.149534" lon="6.181446">
        <ele>6.355618</ele>
        <time>2026-08-02T23:30:10.396Z</time>
      </trkpt>
      <trkpt lat="52.149057" lon="6.181666">
        <ele>6.346557</ele>
        <time>2026-08-02T23:30:17.574Z</time>
      </trkpt>
      <trkpt lat="52.148919" lon="6.181727">
        <ele>6.343944</ele>
        <time>2026-08-02T23:30:20.407Z</time>
      </trkpt>
      <trkpt lat="52.147450" lon="6.182300">
        <ele>6.441384</ele>
        <time>2026-08-02T23:30:43.239Z</time>
      </trkpt>
      <trkpt lat="52.146662" lon="6.182788">
        <ele>6.589426</ele>
        <time>2026-08-02T23:30:56.145Z</time>
      </trkpt>
      <trkpt lat="52.146251" lon="6.182941">
        <ele>6.762402</ele>
        <time>2026-08-02T23:31:02.896Z</time>
      </trkpt>
      <trkpt lat="52.146137" lon="6.183034">
        <ele>6.814709</ele>
        <time>2026-08-02T23:31:07.797Z</time>
      </trkpt>
      <trkpt lat="52.146251" lon="6.182941">
        <ele>6.867017</ele>
        <time>2026-08-02T23:31:12.723Z</time>
      </trkpt>
      <trkpt lat="52.145717" lon="6.183020">
        <ele>7.087016</ele>
        <time>2026-08-02T23:31:21.666Z</time>
      </trkpt>
      <trkpt lat="52.145680" lon="6.183022">
        <ele>7.102205</ele>
        <time>2026-08-02T23:31:22.301Z</time>
      </trkpt>
      <trkpt lat="52.144370" lon="6.183397">
        <ele>7.682185</ele>
        <time>2026-08-02T23:31:45.397Z</time>
      </trkpt>
      <trkpt lat="52.143869" lon="6.183458">
        <ele>7.905324</ele>
        <time>2026-08-02T23:31:53.342Z</time>
      </trkpt>
      <trkpt lat="52.143451" lon="6.183478">
        <ele>8.029978</ele>
        <time>2026-08-02T23:31:59.876Z</time>
      </trkpt>
      <trkpt lat="52.143367" lon="6.183449">
        <ele>8.028969</ele>
        <time>2026-08-02T23:32:01.171Z</time>
      </trkpt>
      <trkpt lat="52.143284" lon="6.183361">
        <ele>8.027806</ele>
        <time>2026-08-02T23:32:02.649Z</time>
      </trkpt>
      <trkpt lat="52.143011" lon="6.183762">
        <ele>8.023486</ele>
        <time>2026-08-02T23:32:10.253Z</time>
      </trkpt>
      <trkpt lat="52.142815" lon="6.183957">
        <ele>8.020788</ele>
        <time>2026-08-02T23:32:14.949Z</time>
      </trkpt>
      <trkpt lat="52.142627" lon="6.184070">
        <ele>8.018433</ele>
        <time>2026-08-02T23:32:18.962Z</time>
      </trkpt>
      <trkpt lat="52.142547" lon="6.184072">
        <ele>8.017493</ele>
        <time>2026-08-02T23:32:20.522Z</time>
      </trkpt>
      <trkpt lat="52.142370" lon="6.184164">
        <ele>8.015309</ele>
        <time>2026-08-02T23:32:24.070Z</time>
      </trkpt>
      <trkpt lat="52.142313" lon="6.184243">
        <ele>8.014430</ele>
        <time>2026-08-02T23:32:25.527Z</time>
      </trkpt>
      <trkpt lat="52.142131" lon="6.184340">
        <ele>8.012180</ele>
        <time>2026-08-02T23:32:29.286Z</time>
      </trkpt>
      <trkpt lat="52.141665" lon="6.184581">
        <ele>8.012087</ele>
        <time>2026-08-02T23:32:39.052Z</time>
      </trkpt>
      <trkpt lat="52.141548" lon="6.184586">
        <ele>8.012664</ele>
        <time>2026-08-02T23:32:41.364Z</time>
      </trkpt>
      <trkpt lat="52.141387" lon="6.184519">
        <ele>8.013484</ele>
        <time>2026-08-02T23:32:44.711Z</time>
      </trkpt>
      <trkpt lat="52.141190" lon="6.184298">
        <ele>8.014664</ele>
        <time>2026-08-02T23:32:49.676Z</time>
      </trkpt>
      <trkpt lat="52.141070" lon="6.184144">
        <ele>8.015417</ele>
        <time>2026-08-02T23:32:52.875Z</time>
      </trkpt>
      <trkpt lat="52.140909" lon="6.183979">
        <ele>8.016355</ele>
        <time>2026-08-02T23:32:56.773Z</time>
      </trkpt>
      <trkpt lat="52.140766" lon="6.183831">
        <ele>8.017191</ele>
        <time>2026-08-02T23:33:00.171Z</time>
      </trkpt>
      <trkpt lat="52.140610" lon="6.183683">
        <ele>8.018081</ele>
        <time>2026-08-02T23:33:03.834Z</time>
      </trkpt>
      <trkpt lat="52.140124" lon="6.183257">
        <ele>7.937880</ele>
        <time>2026-08-02T23:33:15.185Z</time>
      </trkpt>
      <trkpt lat="52.139884" lon="6.182979">
        <ele>7.859870</ele>
        <time>2026-08-02T23:33:20.993Z</time>
      </trkpt>
      <trkpt lat="52.139869" lon="6.182827">
        <ele>7.834839</ele>
        <time>2026-08-02T23:33:22.837Z</time>
      </trkpt>
      <trkpt lat="52.139728" lon="6.182451">
        <ele>7.763196</ele>
        <time>2026-08-02T23:33:28.041Z</time>
      </trkpt>
      <trkpt lat="52.139106" lon="6.181251">
        <ele>7.490469</ele>
        <time>2026-08-02T23:33:45.945Z</time>
      </trkpt>
      <trkpt lat="52.138700" lon="6.180528">
        <ele>7.252131</ele>
        <time>2026-08-02T23:33:57.320Z</time>
      </trkpt>
      <trkpt lat="52.138440" lon="6.180083">
        <ele>7.102702</ele>
        <time>2026-08-02T23:34:04.573Z</time>
      </trkpt>
      <trkpt lat="52.137737" lon="6.178923">
        <ele>6.573628</ele>
        <time>2026-08-02T23:34:23.592Z</time>
      </trkpt>
      <trkpt lat="52.137652" lon="6.178784">
        <ele>6.474807</ele>
        <time>2026-08-02T23:34:25.803Z</time>
      </trkpt>
      <trkpt lat="52.137449" lon="6.178436">
        <ele>6.233011</ele>
        <time>2026-08-02T23:34:30.831Z</time>
      </trkpt>
      <trkpt lat="52.136972" lon="6.177611">
        <ele>5.662182</ele>
        <time>2026-08-02T23:34:42.711Z</time>
      </trkpt>
      <trkpt lat="52.136947" lon="6.177560">
        <ele>5.629309</ele>
        <time>2026-08-02T23:34:43.433Z</time>
      </trkpt>
      <trkpt lat="52.136894" lon="6.177464">
        <ele>5.564278</ele>
        <time>2026-08-02T23:34:44.825Z</time>
      </trkpt>
      <trkpt lat="52.136692" lon="6.177107">
        <ele>5.351044</ele>
        <time>2026-08-02T23:34:48.548Z</time>
      </trkpt>
      <trkpt lat="52.136141" lon="6.176118">
        <ele>5.290641</ele>
        <time>2026-08-02T23:34:59.414Z</time>
      </trkpt>
      <trkpt lat="52.135995" lon="6.175915">
        <ele>5.276499</ele>
        <time>2026-08-02T23:35:02.349Z</time>
      </trkpt>
      <trkpt lat="52.135027" lon="6.174858">
        <ele>5.314793</ele>
        <time>2026-08-02T23:35:21.924Z</time>
      </trkpt>
      <trkpt lat="52.134884" lon="6.174667">
        <ele>5.355785</ele>
        <time>2026-08-02T23:35:24.927Z</time>
      </trkpt>
      <trkpt lat="52.134543" lon="6.173925">
        <ele>5.481913</ele>
        <time>2026-08-02T23:35:34.042Z</time>
      </trkpt>
      <trkpt lat="52.134363" lon="6.173715">
        <ele>5.530993</ele>
        <time>2026-08-02T23:35:37.439Z</time>
      </trkpt>
      <trkpt lat="52.134011" lon="6.173428">
        <ele>5.618252</ele>
        <time>2026-08-02T23:35:43.114Z</time>
      </trkpt>
      <trkpt lat="52.133811" lon="6.173340">
        <ele>5.590328</ele>
        <time>2026-08-02T23:35:46.057Z</time>
      </trkpt>
      <trkpt lat="52.133388" lon="6.173348">
        <ele>5.526127</ele>
        <time>2026-08-02T23:35:51.956Z</time>
      </trkpt>
      <trkpt lat="52.133164" lon="6.173310">
        <ele>5.491947</ele>
        <time>2026-08-02T23:35:55.082Z</time>
      </trkpt>
      <trkpt lat="52.132595" lon="6.173027">
        <ele>5.401658</ele>
        <time>2026-08-02T23:36:03.266Z</time>
      </trkpt>
      <trkpt lat="52.132357" lon="6.172811">
        <ele>5.360311</ele>
        <time>2026-08-02T23:36:07.035Z</time>
      </trkpt>
      <trkpt lat="52.130475" lon="6.170677">
        <ele>5.979964</ele>
        <time>2026-08-02T23:36:43.937Z</time>
      </trkpt>
      <trkpt lat="52.130339" lon="6.170403">
        <ele>6.070785</ele>
        <time>2026-08-02T23:36:47.738Z</time>
      </trkpt>
      <trkpt lat="52.129968" lon="6.169324">
        <ele>6.389551</ele>
        <time>2026-08-02T23:37:00.708Z</time>
      </trkpt>
      <trkpt lat="52.129801" lon="6.169083">
        <ele>6.483229</ele>
        <time>2026-08-02T23:37:04.401Z</time>
      </trkpt>
      <trkpt lat="52.128934" lon="6.168655">
        <ele>6.380964</ele>
        <time>2026-08-02T23:37:18.156Z</time>
      </trkpt>
      <trkpt lat="52.128293" lon="6.168472">
        <ele>6.214903</ele>
        <time>2026-08-02T23:37:26.906Z</time>
      </trkpt>
      <trkpt lat="52.127898" lon="6.168475">
        <ele>6.114108</ele>
        <time>2026-08-02T23:37:31.844Z</time>
      </trkpt>
      <trkpt lat="52.127342" lon="6.168650">
        <ele>5.962827</ele>
        <time>2026-08-02T23:37:39.296Z</time>
      </trkpt>
      <trkpt lat="52.127045" lon="6.168621">
        <ele>5.883087</ele>
        <time>2026-08-02T23:37:43.344Z</time>
      </trkpt>
      <trkpt lat="52.126896" lon="6.169213">
        <ele>5.777817</ele>
        <time>2026-08-02T23:37:48.800Z</time>
      </trkpt>
      <trkpt lat="52.126771" lon="6.169494">
        <ele>5.720722</ele>
        <time>2026-08-02T23:37:51.812Z</time>
      </trkpt>
      <trkpt lat="52.126686" lon="6.169626">
        <ele>5.689248</ele>
        <time>2026-08-02T23:37:53.535Z</time>
      </trkpt>
      <trkpt lat="52.125904" lon="6.170538">
        <ele>5.873207</ele>
        <time>2026-08-02T23:38:09.191Z</time>
      </trkpt>
      <trkpt lat="52.124979" lon="6.171273">
        <ele>6.235589</ele>
        <time>2026-08-02T23:38:25.995Z</time>
      </trkpt>
      <trkpt lat="52.124297" lon="6.171831">
        <ele>6.569874</ele>
        <time>2026-08-02T23:38:38.763Z</time>
      </trkpt>
      <trkpt lat="52.123505" lon="6.172604">
        <ele>6.980698</ele>
        <time>2026-08-02T23:38:54.240Z</time>
      </trkpt>
      <trkpt lat="52.123162" lon="6.172762">
        <ele>7.066257</ele>
        <time>2026-08-02T23:39:00.048Z</time>
      </trkpt>
      <trkpt lat="52.123047" lon="6.172759">
        <ele>7.072556</ele>
        <time>2026-08-02T23:39:01.861Z</time>
      </trkpt>
      <trkpt lat="52.122625" lon="6.172610">
        <ele>7.096205</ele>
        <time>2026-08-02T23:39:08.557Z</time>
      </trkpt>
      <trkpt lat="52.122522" lon="6.172645">
        <ele>7.101967</ele>
        <time>2026-08-02T23:39:10.142Z</time>
      </trkpt>
      <trkpt lat="52.122475" lon="6.172719">
        <ele>7.105547</ele>
        <time>2026-08-02T23:39:11.119Z</time>
      </trkpt>
      <trkpt lat="52.122462" lon="6.172824">
        <ele>7.109149</ele>
        <time>2026-08-02T23:39:12.109Z</time>
      </trkpt>
      <trkpt lat="52.122391" lon="6.173109">
        <ele>7.119491</ele>
        <time>2026-08-02T23:39:14.861Z</time>
      </trkpt>
      <trkpt lat="52.122355" lon="6.173419">
        <ele>7.130100</ele>
        <time>2026-08-02T23:39:17.628Z</time>
      </trkpt>
      <trkpt lat="52.122363" lon="6.173687">
        <ele>7.139122</ele>
        <time>2026-08-02T23:39:20.005Z</time>
      </trkpt>
      <trkpt lat="52.122334" lon="6.173966">
        <ele>7.148637</ele>
        <time>2026-08-02T23:39:22.475Z</time>
      </trkpt>
      <trkpt lat="52.122294" lon="6.174098">
        <ele>7.153587</ele>
        <time>2026-08-02T23:39:23.743Z</time>
      </trkpt>
      <trkpt lat="52.122203" lon="6.174229">
        <ele>7.136527</ele>
        <time>2026-08-02T23:39:25.431Z</time>
      </trkpt>
      <trkpt lat="52.122113" lon="6.174283">
        <ele>7.120036</ele>
        <time>2026-08-02T23:39:26.763Z</time>
      </trkpt>
      <trkpt lat="52.121994" lon="6.174276">
        <ele>7.099561</ele>
        <time>2026-08-02T23:39:28.400Z</time>
      </trkpt>
      <trkpt lat="52.120960" lon="6.173960">
        <ele>6.918665</ele>
        <time>2026-08-02T23:39:43.206Z</time>
      </trkpt>
      <trkpt lat="52.120772" lon="6.173929">
        <ele>6.886174</ele>
        <time>2026-08-02T23:39:45.922Z</time>
      </trkpt>
      <trkpt lat="52.120491" lon="6.173950">
        <ele>6.846347</ele>
        <time>2026-08-02T23:39:50.011Z</time>
      </trkpt>
      <trkpt lat="52.119969" lon="6.174185">
        <ele>6.860203</ele>
        <time>2026-08-02T23:39:57.986Z</time>
      </trkpt>
      <trkpt lat="52.118681" lon="6.175147">
        <ele>6.959522</ele>
        <time>2026-08-02T23:40:19.333Z</time>
      </trkpt>
      <trkpt lat="52.118490" lon="6.175360">
        <ele>7.037305</ele>
        <time>2026-08-02T23:40:22.870Z</time>
      </trkpt>
      <trkpt lat="52.118273" lon="6.175880">
        <ele>7.167027</ele>
        <time>2026-08-02T23:40:28.836Z</time>
      </trkpt>
      <trkpt lat="52.118241" lon="6.176014">
        <ele>7.196692</ele>
        <time>2026-08-02T23:40:30.209Z</time>
      </trkpt>
      <trkpt lat="52.118040" lon="6.178108">
        <ele>7.780323</ele>
        <time>2026-08-02T23:40:52.188Z</time>
      </trkpt>
      <trkpt lat="52.117996" lon="6.178595">
        <ele>7.989309</ele>
        <time>2026-08-02T23:40:57.804Z</time>
      </trkpt>
      <trkpt lat="52.117980" lon="6.178782">
        <ele>8.069469</ele>
        <time>2026-08-02T23:40:59.952Z</time>
      </trkpt>
      <trkpt lat="52.117926" lon="6.179391">
        <ele>8.330708</ele>
        <time>2026-08-02T23:41:06.882Z</time>
      </trkpt>
      <trkpt lat="52.117910" lon="6.179901">
        <ele>8.547516</ele>
        <time>2026-08-02T23:41:12.514Z</time>
      </trkpt>
      <trkpt lat="52.117964" lon="6.180282">
        <ele>8.713526</ele>
        <time>2026-08-02T23:41:16.789Z</time>
      </trkpt>
      <trkpt lat="52.118135" lon="6.181156">
        <ele>8.612707</ele>
        <time>2026-08-02T23:41:26.108Z</time>
      </trkpt>
      <trkpt lat="52.118161" lon="6.181506">
        <ele>8.560629</ele>
        <time>2026-08-02T23:41:29.207Z</time>
      </trkpt>
      <trkpt lat="52.118119" lon="6.181776">
        <ele>8.519486</ele>
        <time>2026-08-02T23:41:31.551Z</time>
      </trkpt>
      <trkpt lat="52.117947" lon="6.182129">
        <ele>8.452920</ele>
        <time>2026-08-02T23:41:35.182Z</time>
      </trkpt>
      <trkpt lat="52.117789" lon="6.182274">
        <ele>8.409291</ele>
        <time>2026-08-02T23:41:37.507Z</time>
      </trkpt>
      <trkpt lat="52.117175" lon="6.182606">
        <ele>8.145670</ele>
        <time>2026-08-02T23:41:45.550Z</time>
      </trkpt>
      <trkpt lat="52.116302" lon="6.183105">
        <ele>7.468824</ele>
        <time>2026-08-02T23:41:57.196Z</time>
      </trkpt>
      <trkpt lat="52.115844" lon="6.183294">
        <ele>7.123180</ele>
        <time>2026-08-02T23:42:03.319Z</time>
      </trkpt>
      <trkpt lat="52.115502" lon="6.183275">
        <ele>6.900142</ele>
        <time>2026-08-02T23:42:07.801Z</time>
      </trkpt>
      <trkpt lat="52.115498" lon="6.183394">
        <ele>6.859000</ele>
        <time>2026-08-02T23:42:09.148Z</time>
      </trkpt>
      <trkpt lat="52.115470" lon="6.183440">
        <ele>6.836640</ele>
        <time>2026-08-02T23:42:09.878Z</time>
      </trkpt>
      <trkpt lat="52.115320" lon="6.183603">
        <ele>6.735263</ele>
        <time>2026-08-02T23:42:13.233Z</time>
      </trkpt>
      <trkpt lat="52.114386" lon="6.185199">
        <ele>5.979627</ele>
        <time>2026-08-02T23:42:37.849Z</time>
      </trkpt>
      <trkpt lat="52.113915" lon="6.186126">
        <ele>5.981997</ele>
        <time>2026-08-02T23:42:52.048Z</time>
      </trkpt>
      <trkpt lat="52.112439" lon="6.188800">
        <ele>6.336204</ele>
        <time>2026-08-02T23:43:39.035Z</time>
      </trkpt>
      <trkpt lat="52.111321" lon="6.190843">
        <ele>6.871586</ele>
        <time>2026-08-02T23:44:15.688Z</time>
      </trkpt>
      <trkpt lat="52.111189" lon="6.191069">
        <ele>6.934446</ele>
        <time>2026-08-02T23:44:19.789Z</time>
      </trkpt>
      <trkpt lat="52.111127" lon="6.191174">
        <ele>6.963803</ele>
        <time>2026-08-02T23:44:21.690Z</time>
      </trkpt>
      <trkpt lat="52.110796" lon="6.191626">
        <ele>7.105576</ele>
        <time>2026-08-02T23:44:30.871Z</time>
      </trkpt>
      <trkpt lat="52.110685" lon="6.191918">
        <ele>7.148950</ele>
        <time>2026-08-02T23:44:35.312Z</time>
      </trkpt>
      <trkpt lat="52.110271" lon="6.192642">
        <ele>7.253153</ele>
        <time>2026-08-02T23:44:48.089Z</time>
      </trkpt>
      <trkpt lat="52.109026" lon="6.194368">
        <ele>7.473351</ele>
        <time>2026-08-02T23:45:22.174Z</time>
      </trkpt>
      <trkpt lat="52.108764" lon="6.194770">
        <ele>7.499476</ele>
        <time>2026-08-02T23:45:29.546Z</time>
      </trkpt>
      <trkpt lat="52.108419" lon="6.195429">
        <ele>7.538071</ele>
        <time>2026-08-02T23:45:40.400Z</time>
      </trkpt>
      <trkpt lat="52.107841" lon="6.196726">
        <ele>7.515564</ele>
        <time>2026-08-02T23:46:00.064Z</time>
      </trkpt>
      <trkpt lat="52.106763" lon="6.198880">
        <ele>7.551152</ele>
        <time>2026-08-02T23:46:33.905Z</time>
      </trkpt>
      <trkpt lat="52.106522" lon="6.199259">
        <ele>7.611537</ele>
        <time>2026-08-02T23:46:41.072Z</time>
      </trkpt>
      <trkpt lat="52.105658" lon="6.200336">
        <ele>7.723971</ele>
        <time>2026-08-02T23:47:04.937Z</time>
      </trkpt>
      <trkpt lat="52.105468" lon="6.200556">
        <ele>7.676834</ele>
        <time>2026-08-02T23:47:09.733Z</time>
      </trkpt>
      <trkpt lat="52.105397" lon="6.200570">
        <ele>7.662375</ele>
        <time>2026-08-02T23:47:11.151Z</time>
      </trkpt>
      <trkpt lat="52.105326" lon="6.200522">
        <ele>7.646833</ele>
        <time>2026-08-02T23:47:12.657Z</time>
      </trkpt>
      <trkpt lat="52.105213" lon="6.200356">
        <ele>7.616062</ele>
        <time>2026-08-02T23:47:15.571Z</time>
      </trkpt>
      <trkpt lat="52.105098" lon="6.200507">
        <ele>7.586193</ele>
        <time>2026-08-02T23:47:18.377Z</time>
      </trkpt>
      <trkpt lat="52.104668" lon="6.200820">
        <ele>7.490965</ele>
        <time>2026-08-02T23:47:27.145Z</time>
      </trkpt>
      <trkpt lat="52.104350" lon="6.201250">
        <ele>7.407391</ele>
        <time>2026-08-02T23:47:34.737Z</time>
      </trkpt>
      <trkpt lat="52.104263" lon="6.201341">
        <ele>7.389423</ele>
        <time>2026-08-02T23:47:36.660Z</time>
      </trkpt>
      <trkpt lat="52.103960" lon="6.201514">
        <ele>7.335053</ele>
        <time>2026-08-02T23:47:42.674Z</time>
      </trkpt>
      <trkpt lat="52.103464" lon="6.201655">
        <ele>7.249797</ele>
        <time>2026-08-02T23:47:52.477Z</time>
      </trkpt>
      <trkpt lat="52.103075" lon="6.201756">
        <ele>7.183096</ele>
        <time>2026-08-02T23:48:00.549Z</time>
      </trkpt>
      <trkpt lat="52.102952" lon="6.201753">
        <ele>7.162267</ele>
        <time>2026-08-02T23:48:03.060Z</time>
      </trkpt>
      <trkpt lat="52.102826" lon="6.201629">
        <ele>7.137336</ele>
        <time>2026-08-02T23:48:06.094Z</time>
      </trkpt>
      <trkpt lat="52.102582" lon="6.201131">
        <ele>7.107040</ele>
        <time>2026-08-02T23:48:14.009Z</time>
      </trkpt>
      <trkpt lat="52.102525" lon="6.201112">
        <ele>7.109433</ele>
        <time>2026-08-02T23:48:15.193Z</time>
      </trkpt>
      <trkpt lat="52.102427" lon="6.201166">
        <ele>7.113689</ele>
        <time>2026-08-02T23:48:17.268Z</time>
      </trkpt>
      <trkpt lat="52.101647" lon="6.201936">
        <ele>7.151212</ele>
        <time>2026-08-02T23:48:35.704Z</time>
      </trkpt>
      <trkpt lat="52.101582" lon="6.201964">
        <ele>7.153977</ele>
        <time>2026-08-02T23:48:37.074Z</time>
      </trkpt>
      <trkpt lat="52.101511" lon="6.201921">
        <ele>7.157093</ele>
        <time>2026-08-02T23:48:38.600Z</time>
      </trkpt>
      <trkpt lat="52.101432" lon="6.201813">
        <ele>7.161337</ele>
        <time>2026-08-02T23:48:40.714Z</time>
      </trkpt>
      <trkpt lat="52.101041" lon="6.201035">
        <ele>7.195692</ele>
        <time>2026-08-02T23:48:53.627Z</time>
      </trkpt>
      <trkpt lat="52.100843" lon="6.200638">
        <ele>7.217698</ele>
        <time>2026-08-02T23:49:00.226Z</time>
      </trkpt>
      <trkpt lat="52.100697" lon="6.200511">
        <ele>7.229294</ele>
        <time>2026-08-02T23:49:03.665Z</time>
      </trkpt>
      <trkpt lat="52.100598" lon="6.200502">
        <ele>7.236240</ele>
        <time>2026-08-02T23:49:05.710Z</time>
      </trkpt>
      <trkpt lat="52.100097" lon="6.200637">
        <ele>7.271815</ele>
        <time>2026-08-02T23:49:15.960Z</time>
      </trkpt>
      <trkpt lat="52.099706" lon="6.200771">
        <ele>7.299807</ele>
        <time>2026-08-02T23:49:23.908Z</time>
      </trkpt>
      <trkpt lat="52.099542" lon="6.200763">
        <ele>7.305424</ele>
        <time>2026-08-02T23:49:27.194Z</time>
      </trkpt>
      <trkpt lat="52.099260" lon="6.200629">
        <ele>7.315302</ele>
        <time>2026-08-02T23:49:33.067Z</time>
      </trkpt>
      <trkpt lat="52.099021" lon="6.200362">
        <ele>7.325049</ele>
        <time>2026-08-02T23:49:38.865Z</time>
      </trkpt>
      <trkpt lat="52.098515" lon="6.199604">
        <ele>7.348172</ele>
        <time>2026-08-02T23:49:53.068Z</time>
      </trkpt>
      <trkpt lat="52.097209" lon="6.198499">
        <ele>7.260259</ele>
        <time>2026-08-02T23:50:23.649Z</time>
      </trkpt>
      <trkpt lat="52.096448" lon="6.198016">
        <ele>7.153514</ele>
        <time>2026-08-02T23:50:38.938Z</time>
      </trkpt>
      <trkpt lat="52.095984" lon="6.197825">
        <ele>6.983850</ele>
        <time>2026-08-02T23:50:47.658Z</time>
      </trkpt>
      <trkpt lat="52.095497" lon="6.197521">
        <ele>6.798950</ele>
        <time>2026-08-02T23:50:57.349Z</time>
      </trkpt>
      <trkpt lat="52.094245" lon="6.196456">
        <ele>6.516218</ele>
        <time>2026-08-02T23:51:25.438Z</time>
      </trkpt>
      <trkpt lat="52.094107" lon="6.196308">
        <ele>6.506449</ele>
        <time>2026-08-02T23:51:28.787Z</time>
      </trkpt>
      <trkpt lat="52.093962" lon="6.196039">
        <ele>6.493453</ele>
        <time>2026-08-02T23:51:33.228Z</time>
      </trkpt>
      <trkpt lat="52.093799" lon="6.195598">
        <ele>6.474761</ele>
        <time>2026-08-02T23:51:39.546Z</time>
      </trkpt>
      <trkpt lat="52.093666" lon="6.195090">
        <ele>6.454706</ele>
        <time>2026-08-02T23:51:46.266Z</time>
      </trkpt>
      <trkpt lat="52.093141" lon="6.191912">
        <ele>6.206645</ele>
        <time>2026-08-02T23:52:25.955Z</time>
      </trkpt>
      <trkpt lat="52.092908" lon="6.190499">
        <ele>6.316273</ele>
        <time>2026-08-02T23:52:44.490Z</time>
      </trkpt>
      <trkpt lat="52.092807" lon="6.189600">
        <ele>6.384755</ele>
        <time>2026-08-02T23:52:56.279Z</time>
      </trkpt>
      <trkpt lat="52.092531" lon="6.188164">
        <ele>6.624594</ele>
        <time>2026-08-02T23:53:16.455Z</time>
      </trkpt>
      <trkpt lat="52.092522" lon="6.187910">
        <ele>6.668824</ele>
        <time>2026-08-02T23:53:19.892Z</time>
      </trkpt>
      <trkpt lat="52.092502" lon="6.187719">
        <ele>6.702508</ele>
        <time>2026-08-02T23:53:22.470Z</time>
      </trkpt>
      <trkpt lat="52.092378" lon="6.186317">
        <ele>6.900894</ele>
        <time>2026-08-02T23:53:40.807Z</time>
      </trkpt>
      <trkpt lat="52.092240" lon="6.184005">
        <ele>6.803946</ele>
        <time>2026-08-02T23:54:08.882Z</time>
      </trkpt>
      <trkpt lat="52.092301" lon="6.183822">
        <ele>6.795257</ele>
        <time>2026-08-02T23:54:11.459Z</time>
      </trkpt>
      <trkpt lat="52.092175" lon="6.183589">
        <ele>6.780474</ele>
        <time>2026-08-02T23:54:14.195Z</time>
      </trkpt>
      <trkpt lat="52.092137" lon="6.183251">
        <ele>6.761510</ele>
        <time>2026-08-02T23:54:17.246Z</time>
      </trkpt>
      <trkpt lat="52.092165" lon="6.182997">
        <ele>6.747269</ele>
        <time>2026-08-02T23:54:19.545Z</time>
      </trkpt>
      <trkpt lat="52.092223" lon="6.182752">
        <ele>6.732779</ele>
        <time>2026-08-02T23:54:21.897Z</time>
      </trkpt>
      <trkpt lat="52.092338" lon="6.182558">
        <ele>6.717902</ele>
        <time>2026-08-02T23:54:24.325Z</time>
      </trkpt>
      <trkpt lat="52.092405" lon="6.181818">
        <ele>6.676622</ele>
        <time>2026-08-02T23:54:30.984Z</time>
      </trkpt>
      <trkpt lat="52.092669" lon="6.180355">
        <ele>6.550104</ele>
        <time>2026-08-02T23:54:44.597Z</time>
      </trkpt>
      <trkpt lat="52.092754" lon="6.179704">
        <ele>6.467527</ele>
        <time>2026-08-02T23:54:50.354Z</time>
      </trkpt>
      <trkpt lat="52.092760" lon="6.179085">
        <ele>6.390714</ele>
        <time>2026-08-02T23:54:55.720Z</time>
      </trkpt>
      <trkpt lat="52.092671" lon="6.176103">
        <ele>6.023760</ele>
        <time>2026-08-02T23:55:21.434Z</time>
      </trkpt>
      <trkpt lat="52.092562" lon="6.175289">
        <ele>5.921871</ele>
        <time>2026-08-02T23:55:28.693Z</time>
      </trkpt>
      <trkpt lat="52.092305" lon="6.174182">
        <ele>5.966538</ele>
        <time>2026-08-02T23:55:38.967Z</time>
      </trkpt>
      <trkpt lat="52.091806" lon="6.172316">
        <ele>6.120081</ele>
        <time>2026-08-02T23:55:58.270Z</time>
      </trkpt>
      <trkpt lat="52.091522" lon="6.171457">
        <ele>6.393392</ele>
        <time>2026-08-02T23:56:08.715Z</time>
      </trkpt>
      <trkpt lat="52.091437" lon="6.171032">
        <ele>6.518620</ele>
        <time>2026-08-02T23:56:13.637Z</time>
      </trkpt>
      <trkpt lat="52.091397" lon="6.170801">
        <ele>6.585864</ele>
        <time>2026-08-02T23:56:16.274Z</time>
      </trkpt>
      <trkpt lat="52.091177" lon="6.170183">
        <ele>6.785984</ele>
        <time>2026-08-02T23:56:23.824Z</time>
      </trkpt>
      <trkpt lat="52.091093" lon="6.169867">
        <ele>6.882455</ele>
        <time>2026-08-02T23:56:27.099Z</time>
      </trkpt>
      <trkpt lat="52.091074" lon="6.169775">
        <ele>6.896748</ele>
        <time>2026-08-02T23:56:27.953Z</time>
      </trkpt>
      <trkpt lat="52.091093" lon="6.169867">
        <ele>6.895935</ele>
        <time>2026-08-02T23:56:28.823Z</time>
      </trkpt>
      <trkpt lat="52.091177" lon="6.170183">
        <ele>6.893050</ele>
        <time>2026-08-02T23:56:31.863Z</time>
      </trkpt>
      <trkpt lat="52.091397" lon="6.170801">
        <ele>6.887066</ele>
        <time>2026-08-02T23:56:38.204Z</time>
      </trkpt>
      <trkpt lat="52.091333" lon="6.170764">
        <ele>6.886140</ele>
        <time>2026-08-02T23:56:39.529Z</time>
      </trkpt>
      <trkpt lat="52.091206" lon="6.170511">
        <ele>6.883403</ele>
        <time>2026-08-02T23:56:43.480Z</time>
      </trkpt>
      <trkpt lat="52.090970" lon="6.169846">
        <ele>6.876969</ele>
        <time>2026-08-02T23:56:52.746Z</time>
      </trkpt>
      <trkpt lat="52.090058" lon="6.166377">
        <ele>7.189482</ele>
        <time>2026-08-02T23:57:40.939Z</time>
      </trkpt>
      <trkpt lat="52.089800" lon="6.165612">
        <ele>7.341318</ele>
        <time>2026-08-02T23:57:52.622Z</time>
      </trkpt>
      <trkpt lat="52.089383" lon="6.164746">
        <ele>7.532754</ele>
        <time>2026-08-02T23:58:07.901Z</time>
      </trkpt>
      <trkpt lat="52.088808" lon="6.163718">
        <ele>7.132631</ele>
        <time>2026-08-02T23:58:24.915Z</time>
      </trkpt>
      <trkpt lat="52.088758" lon="6.163665">
        <ele>7.067452</ele>
        <time>2026-08-02T23:58:25.953Z</time>
      </trkpt>
      <trkpt lat="52.088827" lon="6.163360">
        <ele>6.849314</ele>
        <time>2026-08-02T23:58:29.391Z</time>
      </trkpt>
      <trkpt lat="52.087896" lon="6.162973">
        <ele>5.799720</ele>
        <time>2026-08-02T23:58:40.305Z</time>
      </trkpt>
      <trkpt lat="52.087404" lon="6.162666">
        <ele>5.662179</ele>
        <time>2026-08-02T23:58:46.225Z</time>
      </trkpt>
      <trkpt lat="52.086900" lon="6.162299">
        <ele>5.641442</ele>
        <time>2026-08-02T23:58:53.517Z</time>
      </trkpt>
      <trkpt lat="52.086394" lon="6.161863">
        <ele>5.619939</ele>
        <time>2026-08-02T23:59:04.018Z</time>
      </trkpt>
      <trkpt lat="52.085275" lon="6.160827">
        <ele>6.749265</ele>
        <time>2026-08-02T23:59:31.181Z</time>
      </trkpt>
      <trkpt lat="52.085276" lon="6.160616">
        <ele>6.892826</ele>
        <time>2026-08-02T23:59:33.723Z</time>
      </trkpt>
      <trkpt lat="52.085270" lon="6.160363">
        <ele>7.065087</ele>
        <time>2026-08-02T23:59:36.645Z</time>
      </trkpt>
      <trkpt lat="52.085223" lon="6.160162">
        <ele>7.211408</ele>
        <time>2026-08-02T23:59:39.037Z</time>
      </trkpt>
      <trkpt lat="52.084595" lon="6.158975">
        <ele>7.644685</ele>
        <time>2026-08-02T23:59:54.021Z</time>
      </trkpt>
      <trkpt lat="52.082543" lon="6.154723">
        <ele>7.771432</ele>
        <time>2026-08-03T00:00:42.747Z</time>
      </trkpt>
      <trkpt lat="52.081976" lon="6.153678">
        <ele>8.038888</ele>
        <time>2026-08-03T00:00:56.990Z</time>
      </trkpt>
      <trkpt lat="52.082087" lon="6.153578">
        <ele>8.078499</ele>
        <time>2026-08-03T00:00:59.159Z</time>
      </trkpt>
      <trkpt lat="52.082143" lon="6.153528">
        <ele>8.098441</ele>
        <time>2026-08-03T00:01:00.222Z</time>
      </trkpt>
      <trkpt lat="52.082231" lon="6.153415">
        <ele>8.133439</ele>
        <time>2026-08-03T00:01:02.100Z</time>
      </trkpt>
      <trkpt lat="52.082288" lon="6.153225">
        <ele>8.174003</ele>
        <time>2026-08-03T00:01:04.275Z</time>
      </trkpt>
      <trkpt lat="52.082249" lon="6.153054">
        <ele>8.208998</ele>
        <time>2026-08-03T00:01:06.104Z</time>
      </trkpt>
      <trkpt lat="52.082225" lon="6.152956">
        <ele>8.228450</ele>
        <time>2026-08-03T00:01:07.143Z</time>
      </trkpt>
      <trkpt lat="52.082206" lon="6.152837">
        <ele>8.230703</ele>
        <time>2026-08-03T00:01:08.365Z</time>
      </trkpt>
      <trkpt lat="52.082229" lon="6.152724">
        <ele>8.232884</ele>
        <time>2026-08-03T00:01:09.513Z</time>
      </trkpt>
      <trkpt lat="52.082312" lon="6.152220">
        <ele>8.242443</ele>
        <time>2026-08-03T00:01:14.469Z</time>
      </trkpt>
      <trkpt lat="52.082159" lon="6.152175">
        <ele>8.247079</ele>
        <time>2026-08-03T00:01:17.659Z</time>
      </trkpt>
      <trkpt lat="52.082092" lon="6.152108">
        <ele>8.249423</ele>
        <time>2026-08-03T00:01:19.209Z</time>
      </trkpt>
      <trkpt lat="52.081756" lon="6.151350">
        <ele>8.266547</ele>
        <time>2026-08-03T00:01:30.752Z</time>
      </trkpt>
      <trkpt lat="52.081686" lon="6.151197">
        <ele>8.270042</ele>
        <time>2026-08-03T00:01:32.457Z</time>
      </trkpt>
      <trkpt lat="52.081513" lon="6.150839">
        <ele>8.278386</ele>
        <time>2026-08-03T00:01:36.463Z</time>
      </trkpt>
      <trkpt lat="52.081196" lon="6.150183">
        <ele>8.295644</ele>
        <time>2026-08-03T00:01:43.834Z</time>
      </trkpt>
      <trkpt lat="52.080814" lon="6.149574">
        <ele>8.314273</ele>
        <time>2026-08-03T00:01:51.623Z</time>
      </trkpt>
      <trkpt lat="52.080385" lon="6.149102">
        <ele>8.332313</ele>
        <time>2026-08-03T00:01:59.304Z</time>
      </trkpt>
      <trkpt lat="52.080022" lon="6.148810">
        <ele>8.368245</ele>
        <time>2026-08-03T00:02:05.664Z</time>
      </trkpt>
      <trkpt lat="52.079383" lon="6.148428">
        <ele>8.684125</ele>
        <time>2026-08-03T00:02:16.857Z</time>
      </trkpt>
      <trkpt lat="52.079293" lon="6.148376">
        <ele>8.728441</ele>
        <time>2026-08-03T00:02:18.504Z</time>
      </trkpt>
      <trkpt lat="52.079113" lon="6.148247">
        <ele>8.819705</ele>
        <time>2026-08-03T00:02:21.884Z</time>
      </trkpt>
      <trkpt lat="52.078929" lon="6.148066">
        <ele>8.919472</ele>
        <time>2026-08-03T00:02:25.608Z</time>
      </trkpt>
      <trkpt lat="52.078248" lon="6.147188">
        <ele>9.261771</ele>
        <time>2026-08-03T00:02:40.542Z</time>
      </trkpt>
      <trkpt lat="52.078143" lon="6.147067">
        <ele>9.296134</ele>
        <time>2026-08-03T00:02:42.601Z</time>
      </trkpt>
      <trkpt lat="52.077748" lon="6.146547">
        <ele>9.431828</ele>
        <time>2026-08-03T00:02:50.522Z</time>
      </trkpt>
      <trkpt lat="52.077547" lon="6.146014">
        <ele>9.534469</ele>
        <time>2026-08-03T00:02:56.375Z</time>
      </trkpt>
      <trkpt lat="52.077287" lon="6.145437">
        <ele>9.651905</ele>
        <time>2026-08-03T00:03:03.133Z</time>
      </trkpt>
      <trkpt lat="52.077164" lon="6.145056">
        <ele>9.712622</ele>
        <time>2026-08-03T00:03:07.234Z</time>
      </trkpt>
      <trkpt lat="52.076503" lon="6.142500">
        <ele>10.062398</ele>
        <time>2026-08-03T00:03:34.373Z</time>
      </trkpt>
      <trkpt lat="52.076438" lon="6.142090">
        <ele>10.059010</ele>
        <time>2026-08-03T00:03:38.311Z</time>
      </trkpt>
      <trkpt lat="52.076432" lon="6.141784">
        <ele>10.056560</ele>
        <time>2026-08-03T00:03:41.126Z</time>
      </trkpt>
      <trkpt lat="52.076566" lon="6.141097">
        <ele>10.050792</ele>
        <time>2026-08-03T00:03:47.660Z</time>
      </trkpt>
      <trkpt lat="52.076769" lon="6.140599">
        <ele>10.046010</ele>
        <time>2026-08-03T00:03:52.977Z</time>
      </trkpt>
      <trkpt lat="52.077007" lon="6.140219">
        <ele>10.041669</ele>
        <time>2026-08-03T00:03:57.699Z</time>
      </trkpt>
      <trkpt lat="52.077110" lon="6.140041">
        <ele>10.018868</ele>
        <time>2026-08-03T00:03:59.797Z</time>
      </trkpt>
      <trkpt lat="52.077157" lon="6.139901">
        <ele>9.993586</ele>
        <time>2026-08-03T00:04:01.170Z</time>
      </trkpt>
      <trkpt lat="52.077370" lon="6.139260">
        <ele>9.878103</ele>
        <time>2026-08-03T00:04:07.515Z</time>
      </trkpt>
      <trkpt lat="52.077392" lon="6.138928">
        <ele>9.825182</ele>
        <time>2026-08-03T00:04:10.445Z</time>
      </trkpt>
      <trkpt lat="52.077339" lon="6.138692">
        <ele>9.785362</ele>
        <time>2026-08-03T00:04:12.627Z</time>
      </trkpt>
      <trkpt lat="52.077269" lon="6.138556">
        <ele>9.757249</ele>
        <time>2026-08-03T00:04:14.160Z</time>
      </trkpt>
      <trkpt lat="52.076707" lon="6.137900">
        <ele>9.578896</ele>
        <time>2026-08-03T00:04:23.726Z</time>
      </trkpt>
      <trkpt lat="52.077339" lon="6.136649">
        <ele>9.343432</ele>
        <time>2026-08-03T00:04:42.407Z</time>
      </trkpt>
      <trkpt lat="52.077388" lon="6.136396">
        <ele>9.304888</ele>
        <time>2026-08-03T00:04:45.552Z</time>
      </trkpt>
      <trkpt lat="52.077381" lon="6.136354">
        <ele>9.298565</ele>
        <time>2026-08-03T00:04:46.075Z</time>
      </trkpt>
      <trkpt lat="52.077334" lon="6.136072">
        <ele>9.256109</ele>
        <time>2026-08-03T00:04:49.575Z</time>
      </trkpt>
      <trkpt lat="52.077181" lon="6.135807">
        <ele>9.203277</ele>
        <time>2026-08-03T00:04:53.983Z</time>
      </trkpt>
      <trkpt lat="52.076280" lon="6.134670">
        <ele>9.078798</ele>
        <time>2026-08-03T00:05:17.445Z</time>
      </trkpt>
      <trkpt lat="52.075908" lon="6.134212">
        <ele>9.041889</ele>
        <time>2026-08-03T00:05:26.692Z</time>
      </trkpt>
      <trkpt lat="52.075538" lon="6.133814">
        <ele>9.002885</ele>
        <time>2026-08-03T00:05:35.206Z</time>
      </trkpt>
      <trkpt lat="52.075065" lon="6.133350">
        <ele>8.895317</ele>
        <time>2026-08-03T00:05:45.695Z</time>
      </trkpt>
      <trkpt lat="52.073931" lon="6.132203">
        <ele>8.664594</ele>
        <time>2026-08-03T00:06:04.673Z</time>
      </trkpt>
      <trkpt lat="52.071832" lon="6.131536">
        <ele>8.664255</ele>
        <time>2026-08-03T00:06:37.118Z</time>
      </trkpt>
      <trkpt lat="52.071434" lon="6.131455">
        <ele>8.599845</ele>
        <time>2026-08-03T00:06:42.827Z</time>
      </trkpt>
      <trkpt lat="52.070979" lon="6.131476">
        <ele>8.526751</ele>
        <time>2026-08-03T00:06:49.055Z</time>
      </trkpt>
      <trkpt lat="52.070603" lon="6.131329">
        <ele>8.464654</ele>
        <time>2026-08-03T00:06:54.301Z</time>
      </trkpt>
      <trkpt lat="52.070352" lon="6.131192">
        <ele>8.472232</ele>
        <time>2026-08-03T00:06:57.959Z</time>
      </trkpt>
      <trkpt lat="52.070193" lon="6.131064">
        <ele>8.495441</ele>
        <time>2026-08-03T00:07:00.458Z</time>
      </trkpt>
      <trkpt lat="52.070044" lon="6.130863">
        <ele>8.520765</ele>
        <time>2026-08-03T00:07:03.182Z</time>
      </trkpt>
      <trkpt lat="52.069259" lon="6.129568">
        <ele>8.667032</ele>
        <time>2026-08-03T00:07:20.602Z</time>
      </trkpt>
      <trkpt lat="52.069135" lon="6.129157">
        <ele>8.741861</ele>
        <time>2026-08-03T00:07:25.583Z</time>
      </trkpt>
      <trkpt lat="52.068996" lon="6.128297">
        <ele>8.958018</ele>
        <time>2026-08-03T00:07:35.401Z</time>
      </trkpt>
      <trkpt lat="52.068826" lon="6.127800">
        <ele>9.096274</ele>
        <time>2026-08-03T00:07:41.479Z</time>
      </trkpt>
      <trkpt lat="52.068699" lon="6.127487">
        <ele>9.187440</ele>
        <time>2026-08-03T00:07:45.287Z</time>
      </trkpt>
      <trkpt lat="52.068521" lon="6.127137">
        <ele>9.297862</ele>
        <time>2026-08-03T00:07:49.674Z</time>
      </trkpt>
      <trkpt lat="52.068461" lon="6.126959">
        <ele>9.347210</ele>
        <time>2026-08-03T00:07:51.553Z</time>
      </trkpt>
      <trkpt lat="52.068733" lon="6.125385">
        <ele>9.390084</ele>
        <time>2026-08-03T00:08:05.827Z</time>
      </trkpt>
      <trkpt lat="52.069395" lon="6.121979">
        <ele>9.572741</ele>
        <time>2026-08-03T00:08:38.833Z</time>
      </trkpt>
      <trkpt lat="52.069560" lon="6.121290">
        <ele>9.640009</ele>
        <time>2026-08-03T00:08:46.230Z</time>
      </trkpt>
      <trkpt lat="52.070245" lon="6.119143">
        <ele>10.008200</ele>
        <time>2026-08-03T00:09:10.149Z</time>
      </trkpt>
      <trkpt lat="52.070439" lon="6.118517">
        <ele>10.116860</ele>
        <time>2026-08-03T00:09:16.656Z</time>
      </trkpt>
      <trkpt lat="52.070760" lon="6.117479">
        <ele>10.296477</ele>
        <time>2026-08-03T00:09:27.666Z</time>
      </trkpt>
      <trkpt lat="52.071537" lon="6.115047">
        <ele>10.493022</ele>
        <time>2026-08-03T00:09:54.948Z</time>
      </trkpt>
      <trkpt lat="52.071957" lon="6.113711">
        <ele>10.404443</ele>
        <time>2026-08-03T00:10:07.697Z</time>
      </trkpt>
      <trkpt lat="52.072558" lon="6.111788">
        <ele>10.130754</ele>
        <time>2026-08-03T00:10:25.371Z</time>
      </trkpt>
      <trkpt lat="52.072634" lon="6.111438">
        <ele>10.078580</ele>
        <time>2026-08-03T00:10:28.626Z</time>
      </trkpt>
      <trkpt lat="52.072770" lon="6.111390">
        <ele>10.046758</ele>
        <time>2026-08-03T00:10:30.640Z</time>
      </trkpt>
      <trkpt lat="52.072883" lon="6.111286">
        <ele>10.017070</ele>
        <time>2026-08-03T00:10:32.526Z</time>
      </trkpt>
      <trkpt lat="52.074993" lon="6.109056">
        <ele>10.473834</ele>
        <time>2026-08-03T00:11:12.166Z</time>
      </trkpt>
      <trkpt lat="52.075220" lon="6.108820">
        <ele>10.554974</ele>
        <time>2026-08-03T00:11:16.614Z</time>
      </trkpt>
      <trkpt lat="52.075680" lon="6.108430">
        <ele>10.711210</ele>
        <time>2026-08-03T00:11:25.108Z</time>
      </trkpt>
      <trkpt lat="52.076249" lon="6.108154">
        <ele>10.861952</ele>
        <time>2026-08-03T00:11:34.674Z</time>
      </trkpt>
      <trkpt lat="52.077276" lon="6.107566">
        <ele>10.891589</ele>
        <time>2026-08-03T00:11:51.050Z</time>
      </trkpt>
      <trkpt lat="52.077629" lon="6.107363">
        <ele>10.901780</ele>
        <time>2026-08-03T00:11:56.529Z</time>
      </trkpt>
      <trkpt lat="52.078274" lon="6.106605">
        <ele>10.806167</ele>
        <time>2026-08-03T00:12:07.688Z</time>
      </trkpt>
      <trkpt lat="52.078418" lon="6.106636">
        <ele>10.779847</ele>
        <time>2026-08-03T00:12:09.668Z</time>
      </trkpt>
      <trkpt lat="52.078505" lon="6.106751">
        <ele>10.759537</ele>
        <time>2026-08-03T00:12:11.208Z</time>
      </trkpt>
      <trkpt lat="52.078850" lon="6.107720">
        <ele>10.634830</ele>
        <time>2026-08-03T00:12:20.806Z</time>
      </trkpt>
      <trkpt lat="52.078980" lon="6.107970">
        <ele>10.598362</ele>
        <time>2026-08-03T00:12:23.687Z</time>
      </trkpt>
      <trkpt lat="52.079769" lon="6.109071">
        <ele>10.887008</ele>
        <time>2026-08-03T00:12:39.887Z</time>
      </trkpt>
      <trkpt lat="52.079882" lon="6.109173">
        <ele>10.928455</ele>
        <time>2026-08-03T00:12:42.105Z</time>
      </trkpt>
      <trkpt lat="52.080963" lon="6.109619">
        <ele>11.234084</ele>
        <time>2026-08-03T00:13:00.871Z</time>
      </trkpt>
      <trkpt lat="52.081526" lon="6.109943">
        <ele>11.347129</ele>
        <time>2026-08-03T00:13:10.360Z</time>
      </trkpt>
      <trkpt lat="52.082075" lon="6.110258">
        <ele>11.457325</ele>
        <time>2026-08-03T00:13:18.996Z</time>
      </trkpt>
      <trkpt lat="52.083474" lon="6.111044">
        <ele>11.340797</ele>
        <time>2026-08-03T00:13:40.938Z</time>
      </trkpt>
      <trkpt lat="52.084292" lon="6.111520">
        <ele>11.025328</ele>
        <time>2026-08-03T00:13:52.857Z</time>
      </trkpt>
      <trkpt lat="52.084373" lon="6.111567">
        <ele>10.960340</ele>
        <time>2026-08-03T00:13:53.958Z</time>
      </trkpt>
      <trkpt lat="52.084582" lon="6.111664">
        <ele>10.796100</ele>
        <time>2026-08-03T00:13:56.724Z</time>
      </trkpt>
      <trkpt lat="52.085150" lon="6.111670">
        <ele>10.366848</ele>
        <time>2026-08-03T00:14:03.696Z</time>
      </trkpt>
      <trkpt lat="52.085520" lon="6.111770">
        <ele>10.083406</ele>
        <time>2026-08-03T00:14:08.175Z</time>
      </trkpt>
      <trkpt lat="52.086060" lon="6.112220">
        <ele>9.899566</ele>
        <time>2026-08-03T00:14:15.852Z</time>
      </trkpt>
      <trkpt lat="52.086380" lon="6.112400">
        <ele>9.887564</ele>
        <time>2026-08-03T00:14:20.464Z</time>
      </trkpt>
      <trkpt lat="52.088490" lon="6.113158">
        <ele>10.248762</ele>
        <time>2026-08-03T00:14:55.814Z</time>
      </trkpt>
      <trkpt lat="52.088584" lon="6.113154">
        <ele>10.283474</ele>
        <time>2026-08-03T00:14:57.399Z</time>
      </trkpt>
      <trkpt lat="52.088555" lon="6.112281">
        <ele>10.481784</ele>
        <time>2026-08-03T00:15:06.253Z</time>
      </trkpt>
      <trkpt lat="52.088528" lon="6.111477">
        <ele>10.520685</ele>
        <time>2026-08-03T00:15:14.151Z</time>
      </trkpt>
      <trkpt lat="52.088440" lon="6.108881">
        <ele>10.482232</ele>
        <time>2026-08-03T00:15:37.417Z</time>
      </trkpt>
      <trkpt lat="52.088494" lon="6.108044">
        <ele>10.324565</ele>
        <time>2026-08-03T00:15:44.256Z</time>
      </trkpt>
      <trkpt lat="52.088580" lon="6.107270">
        <ele>10.177211</ele>
        <time>2026-08-03T00:15:50.704Z</time>
      </trkpt>
      <trkpt lat="52.088708" lon="6.106594">
        <ele>10.044691</ele>
        <time>2026-08-03T00:15:56.729Z</time>
      </trkpt>
      <trkpt lat="52.088806" lon="6.106329">
        <ele>10.009810</ele>
        <time>2026-08-03T00:15:59.464Z</time>
      </trkpt>
      <trkpt lat="52.088915" lon="6.105749">
        <ele>10.144007</ele>
        <time>2026-08-03T00:16:05.080Z</time>
      </trkpt>
      <trkpt lat="52.088909" lon="6.105522">
        <ele>10.194279</ele>
        <time>2026-08-03T00:16:07.279Z</time>
      </trkpt>
      <trkpt lat="52.088951" lon="6.105259">
        <ele>10.254403</ele>
        <time>2026-08-03T00:16:09.970Z</time>
      </trkpt>
      <trkpt lat="52.090178" lon="6.098657">
        <ele>11.804293</ele>
        <time>2026-08-03T00:17:20.318Z</time>
      </trkpt>
      <trkpt lat="52.090931" lon="6.094668">
        <ele>12.507403</ele>
        <time>2026-08-03T00:18:00.152Z</time>
      </trkpt>
      <trkpt lat="52.091120" lon="6.093657">
        <ele>12.772036</ele>
        <time>2026-08-03T00:18:11.414Z</time>
      </trkpt>
      <trkpt lat="52.091251" lon="6.093208">
        <ele>12.896507</ele>
        <time>2026-08-03T00:18:16.597Z</time>
      </trkpt>
      <trkpt lat="52.091414" lon="6.092821">
        <ele>13.014003</ele>
        <time>2026-08-03T00:18:21.485Z</time>
      </trkpt>
      <trkpt lat="52.091726" lon="6.092322">
        <ele>13.135746</ele>
        <time>2026-08-03T00:18:28.570Z</time>
      </trkpt>
      <trkpt lat="52.092034" lon="6.092031">
        <ele>13.181718</ele>
        <time>2026-08-03T00:18:34.015Z</time>
      </trkpt>
      <trkpt lat="52.094674" lon="6.089813">
        <ele>13.424792</ele>
        <time>2026-08-03T00:19:18.610Z</time>
      </trkpt>
      <trkpt lat="52.094747" lon="6.089757">
        <ele>13.425833</ele>
        <time>2026-08-03T00:19:19.854Z</time>
      </trkpt>
      <trkpt lat="52.094817" lon="6.089601">
        <ele>13.406673</ele>
        <time>2026-08-03T00:19:21.645Z</time>
      </trkpt>
      <trkpt lat="52.095038" lon="6.089686">
        <ele>13.370012</ele>
        <time>2026-08-03T00:19:25.096Z</time>
      </trkpt>
      <trkpt lat="52.095141" lon="6.089781">
        <ele>13.350899</ele>
        <time>2026-08-03T00:19:26.874Z</time>
      </trkpt>
      <trkpt lat="52.095208" lon="6.089926">
        <ele>13.332904</ele>
        <time>2026-08-03T00:19:28.507Z</time>
      </trkpt>
      <trkpt lat="52.095253" lon="6.090188">
        <ele>13.305922</ele>
        <time>2026-08-03T00:19:30.970Z</time>
      </trkpt>
      <trkpt lat="52.095348" lon="6.092192">
        <ele>13.062976</ele>
        <time>2026-08-03T00:19:47.994Z</time>
      </trkpt>
      <trkpt lat="52.095349" lon="6.092824">
        <ele>12.912334</ele>
        <time>2026-08-03T00:19:53.178Z</time>
      </trkpt>
      <trkpt lat="52.095990" lon="6.093128">
        <ele>12.653297</ele>
        <time>2026-08-03T00:20:02.141Z</time>
      </trkpt>
      <trkpt lat="52.097259" lon="6.093729">
        <ele>12.251443</ele>
        <time>2026-08-03T00:20:20.380Z</time>
      </trkpt>
      <trkpt lat="52.097429" lon="6.093811">
        <ele>12.208146</ele>
        <time>2026-08-03T00:20:22.857Z</time>
      </trkpt>
      <trkpt lat="52.097558" lon="6.093912">
        <ele>12.173191</ele>
        <time>2026-08-03T00:20:24.862Z</time>
      </trkpt>
      <trkpt lat="52.097643" lon="6.094029">
        <ele>12.146009</ele>
        <time>2026-08-03T00:20:26.428Z</time>
      </trkpt>
      <trkpt lat="52.100182" lon="6.097978">
        <ele>11.662301</ele>
        <time>2026-08-03T00:21:16.133Z</time>
      </trkpt>
      <trkpt lat="52.100250" lon="6.098030">
        <ele>11.660377</ele>
        <time>2026-08-03T00:21:17.337Z</time>
      </trkpt>
      <trkpt lat="52.100470" lon="6.098090">
        <ele>11.654663</ele>
        <time>2026-08-03T00:21:20.834Z</time>
      </trkpt>
      <trkpt lat="52.102387" lon="6.098347">
        <ele>12.160862</ele>
        <time>2026-08-03T00:21:51.452Z</time>
      </trkpt>
      <trkpt lat="52.102898" lon="6.098398">
        <ele>12.396084</ele>
        <time>2026-08-03T00:22:00.008Z</time>
      </trkpt>
      <trkpt lat="52.104578" lon="6.098398">
        <ele>13.280652</ele>
        <time>2026-08-03T00:22:29.536Z</time>
      </trkpt>
      <trkpt lat="52.104798" lon="6.098378">
        <ele>13.246640</ele>
        <time>2026-08-03T00:22:33.067Z</time>
      </trkpt>
      <trkpt lat="52.105088" lon="6.098458">
        <ele>13.201237</ele>
        <time>2026-08-03T00:22:37.557Z</time>
      </trkpt>
      <trkpt lat="52.106588" lon="6.098658">
        <ele>12.744581</ele>
        <time>2026-08-03T00:22:57.688Z</time>
      </trkpt>
      <trkpt lat="52.106688" lon="6.098708">
        <ele>12.662511</ele>
        <time>2026-08-03T00:22:59.002Z</time>
      </trkpt>
      <trkpt lat="52.106738" lon="6.098808">
        <ele>12.600378</ele>
        <time>2026-08-03T00:22:59.993Z</time>
      </trkpt>
      <trkpt lat="52.106748" lon="6.099578">
        <ele>12.229266</ele>
        <time>2026-08-03T00:23:05.807Z</time>
      </trkpt>
      <trkpt lat="52.106808" lon="6.100038">
        <ele>12.002670</ele>
        <time>2026-08-03T00:23:09.323Z</time>
      </trkpt>
      <trkpt lat="52.106958" lon="6.100538">
        <ele>11.734539</ele>
        <time>2026-08-03T00:23:13.492Z</time>
      </trkpt>
      <trkpt lat="52.107218" lon="6.101068">
        <ele>11.609500</ele>
        <time>2026-08-03T00:23:18.724Z</time>
      </trkpt>
      <trkpt lat="52.107648" lon="6.101678">
        <ele>11.602356</ele>
        <time>2026-08-03T00:23:26.694Z</time>
      </trkpt>
      <trkpt lat="52.107848" lon="6.101878">
        <ele>11.599416</ele>
        <time>2026-08-03T00:23:30.377Z</time>
      </trkpt>
      <trkpt lat="52.108098" lon="6.102038">
        <ele>11.596051</ele>
        <time>2026-08-03T00:23:34.786Z</time>
      </trkpt>
      <trkpt lat="52.108188" lon="6.102058">
        <ele>11.594913</ele>
        <time>2026-08-03T00:23:36.328Z</time>
      </trkpt>
      <trkpt lat="52.108368" lon="6.101998">
        <ele>11.592612</ele>
        <time>2026-08-03T00:23:39.488Z</time>
      </trkpt>
      <trkpt lat="52.108458" lon="6.101918">
        <ele>11.591328</ele>
        <time>2026-08-03T00:23:41.276Z</time>
      </trkpt>
      <trkpt lat="52.108774" lon="6.101431">
        <ele>11.648087</ele>
        <time>2026-08-03T00:23:48.955Z</time>
      </trkpt>
      <trkpt lat="52.109370" lon="6.101087">
        <ele>11.753005</ele>
        <time>2026-08-03T00:23:59.455Z</time>
      </trkpt>
      <trkpt lat="52.109581" lon="6.100966">
        <ele>11.790122</ele>
        <time>2026-08-03T00:24:02.481Z</time>
      </trkpt>
      <trkpt lat="52.109659" lon="6.100917">
        <ele>11.803993</ele>
        <time>2026-08-03T00:24:03.631Z</time>
      </trkpt>
      <trkpt lat="52.109756" lon="6.101147">
        <ele>11.832424</ele>
        <time>2026-08-03T00:24:05.992Z</time>
      </trkpt>
      <trkpt lat="52.109880" lon="6.101357">
        <ele>11.862109</ele>
        <time>2026-08-03T00:24:08.466Z</time>
      </trkpt>
      <trkpt lat="52.109970" lon="6.101647">
        <ele>11.882732</ele>
        <time>2026-08-03T00:24:11.270Z</time>
      </trkpt>
      <trkpt lat="52.110174" lon="6.102329">
        <ele>11.812525</ele>
        <time>2026-08-03T00:24:17.834Z</time>
      </trkpt>
      <trkpt lat="52.110280" lon="6.102490">
        <ele>11.790680</ele>
        <time>2026-08-03T00:24:19.831Z</time>
      </trkpt>
      <trkpt lat="52.110620" lon="6.103579">
        <ele>11.677619</ele>
        <time>2026-08-03T00:24:30.242Z</time>
      </trkpt>
      <trkpt lat="52.110737" lon="6.103753">
        <ele>11.653741</ele>
        <time>2026-08-03T00:24:32.661Z</time>
      </trkpt>
      <trkpt lat="52.110914" lon="6.103782">
        <ele>11.626933</ele>
        <time>2026-08-03T00:24:35.549Z</time>
      </trkpt>
      <trkpt lat="52.111015" lon="6.103730">
        <ele>11.625144</ele>
        <time>2026-08-03T00:24:37.204Z</time>
      </trkpt>
      <trkpt lat="52.111451" lon="6.103261">
        <ele>11.714047</ele>
        <time>2026-08-03T00:24:45.311Z</time>
      </trkpt>
      <trkpt lat="52.111772" lon="6.102862">
        <ele>11.782754</ele>
        <time>2026-08-03T00:24:51.589Z</time>
      </trkpt>
      <trkpt lat="52.112325" lon="6.101844">
        <ele>11.921522</ele>
        <time>2026-08-03T00:25:04.659Z</time>
      </trkpt>
      <trkpt lat="52.112530" lon="6.101570">
        <ele>11.836141</ele>
        <time>2026-08-03T00:25:08.580Z</time>
      </trkpt>
      <trkpt lat="52.112913" lon="6.101095">
        <ele>11.681151</ele>
        <time>2026-08-03T00:25:15.463Z</time>
      </trkpt>
      <trkpt lat="52.113012" lon="6.101008">
        <ele>11.644934</ele>
        <time>2026-08-03T00:25:17.021Z</time>
      </trkpt>
      <trkpt lat="52.113187" lon="6.100995">
        <ele>11.588537</ele>
        <time>2026-08-03T00:25:19.427Z</time>
      </trkpt>
      <trkpt lat="52.113267" lon="6.101055">
        <ele>11.560182</ele>
        <time>2026-08-03T00:25:20.614Z</time>
      </trkpt>
      <trkpt lat="52.113351" lon="6.101194">
        <ele>11.521627</ele>
        <time>2026-08-03T00:25:22.222Z</time>
      </trkpt>
      <trkpt lat="52.113656" lon="6.102355">
        <ele>11.192715</ele>
        <time>2026-08-03T00:25:32.216Z</time>
      </trkpt>
      <trkpt lat="52.113869" lon="6.103069">
        <ele>10.864490</ele>
        <time>2026-08-03T00:25:38.421Z</time>
      </trkpt>
      <trkpt lat="52.113933" lon="6.103454">
        <ele>10.699566</ele>
        <time>2026-08-03T00:25:41.547Z</time>
      </trkpt>
      <trkpt lat="52.113938" lon="6.103508">
        <ele>10.676986</ele>
        <time>2026-08-03T00:25:41.973Z</time>
      </trkpt>
      <trkpt lat="52.113948" lon="6.103702">
        <ele>10.596487</ele>
        <time>2026-08-03T00:25:43.486Z</time>
      </trkpt>
      <trkpt lat="52.113906" lon="6.104939">
        <ele>10.113590</ele>
        <time>2026-08-03T00:25:53.206Z</time>
      </trkpt>
      <trkpt lat="52.113881" lon="6.105384">
        <ele>10.038923</ele>
        <time>2026-08-03T00:25:56.821Z</time>
      </trkpt>
      <trkpt lat="52.114106" lon="6.105450">
        <ele>9.976716</ele>
        <time>2026-08-03T00:26:00.010Z</time>
      </trkpt>
      <trkpt lat="52.114442" lon="6.105951">
        <ele>9.852755</ele>
        <time>2026-08-03T00:26:06.500Z</time>
      </trkpt>
      <trkpt lat="52.114627" lon="6.106075">
        <ele>9.798319</ele>
        <time>2026-08-03T00:26:09.397Z</time>
      </trkpt>
      <trkpt lat="52.115834" lon="6.106329">
        <ele>9.414379</ele>
        <time>2026-08-03T00:26:26.877Z</time>
      </trkpt>
      <trkpt lat="52.116015" lon="6.106395">
        <ele>9.348852</ele>
        <time>2026-08-03T00:26:29.386Z</time>
      </trkpt>
      <trkpt lat="52.117466" lon="6.107019">
        <ele>8.948197</ele>
        <time>2026-08-03T00:26:49.243Z</time>
      </trkpt>
      <trkpt lat="52.118850" lon="6.107240">
        <ele>8.804831</ele>
        <time>2026-08-03T00:27:10.136Z</time>
      </trkpt>
      <trkpt lat="52.119300" lon="6.107210">
        <ele>8.799365</ele>
        <time>2026-08-03T00:27:17.088Z</time>
      </trkpt>
      <trkpt lat="52.121361" lon="6.106466">
        <ele>8.850199</ele>
        <time>2026-08-03T00:27:47.861Z</time>
      </trkpt>
      <trkpt lat="52.121485" lon="6.106441">
        <ele>8.859385</ele>
        <time>2026-08-03T00:27:49.752Z</time>
      </trkpt>
      <trkpt lat="52.121584" lon="6.106472">
        <ele>8.866797</ele>
        <time>2026-08-03T00:27:51.262Z</time>
      </trkpt>
      <trkpt lat="52.121727" lon="6.106596">
        <ele>8.878707</ele>
        <time>2026-08-03T00:27:53.727Z</time>
      </trkpt>
      <trkpt lat="52.121925" lon="6.106876">
        <ele>8.897986</ele>
        <time>2026-08-03T00:27:57.824Z</time>
      </trkpt>
      <trkpt lat="52.122291" lon="6.107414">
        <ele>8.990486</ele>
        <time>2026-08-03T00:28:05.600Z</time>
      </trkpt>
      <trkpt lat="52.122503" lon="6.107726">
        <ele>9.079326</ele>
        <time>2026-08-03T00:28:10.277Z</time>
      </trkpt>
      <trkpt lat="52.124779" lon="6.111042">
        <ele>9.927529</ele>
        <time>2026-08-03T00:28:59.407Z</time>
      </trkpt>
      <trkpt lat="52.124960" lon="6.111205">
        <ele>9.929716</ele>
        <time>2026-08-03T00:29:02.442Z</time>
      </trkpt>
      <trkpt lat="52.125046" lon="6.111243">
        <ele>9.928217</ele>
        <time>2026-08-03T00:29:03.736Z</time>
      </trkpt>
      <trkpt lat="52.125247" lon="6.111245">
        <ele>9.924837</ele>
        <time>2026-08-03T00:29:06.659Z</time>
      </trkpt>
      <trkpt lat="52.125402" lon="6.111146">
        <ele>9.922037</ele>
        <time>2026-08-03T00:29:09.103Z</time>
      </trkpt>
      <trkpt lat="52.125821" lon="6.110817">
        <ele>9.914214</ele>
        <time>2026-08-03T00:29:15.848Z</time>
      </trkpt>
      <trkpt lat="52.126072" lon="6.110620">
        <ele>9.909529</ele>
        <time>2026-08-03T00:29:19.865Z</time>
      </trkpt>
      <trkpt lat="52.126232" lon="6.110494">
        <ele>9.906540</ele>
        <time>2026-08-03T00:29:22.419Z</time>
      </trkpt>
      <trkpt lat="52.127273" lon="6.109676">
        <ele>9.870520</ele>
        <time>2026-08-03T00:29:39.655Z</time>
      </trkpt>
      <trkpt lat="52.128620" lon="6.108620">
        <ele>9.774829</ele>
        <time>2026-08-03T00:30:01.264Z</time>
      </trkpt>
      <trkpt lat="52.131459" lon="6.106381">
        <ele>9.379601</ele>
        <time>2026-08-03T00:30:46.593Z</time>
      </trkpt>
      <trkpt lat="52.131935" lon="6.106004">
        <ele>9.279817</ele>
        <time>2026-08-03T00:30:53.998Z</time>
      </trkpt>
      <trkpt lat="52.133050" lon="6.105119">
        <ele>9.085636</ele>
        <time>2026-08-03T00:31:11.524Z</time>
      </trkpt>
      <trkpt lat="52.133753" lon="6.104562">
        <ele>9.151692</ele>
        <time>2026-08-03T00:31:23.220Z</time>
      </trkpt>
      <trkpt lat="52.135116" lon="6.103483">
        <ele>9.135887</ele>
        <time>2026-08-03T00:31:46.970Z</time>
      </trkpt>
      <trkpt lat="52.135688" lon="6.103031">
        <ele>9.047535</ele>
        <time>2026-08-03T00:31:56.529Z</time>
      </trkpt>
      <trkpt lat="52.135841" lon="6.102909">
        <ele>9.023862</ele>
        <time>2026-08-03T00:31:58.975Z</time>
      </trkpt>
      <trkpt lat="52.136753" lon="6.102189">
        <ele>8.635767</ele>
        <time>2026-08-03T00:32:11.338Z</time>
      </trkpt>
      <trkpt lat="52.137421" lon="6.101663">
        <ele>8.256630</ele>
        <time>2026-08-03T00:32:20.819Z</time>
      </trkpt>
      <trkpt lat="52.138256" lon="6.101006">
        <ele>8.437668</ele>
        <time>2026-08-03T00:32:35.835Z</time>
      </trkpt>
      <trkpt lat="52.138515" lon="6.100754">
        <ele>8.652689</ele>
        <time>2026-08-03T00:32:42.154Z</time>
      </trkpt>
      <trkpt lat="52.139361" lon="6.099710">
        <ele>9.346329</ele>
        <time>2026-08-03T00:33:01.700Z</time>
      </trkpt>
      <trkpt lat="52.139899" lon="6.099030">
        <ele>9.401510</ele>
        <time>2026-08-03T00:33:11.851Z</time>
      </trkpt>
      <trkpt lat="52.141983" lon="6.096404">
        <ele>9.279447</ele>
        <time>2026-08-03T00:33:49.735Z</time>
      </trkpt>
      <trkpt lat="52.142181" lon="6.096144">
        <ele>9.241209</ele>
        <time>2026-08-03T00:33:53.564Z</time>
      </trkpt>
      <trkpt lat="52.142635" lon="6.095563">
        <ele>9.119507</ele>
        <time>2026-08-03T00:34:01.654Z</time>
      </trkpt>
      <trkpt lat="52.142754" lon="6.095411">
        <ele>9.087630</ele>
        <time>2026-08-03T00:34:03.756Z</time>
      </trkpt>
      <trkpt lat="52.142948" lon="6.095163">
        <ele>9.035646</ele>
        <time>2026-08-03T00:34:07.258Z</time>
      </trkpt>
      <trkpt lat="52.143331" lon="6.094699">
        <ele>8.935031</ele>
        <time>2026-08-03T00:34:13.992Z</time>
      </trkpt>
      <trkpt lat="52.143543" lon="6.094476">
        <ele>8.881834</ele>
        <time>2026-08-03T00:34:17.528Z</time>
      </trkpt>
      <trkpt lat="52.144246" lon="6.093817">
        <ele>8.755600</ele>
        <time>2026-08-03T00:34:28.609Z</time>
      </trkpt>
      <trkpt lat="52.144303" lon="6.093776">
        <ele>8.745999</ele>
        <time>2026-08-03T00:34:29.494Z</time>
      </trkpt>
      <trkpt lat="52.144980" lon="6.093338">
        <ele>8.633756</ele>
        <time>2026-08-03T00:34:40.308Z</time>
      </trkpt>
      <trkpt lat="52.145180" lon="6.093208">
        <ele>8.600576</ele>
        <time>2026-08-03T00:34:43.487Z</time>
      </trkpt>
      <trkpt lat="52.145523" lon="6.092989">
        <ele>8.571545</ele>
        <time>2026-08-03T00:34:48.846Z</time>
      </trkpt>
      <trkpt lat="52.146008" lon="6.092680">
        <ele>8.530916</ele>
        <time>2026-08-03T00:34:56.716Z</time>
      </trkpt>
      <trkpt lat="52.147824" lon="6.091512">
        <ele>8.258824</ele>
        <time>2026-08-03T00:35:24.622Z</time>
      </trkpt>
      <trkpt lat="52.148215" lon="6.091260">
        <ele>8.177551</ele>
        <time>2026-08-03T00:35:30.279Z</time>
      </trkpt>
      <trkpt lat="52.148500" lon="6.091082">
        <ele>8.118556</ele>
        <time>2026-08-03T00:35:34.437Z</time>
      </trkpt>
      <trkpt lat="52.148632" lon="6.090994">
        <ele>8.111994</ele>
        <time>2026-08-03T00:35:36.406Z</time>
      </trkpt>
      <trkpt lat="52.149724" lon="6.090288">
        <ele>8.111979</ele>
        <time>2026-08-03T00:35:53.688Z</time>
      </trkpt>
      <trkpt lat="52.152033" lon="6.088797">
        <ele>8.385624</ele>
        <time>2026-08-03T00:36:32.614Z</time>
      </trkpt>
      <trkpt lat="52.152270" lon="6.088670">
        <ele>8.339790</ele>
        <time>2026-08-03T00:36:36.238Z</time>
      </trkpt>
      <trkpt lat="52.154890" lon="6.087850">
        <ele>7.728086</ele>
        <time>2026-08-03T00:37:13.202Z</time>
      </trkpt>
      <trkpt lat="52.155030" lon="6.087780">
        <ele>7.687366</ele>
        <time>2026-08-03T00:37:15.159Z</time>
      </trkpt>
      <trkpt lat="52.155210" lon="6.087630">
        <ele>7.631151</ele>
        <time>2026-08-03T00:37:17.875Z</time>
      </trkpt>
      <trkpt lat="52.155369" lon="6.087447">
        <ele>7.583479</ele>
        <time>2026-08-03T00:37:20.510Z</time>
      </trkpt>
      <trkpt lat="52.155455" lon="6.087288">
        <ele>7.572651</ele>
        <time>2026-08-03T00:37:22.270Z</time>
      </trkpt>
      <trkpt lat="52.155710" lon="6.084330">
        <ele>7.475018</ele>
        <time>2026-08-03T00:37:49.236Z</time>
      </trkpt>
      <trkpt lat="52.155777" lon="6.083939">
        <ele>7.523716</ele>
        <time>2026-08-03T00:37:53.054Z</time>
      </trkpt>
      <trkpt lat="52.155999" lon="6.082985">
        <ele>7.646110</ele>
        <time>2026-08-03T00:38:02.881Z</time>
      </trkpt>
      <trkpt lat="52.156135" lon="6.082469">
        <ele>7.713477</ele>
        <time>2026-08-03T00:38:08.393Z</time>
      </trkpt>
      <trkpt lat="52.156230" lon="6.082236">
        <ele>7.747036</ele>
        <time>2026-08-03T00:38:11.145Z</time>
      </trkpt>
      <trkpt lat="52.156670" lon="6.081570">
        <ele>7.897197</ele>
        <time>2026-08-03T00:38:20.711Z</time>
      </trkpt>
      <trkpt lat="52.158004" lon="6.078080">
        <ele>8.418013</ele>
        <time>2026-08-03T00:39:01.011Z</time>
      </trkpt>
      <trkpt lat="52.160089" lon="6.077997">
        <ele>8.308860</ele>
        <time>2026-08-03T00:39:30.751Z</time>
      </trkpt>
      <trkpt lat="52.160863" lon="6.077965">
        <ele>8.229179</ele>
        <time>2026-08-03T00:39:41.885Z</time>
      </trkpt>
      <trkpt lat="52.162881" lon="6.077882">
        <ele>8.090157</ele>
        <time>2026-08-03T00:40:11.260Z</time>
      </trkpt>
      <trkpt lat="52.165612" lon="6.077775">
        <ele>8.123966</ele>
        <time>2026-08-03T00:40:51.158Z</time>
      </trkpt>
      <trkpt lat="52.166026" lon="6.077746">
        <ele>8.240342</ele>
        <time>2026-08-03T00:40:58.147Z</time>
      </trkpt>
      <trkpt lat="52.166877" lon="6.077558">
        <ele>8.810438</ele>
        <time>2026-08-03T00:41:13.673Z</time>
      </trkpt>
      <trkpt lat="52.167166" lon="6.077471">
        <ele>9.005532</ele>
        <time>2026-08-03T00:41:18.993Z</time>
      </trkpt>
      <trkpt lat="52.167205" lon="6.077451">
        <ele>9.032673</ele>
        <time>2026-08-03T00:41:19.743Z</time>
      </trkpt>
      <trkpt lat="52.167281" lon="6.077403">
        <ele>9.086778</ele>
        <time>2026-08-03T00:41:21.186Z</time>
      </trkpt>
      <trkpt lat="52.167315" lon="6.077378">
        <ele>9.111538</ele>
        <time>2026-08-03T00:41:21.847Z</time>
      </trkpt>
      <trkpt lat="52.167345" lon="6.077355">
        <ele>9.133546</ele>
        <time>2026-08-03T00:41:22.445Z</time>
      </trkpt>
      <trkpt lat="52.168901" lon="6.076071">
        <ele>10.056723</ele>
        <time>2026-08-03T00:41:51.680Z</time>
      </trkpt>
      <trkpt lat="52.169005" lon="6.075986">
        <ele>10.114958</ele>
        <time>2026-08-03T00:41:53.637Z</time>
      </trkpt>
      <trkpt lat="52.169336" lon="6.075706">
        <ele>10.261218</ele>
        <time>2026-08-03T00:42:00.028Z</time>
      </trkpt>
      <trkpt lat="52.170147" lon="6.075030">
        <ele>10.427568</ele>
        <time>2026-08-03T00:42:15.041Z</time>
      </trkpt>
      <trkpt lat="52.170230" lon="6.074928">
        <ele>10.446550</ele>
        <time>2026-08-03T00:42:16.696Z</time>
      </trkpt>
      <trkpt lat="52.170252" lon="6.074889">
        <ele>10.452485</ele>
        <time>2026-08-03T00:42:17.207Z</time>
      </trkpt>
      <trkpt lat="52.170333" lon="6.074626">
        <ele>10.485450</ele>
        <time>2026-08-03T00:42:20.027Z</time>
      </trkpt>
      <trkpt lat="52.170887" lon="6.071658">
        <ele>9.923721</ele>
        <time>2026-08-03T00:42:45.710Z</time>
      </trkpt>
      <trkpt lat="52.171006" lon="6.071046">
        <ele>9.742220</ele>
        <time>2026-08-03T00:42:50.817Z</time>
      </trkpt>
      <trkpt lat="52.171074" lon="6.070914">
        <ele>9.679953</ele>
        <time>2026-08-03T00:42:52.190Z</time>
      </trkpt>
      <trkpt lat="52.171543" lon="6.070335">
        <ele>9.333499</ele>
        <time>2026-08-03T00:42:59.786Z</time>
      </trkpt>
      <trkpt lat="52.172829" lon="6.072361">
        <ele>8.458754</ele>
        <time>2026-08-03T00:43:23.282Z</time>
      </trkpt>
      <trkpt lat="52.173128" lon="6.072810">
        <ele>8.317673</ele>
        <time>2026-08-03T00:43:28.828Z</time>
      </trkpt>
      <trkpt lat="52.173309" lon="6.073003">
        <ele>8.242611</ele>
        <time>2026-08-03T00:43:31.838Z</time>
      </trkpt>
      <trkpt lat="52.175443" lon="6.076427">
        <ele>7.962153</ele>
        <time>2026-08-03T00:44:15.301Z</time>
      </trkpt>
      <trkpt lat="52.176170" lon="6.077572">
        <ele>7.976380</ele>
        <time>2026-08-03T00:44:30.543Z</time>
      </trkpt>
      <trkpt lat="52.176294" lon="6.077568">
        <ele>7.969156</ele>
        <time>2026-08-03T00:44:33.055Z</time>
      </trkpt>
      <trkpt lat="52.176388" lon="6.077552">
        <ele>7.961373</ele>
        <time>2026-08-03T00:44:34.999Z</time>
      </trkpt>
      <trkpt lat="52.176499" lon="6.077539">
        <ele>7.952210</ele>
        <time>2026-08-03T00:44:36.661Z</time>
      </trkpt>
      <trkpt lat="52.176708" lon="6.077508">
        <ele>7.934929</ele>
        <time>2026-08-03T00:44:39.810Z</time>
      </trkpt>
      <trkpt lat="52.176856" lon="6.077489">
        <ele>7.922704</ele>
        <time>2026-08-03T00:44:42.043Z</time>
      </trkpt>
      <trkpt lat="52.180178" lon="6.077067">
        <ele>7.509006</ele>
        <time>2026-08-03T00:45:29.548Z</time>
      </trkpt>
      <trkpt lat="52.180494" lon="6.077028">
        <ele>7.461560</ele>
        <time>2026-08-03T00:45:34.161Z</time>
      </trkpt>
      <trkpt lat="52.183729" lon="6.076647">
        <ele>6.926760</ele>
        <time>2026-08-03T00:46:20.308Z</time>
      </trkpt>
      <trkpt lat="52.184661" lon="6.076519">
        <ele>6.807303</ele>
        <time>2026-08-03T00:46:33.682Z</time>
      </trkpt>
      <trkpt lat="52.185781" lon="6.080451">
        <ele>6.602606</ele>
        <time>2026-08-03T00:47:11.940Z</time>
      </trkpt>
      <trkpt lat="52.186082" lon="6.081508">
        <ele>6.687768</ele>
        <time>2026-08-03T00:47:23.070Z</time>
      </trkpt>
      <trkpt lat="52.186594" lon="6.083307">
        <ele>6.848007</ele>
        <time>2026-08-03T00:47:42.235Z</time>
      </trkpt>
      <trkpt lat="52.187728" lon="6.087293">
        <ele>7.130045</ele>
        <time>2026-08-03T00:48:23.433Z</time>
      </trkpt>
      <trkpt lat="52.187743" lon="6.087340">
        <ele>7.132014</ele>
        <time>2026-08-03T00:48:23.935Z</time>
      </trkpt>
      <trkpt lat="52.188769" lon="6.090993">
        <ele>7.009991</ele>
        <time>2026-08-03T00:48:59.657Z</time>
      </trkpt>
      <trkpt lat="52.188835" lon="6.091129">
        <ele>7.001839</ele>
        <time>2026-08-03T00:49:01.814Z</time>
      </trkpt>
      <trkpt lat="52.188846" lon="6.091149">
        <ele>7.000576</ele>
        <time>2026-08-03T00:49:02.137Z</time>
      </trkpt>
      <trkpt lat="52.188758" lon="6.091511">
        <ele>6.982272</ele>
        <time>2026-08-03T00:49:05.675Z</time>
      </trkpt>
      <trkpt lat="52.188889" lon="6.091633">
        <ele>6.970707</ele>
        <time>2026-08-03T00:49:07.841Z</time>
      </trkpt>
      <trkpt lat="52.188990" lon="6.091713">
        <ele>6.962098</ele>
        <time>2026-08-03T00:49:09.421Z</time>
      </trkpt>
      <trkpt lat="52.189082" lon="6.091608">
        <ele>6.953490</ele>
        <time>2026-08-03T00:49:11.019Z</time>
      </trkpt>
      <trkpt lat="52.189168" lon="6.091596">
        <ele>6.946872</ele>
        <time>2026-08-03T00:49:12.287Z</time>
      </trkpt>
      <trkpt lat="52.189583" lon="6.091959">
        <ele>6.910769</ele>
        <time>2026-08-03T00:49:18.942Z</time>
      </trkpt>
      <trkpt lat="52.189763" lon="6.092124">
        <ele>6.894939</ele>
        <time>2026-08-03T00:49:21.821Z</time>
      </trkpt>
      <trkpt lat="52.190301" lon="6.092572">
        <ele>6.772990</ele>
        <time>2026-08-03T00:49:30.901Z</time>
      </trkpt>
      <trkpt lat="52.190615" lon="6.092742">
        <ele>6.704711</ele>
        <time>2026-08-03T00:49:35.586Z</time>
      </trkpt>
      <trkpt lat="52.190768" lon="6.092778">
        <ele>6.672808</ele>
        <time>2026-08-03T00:49:37.737Z</time>
      </trkpt>
      <trkpt lat="52.190962" lon="6.092803">
        <ele>6.632646</ele>
        <time>2026-08-03T00:49:40.458Z</time>
      </trkpt>
      <trkpt lat="52.191362" lon="6.092741">
        <ele>6.549722</ele>
        <time>2026-08-03T00:49:46.035Z</time>
      </trkpt>
      <trkpt lat="52.192140" lon="6.092481">
        <ele>6.247710</ele>
        <time>2026-08-03T00:49:56.812Z</time>
      </trkpt>
      <trkpt lat="52.193391" lon="6.091729">
        <ele>5.799747</ele>
        <time>2026-08-03T00:50:14.510Z</time>
      </trkpt>
      <trkpt lat="52.194090" lon="6.091497">
        <ele>5.890960</ele>
        <time>2026-08-03T00:50:24.868Z</time>
      </trkpt>
      <trkpt lat="52.196005" lon="6.090680">
        <ele>6.515635</ele>
        <time>2026-08-03T00:50:58.099Z</time>
      </trkpt>
      <trkpt lat="52.196311" lon="6.090596">
        <ele>6.661176</ele>
        <time>2026-08-03T00:51:03.267Z</time>
      </trkpt>
      <trkpt lat="52.196734" lon="6.090539">
        <ele>6.854993</ele>
        <time>2026-08-03T00:51:10.293Z</time>
      </trkpt>
      <trkpt lat="52.197105" lon="6.090430">
        <ele>6.953257</ele>
        <time>2026-08-03T00:51:16.496Z</time>
      </trkpt>
      <trkpt lat="52.197513" lon="6.090347">
        <ele>7.060435</ele>
        <time>2026-08-03T00:51:23.165Z</time>
      </trkpt>
      <trkpt lat="52.198032" lon="6.090161">
        <ele>7.198949</ele>
        <time>2026-08-03T00:51:31.345Z</time>
      </trkpt>
      <trkpt lat="52.198105" lon="6.090127">
        <ele>7.218738</ele>
        <time>2026-08-03T00:51:32.523Z</time>
      </trkpt>
      <trkpt lat="52.198272" lon="6.090072">
        <ele>7.263148</ele>
        <time>2026-08-03T00:51:35.148Z</time>
      </trkpt>
      <trkpt lat="52.199043" lon="6.089968">
        <ele>7.371644</ele>
        <time>2026-08-03T00:51:47.133Z</time>
      </trkpt>
      <trkpt lat="52.199795" lon="6.089942">
        <ele>7.443904</ele>
        <time>2026-08-03T00:51:58.568Z</time>
      </trkpt>
      <trkpt lat="52.199945" lon="6.089870">
        <ele>7.458925</ele>
        <time>2026-08-03T00:52:00.959Z</time>
      </trkpt>
      <trkpt lat="52.200375" lon="6.089559">
        <ele>7.458803</ele>
        <time>2026-08-03T00:52:08.071Z</time>
      </trkpt>
      <trkpt lat="52.200581" lon="6.089568">
        <ele>7.414757</ele>
        <time>2026-08-03T00:52:11.118Z</time>
      </trkpt>
      <trkpt lat="52.200678" lon="6.089479">
        <ele>7.390971</ele>
        <time>2026-08-03T00:52:12.754Z</time>
      </trkpt>
      <trkpt lat="52.200753" lon="6.089374">
        <ele>7.369848</ele>
        <time>2026-08-03T00:52:14.182Z</time>
      </trkpt>
      <trkpt lat="52.200848" lon="6.089149">
        <ele>7.334056</ele>
        <time>2026-08-03T00:52:16.543Z</time>
      </trkpt>
      <trkpt lat="52.201413" lon="6.088494">
        <ele>7.185913</ele>
        <time>2026-08-03T00:52:25.905Z</time>
      </trkpt>
      <trkpt lat="52.201544" lon="6.088252">
        <ele>7.143617</ele>
        <time>2026-08-03T00:52:28.584Z</time>
      </trkpt>
      <trkpt lat="52.201673" lon="6.087929">
        <ele>7.112220</ele>
        <time>2026-08-03T00:52:31.813Z</time>
      </trkpt>
      <trkpt lat="52.201755" lon="6.087459">
        <ele>7.146006</ele>
        <time>2026-08-03T00:52:35.968Z</time>
      </trkpt>
      <trkpt lat="52.201810" lon="6.087367">
        <ele>7.154891</ele>
        <time>2026-08-03T00:52:37.084Z</time>
      </trkpt>
      <trkpt lat="52.201884" lon="6.087331">
        <ele>7.163602</ele>
        <time>2026-08-03T00:52:38.187Z</time>
      </trkpt>
      <trkpt lat="52.202458" lon="6.087400">
        <ele>7.228528</ele>
        <time>2026-08-03T00:52:46.737Z</time>
      </trkpt>
      <trkpt lat="52.202955" lon="6.087303">
        <ele>7.284993</ele>
        <time>2026-08-03T00:52:55.031Z</time>
      </trkpt>
      <trkpt lat="52.203171" lon="6.087212">
        <ele>7.315375</ele>
        <time>2026-08-03T00:52:58.811Z</time>
      </trkpt>
      <trkpt lat="52.204141" lon="6.086640">
        <ele>7.801939</ele>
        <time>2026-08-03T00:53:16.555Z</time>
      </trkpt>
      <trkpt lat="52.206330" lon="6.085338">
        <ele>8.510478</ele>
        <time>2026-08-03T00:53:54.282Z</time>
      </trkpt>
      <trkpt lat="52.207076" lon="6.084909">
        <ele>8.322793</ele>
        <time>2026-08-03T00:54:05.210Z</time>
      </trkpt>
      <trkpt lat="52.207999" lon="6.084358">
        <ele>7.913249</ele>
        <time>2026-08-03T00:54:18.205Z</time>
      </trkpt>
      <trkpt lat="52.211296" lon="6.082408">
        <ele>5.716227</ele>
        <time>2026-08-03T00:55:03.323Z</time>
      </trkpt>
      <trkpt lat="52.211787" lon="6.082256">
        <ele>5.500502</ele>
        <time>2026-08-03T00:55:09.994Z</time>
      </trkpt>
      <trkpt lat="52.211913" lon="6.082185">
        <ele>5.490658</ele>
        <time>2026-08-03T00:55:11.827Z</time>
      </trkpt>
      <trkpt lat="52.212046" lon="6.082106">
        <ele>5.480206</ele>
        <time>2026-08-03T00:55:13.784Z</time>
      </trkpt>
      <trkpt lat="52.212235" lon="6.081993">
        <ele>5.465342</ele>
        <time>2026-08-03T00:55:16.632Z</time>
      </trkpt>
      <trkpt lat="52.212446" lon="6.081952">
        <ele>5.449650</ele>
        <time>2026-08-03T00:55:19.692Z</time>
      </trkpt>
      <trkpt lat="52.213812" lon="6.082221">
        <ele>5.312037</ele>
        <time>2026-08-03T00:55:40.930Z</time>
      </trkpt>
      <trkpt lat="52.218385" lon="6.083114">
        <ele>4.600130</ele>
        <time>2026-08-03T00:56:45.849Z</time>
      </trkpt>
      <trkpt lat="52.218905" lon="6.083187">
        <ele>4.576101</ele>
        <time>2026-08-03T00:56:53.590Z</time>
      </trkpt>
      <trkpt lat="52.220441" lon="6.083526">
        <ele>4.858764</ele>
        <time>2026-08-03T00:57:17.772Z</time>
      </trkpt>
      <trkpt lat="52.220478" lon="6.083533">
        <ele>4.865557</ele>
        <time>2026-08-03T00:57:18.386Z</time>
      </trkpt>
      <trkpt lat="52.220688" lon="6.083613">
        <ele>4.901099</ele>
        <time>2026-08-03T00:57:21.918Z</time>
      </trkpt>
      <trkpt lat="52.220881" lon="6.083811">
        <ele>4.937434</ele>
        <time>2026-08-03T00:57:25.654Z</time>
      </trkpt>
      <trkpt lat="52.220958" lon="6.083986">
        <ele>4.958473</ele>
        <time>2026-08-03T00:57:27.818Z</time>
      </trkpt>
      <trkpt lat="52.221012" lon="6.084219">
        <ele>4.982799</ele>
        <time>2026-08-03T00:57:30.305Z</time>
      </trkpt>
      <trkpt lat="52.221007" lon="6.084727">
        <ele>5.032410</ele>
        <time>2026-08-03T00:57:35.369Z</time>
      </trkpt>
      <trkpt lat="52.220780" lon="6.088220">
        <ele>5.139711</ele>
        <time>2026-08-03T00:58:06.648Z</time>
      </trkpt>
      <trkpt lat="52.220782" lon="6.088351">
        <ele>5.138405</ele>
        <time>2026-08-03T00:58:07.831Z</time>
      </trkpt>
      <trkpt lat="52.220831" lon="6.088523">
        <ele>5.136514</ele>
        <time>2026-08-03T00:58:09.559Z</time>
      </trkpt>
      <trkpt lat="52.220870" lon="6.088605">
        <ele>5.135480</ele>
        <time>2026-08-03T00:58:10.509Z</time>
      </trkpt>
      <trkpt lat="52.220937" lon="6.088658">
        <ele>5.134269</ele>
        <time>2026-08-03T00:58:11.619Z</time>
      </trkpt>
      <trkpt lat="52.221897" lon="6.088936">
        <ele>5.197280</ele>
        <time>2026-08-03T00:58:26.531Z</time>
      </trkpt>
      <trkpt lat="52.223071" lon="6.089276">
        <ele>5.272528</ele>
        <time>2026-08-03T00:58:44.730Z</time>
      </trkpt>
      <trkpt lat="52.223517" lon="6.089365">
        <ele>5.278236</ele>
        <time>2026-08-03T00:58:51.436Z</time>
      </trkpt>
      <trkpt lat="52.223735" lon="6.089372">
        <ele>5.281005</ele>
        <time>2026-08-03T00:58:54.702Z</time>
      </trkpt>
      <trkpt lat="52.224082" lon="6.089412">
        <ele>5.285424</ele>
        <time>2026-08-03T00:58:59.853Z</time>
      </trkpt>
      <trkpt lat="52.224233" lon="6.089470">
        <ele>5.287395</ele>
        <time>2026-08-03T00:59:02.146Z</time>
      </trkpt>
      <trkpt lat="52.224462" lon="6.089626">
        <ele>5.290547</ele>
        <time>2026-08-03T00:59:05.816Z</time>
      </trkpt>
      <trkpt lat="52.224550" lon="6.089627">
        <ele>5.291665</ele>
        <time>2026-08-03T00:59:07.095Z</time>
      </trkpt>
      <trkpt lat="52.224673" lon="6.089724">
        <ele>5.289002</ele>
        <time>2026-08-03T00:59:09.103Z</time>
      </trkpt>
      <trkpt lat="52.226768" lon="6.091440">
        <ele>5.220639</ele>
        <time>2026-08-03T00:59:43.525Z</time>
      </trkpt>
      <trkpt lat="52.226826" lon="6.091426">
        <ele>5.219965</ele>
        <time>2026-08-03T00:59:47.617Z</time>
      </trkpt>
      <trkpt lat="52.227084" lon="6.091515">
        <ele>5.216930</ele>
        <time>2026-08-03T01:00:05.924Z</time>
      </trkpt>
      <trkpt lat="52.227050" lon="6.091625">
        <ele>5.216062</ele>
        <time>2026-08-03T01:00:07.022Z</time>
      </trkpt>
      <trkpt lat="52.227024" lon="6.091709">
        <ele>5.215399</ele>
        <time>2026-08-03T01:00:07.874Z</time>
      </trkpt>
      <trkpt lat="52.226996" lon="6.091818">
        <ele>5.214565</ele>
        <time>2026-08-03T01:00:08.925Z</time>
      </trkpt>
      <trkpt lat="52.227002" lon="6.091932">
        <ele>5.213759</ele>
        <time>2026-08-03T01:00:09.960Z</time>
      </trkpt>
      <trkpt lat="52.226905" lon="6.092010">
        <ele>5.212515</ele>
        <time>2026-08-03T01:00:11.523Z</time>
      </trkpt>
      <trkpt lat="52.226861" lon="6.092211">
        <ele>5.211010</ele>
        <time>2026-08-03T01:00:13.453Z</time>
      </trkpt>
      <trkpt lat="52.226780" lon="6.092604">
        <ele>5.208088</ele>
        <time>2026-08-03T01:00:17.217Z</time>
      </trkpt>
      <trkpt lat="52.226689" lon="6.093123">
        <ele>5.219717</ele>
        <time>2026-08-03T01:00:22.178Z</time>
      </trkpt>
      <trkpt lat="52.226670" lon="6.093346">
        <ele>5.226353</ele>
        <time>2026-08-03T01:00:24.266Z</time>
      </trkpt>
      <trkpt lat="52.226618" lon="6.094922">
        <ele>5.272869</ele>
        <time>2026-08-03T01:00:38.968Z</time>
      </trkpt>
      <trkpt lat="52.226571" lon="6.096576">
        <ele>5.258914</ele>
        <time>2026-08-03T01:00:54.065Z</time>
      </trkpt>
      <trkpt lat="52.226626" lon="6.096705">
        <ele>5.253115</ele>
        <time>2026-08-03T01:00:55.471Z</time>
      </trkpt>
      <trkpt lat="52.226719" lon="6.096748">
        <ele>5.247292</ele>
        <time>2026-08-03T01:00:56.879Z</time>
      </trkpt>
      <trkpt lat="52.226808" lon="6.096781">
        <ele>5.241794</ele>
        <time>2026-08-03T01:00:58.190Z</time>
      </trkpt>
      <trkpt lat="52.226846" lon="6.096856">
        <ele>5.238202</ele>
        <time>2026-08-03T01:00:59.061Z</time>
      </trkpt>
      <trkpt lat="52.226731" lon="6.097592">
        <ele>5.210173</ele>
        <time>2026-08-03T01:01:05.770Z</time>
      </trkpt>
      <trkpt lat="52.226738" lon="6.097797">
        <ele>5.202597</ele>
        <time>2026-08-03T01:01:07.567Z</time>
      </trkpt>
      <trkpt lat="52.226710" lon="6.097928">
        <ele>5.197477</ele>
        <time>2026-08-03T01:01:08.792Z</time>
      </trkpt>
      <trkpt lat="52.226692" lon="6.098009">
        <ele>5.194297</ele>
        <time>2026-08-03T01:01:09.541Z</time>
      </trkpt>
      <trkpt lat="52.226650" lon="6.098188">
        <ele>5.187224</ele>
        <time>2026-08-03T01:01:11.220Z</time>
      </trkpt>
      <trkpt lat="52.226641" lon="6.098340">
        <ele>5.177346</ele>
        <time>2026-08-03T01:01:12.557Z</time>
      </trkpt>
      <trkpt lat="52.226783" lon="6.101630">
        <ele>4.945168</ele>
        <time>2026-08-03T01:01:41.439Z</time>
      </trkpt>
      <trkpt lat="52.226836" lon="6.103009">
        <ele>4.907253</ele>
        <time>2026-08-03T01:01:54.110Z</time>
      </trkpt>
      <trkpt lat="52.226925" lon="6.103405">
        <ele>4.895678</ele>
        <time>2026-08-03T01:01:57.944Z</time>
      </trkpt>
      <trkpt lat="52.226928" lon="6.103494">
        <ele>4.893233</ele>
        <time>2026-08-03T01:01:58.757Z</time>
      </trkpt>
      <trkpt lat="52.226879" lon="6.103500">
        <ele>4.891031</ele>
        <time>2026-08-03T01:01:59.494Z</time>
      </trkpt>
      <trkpt lat="52.226774" lon="6.103411">
        <ele>4.885731</ele>
        <time>2026-08-03T01:02:01.248Z</time>
      </trkpt>
      <trkpt lat="52.226707" lon="6.103410">
        <ele>4.882730</ele>
        <time>2026-08-03T01:02:02.229Z</time>
      </trkpt>
      <trkpt lat="52.226389" lon="6.103418">
        <ele>4.851262</ele>
        <time>2026-08-03T01:02:06.877Z</time>
      </trkpt>
      <trkpt lat="52.226276" lon="6.103173">
        <ele>4.826577</ele>
        <time>2026-08-03T01:02:09.572Z</time>
      </trkpt>
      <trkpt lat="52.226239" lon="6.103148">
        <ele>4.821315</ele>
        <time>2026-08-03T01:02:10.155Z</time>
      </trkpt>
      <trkpt lat="52.226218" lon="6.103149">
        <ele>4.818554</ele>
        <time>2026-08-03T01:02:10.569Z</time>
      </trkpt>
      <trkpt lat="52.226152" lon="6.103157">
        <ele>4.809858</ele>
        <time>2026-08-03T01:02:11.860Z</time>
      </trkpt>
      <trkpt lat="52.226134" lon="6.103160">
        <ele>4.807480</ele>
        <time>2026-08-03T01:02:12.209Z</time>
      </trkpt>
      <trkpt lat="52.226108" lon="6.103178">
        <ele>4.803769</ele>
        <time>2026-08-03T01:02:12.612Z</time>
      </trkpt>
      <trkpt lat="52.226096" lon="6.103155">
        <ele>4.801337</ele>
        <time>2026-08-03T01:02:12.872Z</time>
      </trkpt>
      <trkpt lat="52.226068" lon="6.103106">
        <ele>4.795943</ele>
        <time>2026-08-03T01:02:13.455Z</time>
      </trkpt>
      <trkpt lat="52.226009" lon="6.101918">
        <ele>4.700007</ele>
        <time>2026-08-03T01:02:23.680Z</time>
      </trkpt>
      <trkpt lat="52.225991" lon="6.101850">
        <ele>4.694044</ele>
        <time>2026-08-03T01:02:24.325Z</time>
      </trkpt>
      <trkpt lat="52.225952" lon="6.101808">
        <ele>4.687905</ele>
        <time>2026-08-03T01:02:24.993Z</time>
      </trkpt>
      <trkpt lat="52.225845" lon="6.101749">
        <ele>4.673064</ele>
        <time>2026-08-03T01:02:26.614Z</time>
      </trkpt>
      <trkpt lat="52.225212" lon="6.101417">
        <ele>4.641042</ele>
        <time>2026-08-03T01:02:36.277Z</time>
      </trkpt>
      <trkpt lat="52.225190" lon="6.101529">
        <ele>4.641042</ele>
        <time>2026-08-03T01:02:37.719Z</time>
      </trkpt>
      <trkpt lat="52.225061" lon="6.102198">
        <ele>4.641042</ele>
        <time>2026-08-03T01:02:46.297Z</time>
      </trkpt>
      <trkpt lat="52.225018" lon="6.102416">
        <ele>4.641042</ele>
        <time>2026-08-03T01:02:49.112Z</time>
      </trkpt>
    </trkseg>
  </trk>
</gpx>